<?xml version="1.0" encoding="UTF-8" standalone="no" ?>
<gpx xmlns="http://www.topografix.com/GPX/1/1" xmlns:xsi="http://www.w3.org/2001/XMLSchema-instance" xsi:schemaLocation="http://www.topografix.com/GPX/1/1 http://www.topografix.com/GPX/1/1/gpx.xsd" version="1.1" creator="VisuGPX - https://www.visugpx.com">
  <metadata>
    <name>passerelles2019</name>
    <desc><![CDATA[correction d'un enregistrement sans filtrage]]></desc>
  </metadata>
  <trk>
    <name><![CDATA[18-AVR-19 herbelon bleu]]></name>
    <trkseg>
      <trkpt lat="44.89666" lon="5.67367">
        <ele>506</ele>
        <time>2019-04-18T07:24:04Z</time>
      </trkpt>
      <trkpt lat="44.89666" lon="5.67366">
        <ele>506</ele>
        <time>2019-04-18T07:24:05Z</time>
      </trkpt>
      <trkpt lat="44.89666" lon="5.67365">
        <ele>506</ele>
        <time>2019-04-18T07:24:06Z</time>
      </trkpt>
      <trkpt lat="44.89666" lon="5.67365">
        <ele>506</ele>
        <time>2019-04-18T07:24:07Z</time>
      </trkpt>
      <trkpt lat="44.89665" lon="5.67364">
        <ele>506</ele>
        <time>2019-04-18T07:24:08Z</time>
      </trkpt>
      <trkpt lat="44.89665" lon="5.67364">
        <ele>507</ele>
        <time>2019-04-18T07:24:09Z</time>
      </trkpt>
      <trkpt lat="44.89664" lon="5.67352">
        <ele>508</ele>
        <time>2019-04-18T07:24:11Z</time>
      </trkpt>
      <trkpt lat="44.89664" lon="5.67344">
        <ele>509</ele>
        <time>2019-04-18T07:24:13Z</time>
      </trkpt>
      <trkpt lat="44.89665" lon="5.6734">
        <ele>510</ele>
        <time>2019-04-18T07:24:14Z</time>
      </trkpt>
      <trkpt lat="44.89666" lon="5.67338">
        <ele>510</ele>
        <time>2019-04-18T07:24:15Z</time>
      </trkpt>
      <trkpt lat="44.89666" lon="5.67336">
        <ele>511</ele>
        <time>2019-04-18T07:24:16Z</time>
      </trkpt>
      <trkpt lat="44.89666" lon="5.67333">
        <ele>511</ele>
        <time>2019-04-18T07:24:18Z</time>
      </trkpt>
      <trkpt lat="44.89666" lon="5.67332">
        <ele>512</ele>
        <time>2019-04-18T07:24:19Z</time>
      </trkpt>
      <trkpt lat="44.89666" lon="5.67332">
        <ele>512</ele>
        <time>2019-04-18T07:24:20Z</time>
      </trkpt>
      <trkpt lat="44.89665" lon="5.67332">
        <ele>512</ele>
        <time>2019-04-18T07:24:21Z</time>
      </trkpt>
      <trkpt lat="44.89665" lon="5.67333">
        <ele>512</ele>
        <time>2019-04-18T07:24:22Z</time>
      </trkpt>
      <trkpt lat="44.89665" lon="5.67333">
        <ele>512</ele>
        <time>2019-04-18T07:24:23Z</time>
      </trkpt>
      <trkpt lat="44.89664" lon="5.67333">
        <ele>512</ele>
        <time>2019-04-18T07:24:24Z</time>
      </trkpt>
      <trkpt lat="44.89667" lon="5.67334">
        <ele>511</ele>
        <time>2019-04-18T07:24:25Z</time>
      </trkpt>
      <trkpt lat="44.89668" lon="5.67337">
        <ele>510</ele>
        <time>2019-04-18T07:24:28Z</time>
      </trkpt>
      <trkpt lat="44.89668" lon="5.67337">
        <ele>510</ele>
        <time>2019-04-18T07:24:29Z</time>
      </trkpt>
      <trkpt lat="44.89667" lon="5.67338">
        <ele>509</ele>
        <time>2019-04-18T07:24:30Z</time>
      </trkpt>
      <trkpt lat="44.89666" lon="5.67338">
        <ele>510</ele>
        <time>2019-04-18T07:24:34Z</time>
      </trkpt>
      <trkpt lat="44.89663" lon="5.67343">
        <ele>509</ele>
        <time>2019-04-18T07:24:40Z</time>
      </trkpt>
      <trkpt lat="44.89663" lon="5.67343">
        <ele>509</ele>
        <time>2019-04-18T07:24:41Z</time>
      </trkpt>
      <trkpt lat="44.89663" lon="5.67343">
        <ele>509</ele>
        <time>2019-04-18T07:24:42Z</time>
      </trkpt>
      <trkpt lat="44.89662" lon="5.67343">
        <ele>509</ele>
        <time>2019-04-18T07:24:43Z</time>
      </trkpt>
      <trkpt lat="44.89662" lon="5.67342">
        <ele>509</ele>
        <time>2019-04-18T07:24:44Z</time>
      </trkpt>
      <trkpt lat="44.89662" lon="5.6734">
        <ele>510</ele>
        <time>2019-04-18T07:24:45Z</time>
      </trkpt>
      <trkpt lat="44.89662" lon="5.67339">
        <ele>510</ele>
        <time>2019-04-18T07:24:49Z</time>
      </trkpt>
      <trkpt lat="44.89662" lon="5.6734">
        <ele>510</ele>
        <time>2019-04-18T07:24:50Z</time>
      </trkpt>
      <trkpt lat="44.89662" lon="5.6734">
        <ele>510</ele>
        <time>2019-04-18T07:24:51Z</time>
      </trkpt>
      <trkpt lat="44.89661" lon="5.6734">
        <ele>510</ele>
        <time>2019-04-18T07:24:52Z</time>
      </trkpt>
      <trkpt lat="44.89661" lon="5.6734">
        <ele>510</ele>
        <time>2019-04-18T07:24:53Z</time>
      </trkpt>
      <trkpt lat="44.89661" lon="5.67339">
        <ele>510</ele>
        <time>2019-04-18T07:24:54Z</time>
      </trkpt>
      <trkpt lat="44.89661" lon="5.67338">
        <ele>510</ele>
        <time>2019-04-18T07:24:55Z</time>
      </trkpt>
      <trkpt lat="44.8966" lon="5.67337">
        <ele>510</ele>
        <time>2019-04-18T07:24:56Z</time>
      </trkpt>
      <trkpt lat="44.89661" lon="5.67336">
        <ele>510</ele>
        <time>2019-04-18T07:24:58Z</time>
      </trkpt>
      <trkpt lat="44.89661" lon="5.67335">
        <ele>510</ele>
        <time>2019-04-18T07:24:59Z</time>
      </trkpt>
      <trkpt lat="44.89661" lon="5.67334">
        <ele>510</ele>
        <time>2019-04-18T07:25:00Z</time>
      </trkpt>
      <trkpt lat="44.89661" lon="5.67332">
        <ele>513</ele>
        <time>2019-04-18T07:25:01Z</time>
      </trkpt>
      <trkpt lat="44.89661" lon="5.6733">
        <ele>514</ele>
        <time>2019-04-18T07:25:02Z</time>
      </trkpt>
      <trkpt lat="44.89661" lon="5.67328">
        <ele>514</ele>
        <time>2019-04-18T07:25:03Z</time>
      </trkpt>
      <trkpt lat="44.89661" lon="5.67327">
        <ele>514</ele>
        <time>2019-04-18T07:25:04Z</time>
      </trkpt>
      <trkpt lat="44.89661" lon="5.67326">
        <ele>514</ele>
        <time>2019-04-18T07:25:05Z</time>
      </trkpt>
      <trkpt lat="44.8966" lon="5.67328">
        <ele>514</ele>
        <time>2019-04-18T07:25:07Z</time>
      </trkpt>
      <trkpt lat="44.89654" lon="5.67333">
        <ele>515</ele>
        <time>2019-04-18T07:25:25Z</time>
      </trkpt>
      <trkpt lat="44.8965" lon="5.6734">
        <ele>509</ele>
        <time>2019-04-18T07:25:39Z</time>
      </trkpt>
      <trkpt lat="44.8965" lon="5.67345">
        <ele>508</ele>
        <time>2019-04-18T07:25:56Z</time>
      </trkpt>
      <trkpt lat="44.89649" lon="5.67347">
        <ele>508</ele>
        <time>2019-04-18T07:26:09Z</time>
      </trkpt>
      <trkpt lat="44.89648" lon="5.6735">
        <ele>508</ele>
        <time>2019-04-18T07:26:30Z</time>
      </trkpt>
      <trkpt lat="44.89647" lon="5.67351">
        <ele>508</ele>
        <time>2019-04-18T07:26:37Z</time>
      </trkpt>
      <trkpt lat="44.89647" lon="5.67352">
        <ele>508</ele>
        <time>2019-04-18T07:26:39Z</time>
      </trkpt>
      <trkpt lat="44.89647" lon="5.67352">
        <ele>508</ele>
        <time>2019-04-18T07:26:41Z</time>
      </trkpt>
      <trkpt lat="44.89647" lon="5.67351">
        <ele>508</ele>
        <time>2019-04-18T07:26:43Z</time>
      </trkpt>
      <trkpt lat="44.89647" lon="5.67351">
        <ele>508</ele>
        <time>2019-04-18T07:26:45Z</time>
      </trkpt>
      <trkpt lat="44.89646" lon="5.67351">
        <ele>508</ele>
        <time>2019-04-18T07:26:47Z</time>
      </trkpt>
      <trkpt lat="44.89646" lon="5.67351">
        <ele>508</ele>
        <time>2019-04-18T07:26:49Z</time>
      </trkpt>
      <trkpt lat="44.89646" lon="5.67352">
        <ele>508</ele>
        <time>2019-04-18T07:26:51Z</time>
      </trkpt>
      <trkpt lat="44.89646" lon="5.67352">
        <ele>508</ele>
        <time>2019-04-18T07:26:54Z</time>
      </trkpt>
      <trkpt lat="44.89646" lon="5.67352">
        <ele>508</ele>
        <time>2019-04-18T07:26:57Z</time>
      </trkpt>
      <trkpt lat="44.89646" lon="5.67352">
        <ele>508</ele>
        <time>2019-04-18T07:27:00Z</time>
      </trkpt>
      <trkpt lat="44.89646" lon="5.67353">
        <ele>508</ele>
        <time>2019-04-18T07:27:03Z</time>
      </trkpt>
      <trkpt lat="44.89646" lon="5.67353">
        <ele>508</ele>
        <time>2019-04-18T07:27:06Z</time>
      </trkpt>
      <trkpt lat="44.89645" lon="5.67353">
        <ele>508</ele>
        <time>2019-04-18T07:27:10Z</time>
      </trkpt>
      <trkpt lat="44.89645" lon="5.67353">
        <ele>508</ele>
        <time>2019-04-18T07:27:14Z</time>
      </trkpt>
      <trkpt lat="44.89645" lon="5.67353">
        <ele>508</ele>
        <time>2019-04-18T07:27:19Z</time>
      </trkpt>
      <trkpt lat="44.89644" lon="5.67353">
        <ele>508</ele>
        <time>2019-04-18T07:27:24Z</time>
      </trkpt>
      <trkpt lat="44.89645" lon="5.6735">
        <ele>508</ele>
        <time>2019-04-18T07:27:30Z</time>
      </trkpt>
      <trkpt lat="44.89645" lon="5.6735">
        <ele>508</ele>
        <time>2019-04-18T07:27:31Z</time>
      </trkpt>
      <trkpt lat="44.89644" lon="5.6735">
        <ele>508</ele>
        <time>2019-04-18T07:27:34Z</time>
      </trkpt>
      <trkpt lat="44.89643" lon="5.67351">
        <ele>508</ele>
        <time>2019-04-18T07:27:42Z</time>
      </trkpt>
      <trkpt lat="44.89643" lon="5.67351">
        <ele>508</ele>
        <time>2019-04-18T07:27:51Z</time>
      </trkpt>
      <trkpt lat="44.89643" lon="5.6735">
        <ele>508</ele>
        <time>2019-04-18T07:28:02Z</time>
      </trkpt>
      <trkpt lat="44.89644" lon="5.67349">
        <ele>508</ele>
        <time>2019-04-18T07:28:18Z</time>
      </trkpt>
      <trkpt lat="44.89644" lon="5.67349">
        <ele>508</ele>
        <time>2019-04-18T07:28:36Z</time>
      </trkpt>
      <trkpt lat="44.89643" lon="5.67349">
        <ele>508</ele>
        <time>2019-04-18T07:28:54Z</time>
      </trkpt>
      <trkpt lat="44.89643" lon="5.67349">
        <ele>508</ele>
        <time>2019-04-18T07:29:08Z</time>
      </trkpt>
      <trkpt lat="44.89638" lon="5.67346">
        <ele>508</ele>
        <time>2019-04-18T07:29:22Z</time>
      </trkpt>
      <trkpt lat="44.89632" lon="5.67346">
        <ele>508</ele>
        <time>2019-04-18T07:29:28Z</time>
      </trkpt>
      <trkpt lat="44.89624" lon="5.67346">
        <ele>508</ele>
        <time>2019-04-18T07:29:44Z</time>
      </trkpt>
      <trkpt lat="44.89613" lon="5.67348">
        <ele>509</ele>
        <time>2019-04-18T07:29:59Z</time>
      </trkpt>
      <trkpt lat="44.89601" lon="5.67347">
        <ele>511</ele>
        <time>2019-04-18T07:30:10Z</time>
      </trkpt>
      <trkpt lat="44.89585" lon="5.67346">
        <ele>513</ele>
        <time>2019-04-18T07:30:22Z</time>
      </trkpt>
      <trkpt lat="44.89573" lon="5.67346">
        <ele>514</ele>
        <time>2019-04-18T07:30:34Z</time>
      </trkpt>
      <trkpt lat="44.89558" lon="5.6735">
        <ele>513</ele>
        <time>2019-04-18T07:30:48Z</time>
      </trkpt>
      <trkpt lat="44.89553" lon="5.6735">
        <ele>513</ele>
        <time>2019-04-18T07:30:54Z</time>
      </trkpt>
      <trkpt lat="44.89551" lon="5.6735">
        <ele>513</ele>
        <time>2019-04-18T07:30:56Z</time>
      </trkpt>
      <trkpt lat="44.89549" lon="5.6735">
        <ele>513</ele>
        <time>2019-04-18T07:30:58Z</time>
      </trkpt>
      <trkpt lat="44.89544" lon="5.6735">
        <ele>513</ele>
        <time>2019-04-18T07:31:03Z</time>
      </trkpt>
      <trkpt lat="44.89541" lon="5.67351">
        <ele>513</ele>
        <time>2019-04-18T07:31:06Z</time>
      </trkpt>
      <trkpt lat="44.89535" lon="5.67352">
        <ele>513</ele>
        <time>2019-04-18T07:31:12Z</time>
      </trkpt>
      <trkpt lat="44.89531" lon="5.67352">
        <ele>513</ele>
        <time>2019-04-18T07:31:16Z</time>
      </trkpt>
      <trkpt lat="44.89518" lon="5.67354">
        <ele>514</ele>
        <time>2019-04-18T07:31:32Z</time>
      </trkpt>
      <trkpt lat="44.89516" lon="5.67354">
        <ele>514</ele>
        <time>2019-04-18T07:31:34Z</time>
      </trkpt>
      <trkpt lat="44.89507" lon="5.67353">
        <ele>515</ele>
        <time>2019-04-18T07:31:43Z</time>
      </trkpt>
      <trkpt lat="44.89494" lon="5.67352">
        <ele>518</ele>
        <time>2019-04-18T07:31:57Z</time>
      </trkpt>
      <trkpt lat="44.8948" lon="5.67354">
        <ele>517</ele>
        <time>2019-04-18T07:32:11Z</time>
      </trkpt>
      <trkpt lat="44.89468" lon="5.67355">
        <ele>517</ele>
        <time>2019-04-18T07:32:25Z</time>
      </trkpt>
      <trkpt lat="44.89456" lon="5.67359">
        <ele>517</ele>
        <time>2019-04-18T07:32:38Z</time>
      </trkpt>
      <trkpt lat="44.89443" lon="5.67363">
        <ele>518</ele>
        <time>2019-04-18T07:32:53Z</time>
      </trkpt>
      <trkpt lat="44.89432" lon="5.67366">
        <ele>518</ele>
        <time>2019-04-18T07:33:05Z</time>
      </trkpt>
      <trkpt lat="44.89431" lon="5.67366">
        <ele>518</ele>
        <time>2019-04-18T07:33:06Z</time>
      </trkpt>
      <trkpt lat="44.89428" lon="5.67366">
        <ele>518</ele>
        <time>2019-04-18T07:33:09Z</time>
      </trkpt>
      <trkpt lat="44.89419" lon="5.67358">
        <ele>519</ele>
        <time>2019-04-18T07:33:24Z</time>
      </trkpt>
      <trkpt lat="44.89419" lon="5.67351">
        <ele>520</ele>
        <time>2019-04-18T07:33:32Z</time>
      </trkpt>
      <trkpt lat="44.89419" lon="5.67349">
        <ele>520</ele>
        <time>2019-04-18T07:33:33Z</time>
      </trkpt>
      <trkpt lat="44.89419" lon="5.67346">
        <ele>521</ele>
        <time>2019-04-18T07:33:35Z</time>
      </trkpt>
      <trkpt lat="44.89419" lon="5.67344">
        <ele>521</ele>
        <time>2019-04-18T07:33:36Z</time>
      </trkpt>
      <trkpt lat="44.89419" lon="5.67343">
        <ele>521</ele>
        <time>2019-04-18T07:33:37Z</time>
      </trkpt>
      <trkpt lat="44.8942" lon="5.67342">
        <ele>522</ele>
        <time>2019-04-18T07:33:38Z</time>
      </trkpt>
      <trkpt lat="44.8942" lon="5.6734">
        <ele>522</ele>
        <time>2019-04-18T07:33:39Z</time>
      </trkpt>
      <trkpt lat="44.89421" lon="5.67337">
        <ele>522</ele>
        <time>2019-04-18T07:33:42Z</time>
      </trkpt>
      <trkpt lat="44.89432" lon="5.6732">
        <ele>529</ele>
        <time>2019-04-18T07:33:57Z</time>
      </trkpt>
      <trkpt lat="44.89446" lon="5.67308">
        <ele>531</ele>
        <time>2019-04-18T07:34:13Z</time>
      </trkpt>
      <trkpt lat="44.89458" lon="5.67296">
        <ele>532</ele>
        <time>2019-04-18T07:34:29Z</time>
      </trkpt>
      <trkpt lat="44.89468" lon="5.67279">
        <ele>534</ele>
        <time>2019-04-18T07:34:46Z</time>
      </trkpt>
      <trkpt lat="44.8948" lon="5.67266">
        <ele>535</ele>
        <time>2019-04-18T07:35:01Z</time>
      </trkpt>
      <trkpt lat="44.89491" lon="5.67256">
        <ele>537</ele>
        <time>2019-04-18T07:35:14Z</time>
      </trkpt>
      <trkpt lat="44.89506" lon="5.67251">
        <ele>537</ele>
        <time>2019-04-18T07:35:27Z</time>
      </trkpt>
      <trkpt lat="44.89508" lon="5.6725">
        <ele>536</ele>
        <time>2019-04-18T07:35:29Z</time>
      </trkpt>
      <trkpt lat="44.89515" lon="5.67239">
        <ele>542</ele>
        <time>2019-04-18T07:35:40Z</time>
      </trkpt>
      <trkpt lat="44.89517" lon="5.67238">
        <ele>542</ele>
        <time>2019-04-18T07:35:42Z</time>
      </trkpt>
      <trkpt lat="44.89509" lon="5.6723">
        <ele>543</ele>
        <time>2019-04-18T07:35:54Z</time>
      </trkpt>
      <trkpt lat="44.89489" lon="5.6724">
        <ele>547</ele>
        <time>2019-04-18T07:36:14Z</time>
      </trkpt>
      <trkpt lat="44.89473" lon="5.67248">
        <ele>551</ele>
        <time>2019-04-18T07:36:34Z</time>
      </trkpt>
      <trkpt lat="44.89447" lon="5.67257">
        <ele>538</ele>
        <time>2019-04-18T07:36:57Z</time>
      </trkpt>
      <trkpt lat="44.8942" lon="5.67264">
        <ele>542</ele>
        <time>2019-04-18T07:37:21Z</time>
      </trkpt>
      <trkpt lat="44.89411" lon="5.67265">
        <ele>544</ele>
        <time>2019-04-18T07:37:31Z</time>
      </trkpt>
      <trkpt lat="44.89393" lon="5.6727">
        <ele>542</ele>
        <time>2019-04-18T07:37:51Z</time>
      </trkpt>
      <trkpt lat="44.89392" lon="5.6727">
        <ele>542</ele>
        <time>2019-04-18T07:37:52Z</time>
      </trkpt>
      <trkpt lat="44.89382" lon="5.67273">
        <ele>541</ele>
        <time>2019-04-18T07:38:03Z</time>
      </trkpt>
      <trkpt lat="44.89366" lon="5.67279">
        <ele>541</ele>
        <time>2019-04-18T07:38:18Z</time>
      </trkpt>
      <trkpt lat="44.8935" lon="5.67287">
        <ele>540</ele>
        <time>2019-04-18T07:38:34Z</time>
      </trkpt>
      <trkpt lat="44.89336" lon="5.67288">
        <ele>540</ele>
        <time>2019-04-18T07:38:49Z</time>
      </trkpt>
      <trkpt lat="44.89318" lon="5.67294">
        <ele>541</ele>
        <time>2019-04-18T07:39:06Z</time>
      </trkpt>
      <trkpt lat="44.89301" lon="5.67295">
        <ele>542</ele>
        <time>2019-04-18T07:39:21Z</time>
      </trkpt>
      <trkpt lat="44.89281" lon="5.67297">
        <ele>542</ele>
        <time>2019-04-18T07:39:39Z</time>
      </trkpt>
      <trkpt lat="44.89262" lon="5.67299">
        <ele>541</ele>
        <time>2019-04-18T07:39:58Z</time>
      </trkpt>
      <trkpt lat="44.89237" lon="5.67294">
        <ele>546</ele>
        <time>2019-04-18T07:40:19Z</time>
      </trkpt>
      <trkpt lat="44.89213" lon="5.67294">
        <ele>546</ele>
        <time>2019-04-18T07:40:43Z</time>
      </trkpt>
      <trkpt lat="44.89187" lon="5.67297">
        <ele>546</ele>
        <time>2019-04-18T07:41:05Z</time>
      </trkpt>
      <trkpt lat="44.89169" lon="5.67304">
        <ele>544</ele>
        <time>2019-04-18T07:41:24Z</time>
      </trkpt>
      <trkpt lat="44.89151" lon="5.67311">
        <ele>544</ele>
        <time>2019-04-18T07:41:42Z</time>
      </trkpt>
      <trkpt lat="44.89129" lon="5.67317">
        <ele>545</ele>
        <time>2019-04-18T07:42:03Z</time>
      </trkpt>
      <trkpt lat="44.89116" lon="5.67319">
        <ele>544</ele>
        <time>2019-04-18T07:42:15Z</time>
      </trkpt>
      <trkpt lat="44.89101" lon="5.67325">
        <ele>542</ele>
        <time>2019-04-18T07:42:28Z</time>
      </trkpt>
      <trkpt lat="44.89085" lon="5.67325">
        <ele>538</ele>
        <time>2019-04-18T07:42:44Z</time>
      </trkpt>
      <trkpt lat="44.89077" lon="5.67324">
        <ele>539</ele>
        <time>2019-04-18T07:42:57Z</time>
      </trkpt>
      <trkpt lat="44.89076" lon="5.67324">
        <ele>539</ele>
        <time>2019-04-18T07:42:59Z</time>
      </trkpt>
      <trkpt lat="44.89058" lon="5.67324">
        <ele>542</ele>
        <time>2019-04-18T07:43:16Z</time>
      </trkpt>
      <trkpt lat="44.89043" lon="5.67323">
        <ele>542</ele>
        <time>2019-04-18T07:43:31Z</time>
      </trkpt>
      <trkpt lat="44.89038" lon="5.67323">
        <ele>542</ele>
        <time>2019-04-18T07:43:35Z</time>
      </trkpt>
      <trkpt lat="44.8902" lon="5.67327">
        <ele>539</ele>
        <time>2019-04-18T07:43:53Z</time>
      </trkpt>
      <trkpt lat="44.89017" lon="5.67327">
        <ele>538</ele>
        <time>2019-04-18T07:43:55Z</time>
      </trkpt>
      <trkpt lat="44.88994" lon="5.67328">
        <ele>534</ele>
        <time>2019-04-18T07:44:15Z</time>
      </trkpt>
      <trkpt lat="44.88974" lon="5.67324">
        <ele>539</ele>
        <time>2019-04-18T07:44:34Z</time>
      </trkpt>
      <trkpt lat="44.88959" lon="5.67331">
        <ele>539</ele>
        <time>2019-04-18T07:44:48Z</time>
      </trkpt>
      <trkpt lat="44.8894" lon="5.67336">
        <ele>524</ele>
        <time>2019-04-18T07:45:06Z</time>
      </trkpt>
      <trkpt lat="44.88925" lon="5.67327">
        <ele>535</ele>
        <time>2019-04-18T07:45:20Z</time>
      </trkpt>
      <trkpt lat="44.88906" lon="5.67328">
        <ele>536</ele>
        <time>2019-04-18T07:45:41Z</time>
      </trkpt>
      <trkpt lat="44.88904" lon="5.67334">
        <ele>528</ele>
        <time>2019-04-18T07:45:44Z</time>
      </trkpt>
      <trkpt lat="44.88893" lon="5.67349">
        <ele>526</ele>
        <time>2019-04-18T07:45:59Z</time>
      </trkpt>
      <trkpt lat="44.88889" lon="5.6735">
        <ele>526</ele>
        <time>2019-04-18T07:46:08Z</time>
      </trkpt>
      <trkpt lat="44.8888" lon="5.67348">
        <ele>526</ele>
        <time>2019-04-18T07:46:16Z</time>
      </trkpt>
      <trkpt lat="44.8886" lon="5.67353">
        <ele>527</ele>
        <time>2019-04-18T07:46:34Z</time>
      </trkpt>
      <trkpt lat="44.8884" lon="5.67353">
        <ele>528</ele>
        <time>2019-04-18T07:46:50Z</time>
      </trkpt>
      <trkpt lat="44.88834" lon="5.67351">
        <ele>529</ele>
        <time>2019-04-18T07:46:55Z</time>
      </trkpt>
      <trkpt lat="44.88818" lon="5.6736">
        <ele>531</ele>
        <time>2019-04-18T07:47:10Z</time>
      </trkpt>
      <trkpt lat="44.88813" lon="5.6736">
        <ele>531</ele>
        <time>2019-04-18T07:47:15Z</time>
      </trkpt>
      <trkpt lat="44.88805" lon="5.67365">
        <ele>531</ele>
        <time>2019-04-18T07:47:24Z</time>
      </trkpt>
      <trkpt lat="44.888" lon="5.67367">
        <ele>531</ele>
        <time>2019-04-18T07:47:30Z</time>
      </trkpt>
      <trkpt lat="44.88784" lon="5.67371">
        <ele>531</ele>
        <time>2019-04-18T07:47:45Z</time>
      </trkpt>
      <trkpt lat="44.88775" lon="5.67373">
        <ele>531</ele>
        <time>2019-04-18T07:48:03Z</time>
      </trkpt>
      <trkpt lat="44.88777" lon="5.67374">
        <ele>531</ele>
        <time>2019-04-18T07:48:27Z</time>
      </trkpt>
      <trkpt lat="44.88778" lon="5.67373">
        <ele>531</ele>
        <time>2019-04-18T07:48:58Z</time>
      </trkpt>
      <trkpt lat="44.88779" lon="5.67373">
        <ele>531</ele>
        <time>2019-04-18T07:49:23Z</time>
      </trkpt>
      <trkpt lat="44.88779" lon="5.6737">
        <ele>532</ele>
        <time>2019-04-18T07:49:43Z</time>
      </trkpt>
      <trkpt lat="44.88779" lon="5.67372">
        <ele>531</ele>
        <time>2019-04-18T07:49:55Z</time>
      </trkpt>
      <trkpt lat="44.88776" lon="5.67372">
        <ele>531</ele>
        <time>2019-04-18T07:50:08Z</time>
      </trkpt>
      <trkpt lat="44.88757" lon="5.67378">
        <ele>531</ele>
        <time>2019-04-18T07:50:24Z</time>
      </trkpt>
      <trkpt lat="44.88753" lon="5.6738">
        <ele>531</ele>
        <time>2019-04-18T07:50:27Z</time>
      </trkpt>
      <trkpt lat="44.88747" lon="5.67381">
        <ele>535</ele>
        <time>2019-04-18T07:50:32Z</time>
      </trkpt>
      <trkpt lat="44.88731" lon="5.67388">
        <ele>535</ele>
        <time>2019-04-18T07:50:47Z</time>
      </trkpt>
      <trkpt lat="44.88715" lon="5.6739">
        <ele>535</ele>
        <time>2019-04-18T07:51:04Z</time>
      </trkpt>
      <trkpt lat="44.88696" lon="5.67398">
        <ele>535</ele>
        <time>2019-04-18T07:51:25Z</time>
      </trkpt>
      <trkpt lat="44.88675" lon="5.67406">
        <ele>533</ele>
        <time>2019-04-18T07:51:45Z</time>
      </trkpt>
      <trkpt lat="44.88665" lon="5.67408">
        <ele>533</ele>
        <time>2019-04-18T07:51:54Z</time>
      </trkpt>
      <trkpt lat="44.8866" lon="5.67409">
        <ele>534</ele>
        <time>2019-04-18T07:51:59Z</time>
      </trkpt>
      <trkpt lat="44.88657" lon="5.67409">
        <ele>535</ele>
        <time>2019-04-18T07:52:02Z</time>
      </trkpt>
      <trkpt lat="44.88643" lon="5.67412">
        <ele>537</ele>
        <time>2019-04-18T07:52:15Z</time>
      </trkpt>
      <trkpt lat="44.88625" lon="5.67414">
        <ele>539</ele>
        <time>2019-04-18T07:52:32Z</time>
      </trkpt>
      <trkpt lat="44.88617" lon="5.67415">
        <ele>539</ele>
        <time>2019-04-18T07:52:40Z</time>
      </trkpt>
      <trkpt lat="44.88594" lon="5.67418">
        <ele>529</ele>
        <time>2019-04-18T07:53:01Z</time>
      </trkpt>
      <trkpt lat="44.88579" lon="5.67422">
        <ele>531</ele>
        <time>2019-04-18T07:53:15Z</time>
      </trkpt>
      <trkpt lat="44.88568" lon="5.67423">
        <ele>531</ele>
        <time>2019-04-18T07:53:25Z</time>
      </trkpt>
      <trkpt lat="44.88551" lon="5.67427">
        <ele>531</ele>
        <time>2019-04-18T07:53:42Z</time>
      </trkpt>
      <trkpt lat="44.88537" lon="5.67429">
        <ele>532</ele>
        <time>2019-04-18T07:53:57Z</time>
      </trkpt>
      <trkpt lat="44.88527" lon="5.67434">
        <ele>532</ele>
        <time>2019-04-18T07:54:08Z</time>
      </trkpt>
      <trkpt lat="44.8852" lon="5.67443">
        <ele>532</ele>
        <time>2019-04-18T07:54:18Z</time>
      </trkpt>
      <trkpt lat="44.88519" lon="5.67449">
        <ele>531</ele>
        <time>2019-04-18T07:54:35Z</time>
      </trkpt>
      <trkpt lat="44.88519" lon="5.67448">
        <ele>531</ele>
        <time>2019-04-18T07:54:59Z</time>
      </trkpt>
      <trkpt lat="44.88514" lon="5.67451">
        <ele>531</ele>
        <time>2019-04-18T07:55:08Z</time>
      </trkpt>
      <trkpt lat="44.88498" lon="5.67459">
        <ele>535</ele>
        <time>2019-04-18T07:55:25Z</time>
      </trkpt>
      <trkpt lat="44.88484" lon="5.67463">
        <ele>535</ele>
        <time>2019-04-18T07:55:39Z</time>
      </trkpt>
      <trkpt lat="44.88473" lon="5.67468">
        <ele>535</ele>
        <time>2019-04-18T07:55:52Z</time>
      </trkpt>
      <trkpt lat="44.88452" lon="5.67472">
        <ele>536</ele>
        <time>2019-04-18T07:56:11Z</time>
      </trkpt>
      <trkpt lat="44.88443" lon="5.67475">
        <ele>536</ele>
        <time>2019-04-18T07:56:20Z</time>
      </trkpt>
      <trkpt lat="44.88426" lon="5.67481">
        <ele>535</ele>
        <time>2019-04-18T07:56:38Z</time>
      </trkpt>
      <trkpt lat="44.88409" lon="5.67482">
        <ele>540</ele>
        <time>2019-04-18T07:56:52Z</time>
      </trkpt>
      <trkpt lat="44.88401" lon="5.67484">
        <ele>541</ele>
        <time>2019-04-18T07:57:01Z</time>
      </trkpt>
      <trkpt lat="44.88382" lon="5.67487">
        <ele>544</ele>
        <time>2019-04-18T07:57:21Z</time>
      </trkpt>
      <trkpt lat="44.88362" lon="5.67495">
        <ele>545</ele>
        <time>2019-04-18T07:57:40Z</time>
      </trkpt>
      <trkpt lat="44.88347" lon="5.67507">
        <ele>537</ele>
        <time>2019-04-18T07:58:00Z</time>
      </trkpt>
      <trkpt lat="44.88335" lon="5.6752">
        <ele>536</ele>
        <time>2019-04-18T07:58:14Z</time>
      </trkpt>
      <trkpt lat="44.88333" lon="5.67523">
        <ele>542</ele>
        <time>2019-04-18T07:58:17Z</time>
      </trkpt>
      <trkpt lat="44.88319" lon="5.67539">
        <ele>541</ele>
        <time>2019-04-18T07:58:33Z</time>
      </trkpt>
      <trkpt lat="44.88311" lon="5.67547">
        <ele>541</ele>
        <time>2019-04-18T07:58:41Z</time>
      </trkpt>
      <trkpt lat="44.883" lon="5.67555">
        <ele>541</ele>
        <time>2019-04-18T07:58:55Z</time>
      </trkpt>
      <trkpt lat="44.883" lon="5.67555">
        <ele>541</ele>
        <time>2019-04-18T07:58:56Z</time>
      </trkpt>
      <trkpt lat="44.88286" lon="5.67561">
        <ele>542</ele>
        <time>2019-04-18T07:59:11Z</time>
      </trkpt>
      <trkpt lat="44.88285" lon="5.67561">
        <ele>542</ele>
        <time>2019-04-18T07:59:12Z</time>
      </trkpt>
      <trkpt lat="44.8828" lon="5.67562">
        <ele>543</ele>
        <time>2019-04-18T07:59:17Z</time>
      </trkpt>
      <trkpt lat="44.88275" lon="5.67563">
        <ele>543</ele>
        <time>2019-04-18T07:59:22Z</time>
      </trkpt>
      <trkpt lat="44.88262" lon="5.67562">
        <ele>543</ele>
        <time>2019-04-18T07:59:38Z</time>
      </trkpt>
      <trkpt lat="44.88246" lon="5.67564">
        <ele>552</ele>
        <time>2019-04-18T07:59:57Z</time>
      </trkpt>
      <trkpt lat="44.88232" lon="5.67563">
        <ele>553</ele>
        <time>2019-04-18T08:00:12Z</time>
      </trkpt>
      <trkpt lat="44.88214" lon="5.67564">
        <ele>556</ele>
        <time>2019-04-18T08:00:27Z</time>
      </trkpt>
      <trkpt lat="44.88195" lon="5.67566">
        <ele>558</ele>
        <time>2019-04-18T08:00:46Z</time>
      </trkpt>
      <trkpt lat="44.88177" lon="5.67566">
        <ele>559</ele>
        <time>2019-04-18T08:01:03Z</time>
      </trkpt>
      <trkpt lat="44.88157" lon="5.67569">
        <ele>566</ele>
        <time>2019-04-18T08:01:23Z</time>
      </trkpt>
      <trkpt lat="44.88145" lon="5.67566">
        <ele>569</ele>
        <time>2019-04-18T08:01:41Z</time>
      </trkpt>
      <trkpt lat="44.88135" lon="5.67568">
        <ele>570</ele>
        <time>2019-04-18T08:01:57Z</time>
      </trkpt>
      <trkpt lat="44.88134" lon="5.67568">
        <ele>571</ele>
        <time>2019-04-18T08:02:02Z</time>
      </trkpt>
      <trkpt lat="44.88131" lon="5.67568">
        <ele>571</ele>
        <time>2019-04-18T08:02:07Z</time>
      </trkpt>
      <trkpt lat="44.88131" lon="5.67569">
        <ele>571</ele>
        <time>2019-04-18T08:02:08Z</time>
      </trkpt>
      <trkpt lat="44.8813" lon="5.6757">
        <ele>571</ele>
        <time>2019-04-18T08:02:10Z</time>
      </trkpt>
      <trkpt lat="44.88129" lon="5.6757">
        <ele>571</ele>
        <time>2019-04-18T08:02:11Z</time>
      </trkpt>
      <trkpt lat="44.88128" lon="5.6757">
        <ele>571</ele>
        <time>2019-04-18T08:02:13Z</time>
      </trkpt>
      <trkpt lat="44.88128" lon="5.6757">
        <ele>571</ele>
        <time>2019-04-18T08:02:14Z</time>
      </trkpt>
      <trkpt lat="44.88117" lon="5.67569">
        <ele>572</ele>
        <time>2019-04-18T08:02:33Z</time>
      </trkpt>
      <trkpt lat="44.88098" lon="5.67581">
        <ele>571</ele>
        <time>2019-04-18T08:02:49Z</time>
      </trkpt>
      <trkpt lat="44.88088" lon="5.67587">
        <ele>564</ele>
        <time>2019-04-18T08:03:08Z</time>
      </trkpt>
      <trkpt lat="44.88076" lon="5.67597">
        <ele>566</ele>
        <time>2019-04-18T08:03:27Z</time>
      </trkpt>
      <trkpt lat="44.88069" lon="5.67604">
        <ele>565</ele>
        <time>2019-04-18T08:03:47Z</time>
      </trkpt>
      <trkpt lat="44.88067" lon="5.67604">
        <ele>565</ele>
        <time>2019-04-18T08:04:11Z</time>
      </trkpt>
      <trkpt lat="44.88066" lon="5.67602">
        <ele>566</ele>
        <time>2019-04-18T08:04:36Z</time>
      </trkpt>
      <trkpt lat="44.88064" lon="5.67601">
        <ele>566</ele>
        <time>2019-04-18T08:04:58Z</time>
      </trkpt>
      <trkpt lat="44.88064" lon="5.67601">
        <ele>566</ele>
        <time>2019-04-18T08:05:09Z</time>
      </trkpt>
      <trkpt lat="44.88064" lon="5.67601">
        <ele>566</ele>
        <time>2019-04-18T08:05:10Z</time>
      </trkpt>
      <trkpt lat="44.88064" lon="5.67601">
        <ele>566</ele>
        <time>2019-04-18T08:05:11Z</time>
      </trkpt>
      <trkpt lat="44.88064" lon="5.67601">
        <ele>566</ele>
        <time>2019-04-18T08:05:12Z</time>
      </trkpt>
      <trkpt lat="44.88064" lon="5.67601">
        <ele>566</ele>
        <time>2019-04-18T08:05:13Z</time>
      </trkpt>
      <trkpt lat="44.88063" lon="5.67601">
        <ele>566</ele>
        <time>2019-04-18T08:05:35Z</time>
      </trkpt>
      <trkpt lat="44.88058" lon="5.67603">
        <ele>566</ele>
        <time>2019-04-18T08:05:56Z</time>
      </trkpt>
      <trkpt lat="44.88053" lon="5.67608">
        <ele>566</ele>
        <time>2019-04-18T08:06:15Z</time>
      </trkpt>
      <trkpt lat="44.88043" lon="5.67615">
        <ele>566</ele>
        <time>2019-04-18T08:06:32Z</time>
      </trkpt>
      <trkpt lat="44.8803" lon="5.67625">
        <ele>566</ele>
        <time>2019-04-18T08:06:51Z</time>
      </trkpt>
      <trkpt lat="44.88015" lon="5.67629">
        <ele>566</ele>
        <time>2019-04-18T08:07:01Z</time>
      </trkpt>
      <trkpt lat="44.87995" lon="5.67644">
        <ele>572</ele>
        <time>2019-04-18T08:07:21Z</time>
      </trkpt>
      <trkpt lat="44.87979" lon="5.6766">
        <ele>571</ele>
        <time>2019-04-18T08:07:40Z</time>
      </trkpt>
      <trkpt lat="44.87963" lon="5.6767">
        <ele>550</ele>
        <time>2019-04-18T08:07:58Z</time>
      </trkpt>
      <trkpt lat="44.87955" lon="5.67669">
        <ele>551</ele>
        <time>2019-04-18T08:08:09Z</time>
      </trkpt>
      <trkpt lat="44.87935" lon="5.67676">
        <ele>555</ele>
        <time>2019-04-18T08:08:27Z</time>
      </trkpt>
      <trkpt lat="44.87914" lon="5.67683">
        <ele>561</ele>
        <time>2019-04-18T08:08:46Z</time>
      </trkpt>
      <trkpt lat="44.87898" lon="5.67689">
        <ele>558</ele>
        <time>2019-04-18T08:09:07Z</time>
      </trkpt>
      <trkpt lat="44.87896" lon="5.67689">
        <ele>558</ele>
        <time>2019-04-18T08:09:09Z</time>
      </trkpt>
      <trkpt lat="44.87891" lon="5.6769">
        <ele>558</ele>
        <time>2019-04-18T08:09:22Z</time>
      </trkpt>
      <trkpt lat="44.87872" lon="5.67696">
        <ele>557</ele>
        <time>2019-04-18T08:09:38Z</time>
      </trkpt>
      <trkpt lat="44.87853" lon="5.67696">
        <ele>558</ele>
        <time>2019-04-18T08:09:56Z</time>
      </trkpt>
      <trkpt lat="44.87848" lon="5.67699">
        <ele>558</ele>
        <time>2019-04-18T08:10:16Z</time>
      </trkpt>
      <trkpt lat="44.8782" lon="5.67703">
        <ele>563</ele>
        <time>2019-04-18T08:10:32Z</time>
      </trkpt>
      <trkpt lat="44.87792" lon="5.677">
        <ele>565</ele>
        <time>2019-04-18T08:10:49Z</time>
      </trkpt>
      <trkpt lat="44.8777" lon="5.67706">
        <ele>565</ele>
        <time>2019-04-18T08:11:09Z</time>
      </trkpt>
      <trkpt lat="44.87753" lon="5.67707">
        <ele>566</ele>
        <time>2019-04-18T08:11:28Z</time>
      </trkpt>
      <trkpt lat="44.8775" lon="5.67708">
        <ele>569</ele>
        <time>2019-04-18T08:11:31Z</time>
      </trkpt>
      <trkpt lat="44.87735" lon="5.67711">
        <ele>568</ele>
        <time>2019-04-18T08:11:48Z</time>
      </trkpt>
      <trkpt lat="44.8771" lon="5.67713">
        <ele>568</ele>
        <time>2019-04-18T08:12:06Z</time>
      </trkpt>
      <trkpt lat="44.87689" lon="5.67717">
        <ele>567</ele>
        <time>2019-04-18T08:12:26Z</time>
      </trkpt>
      <trkpt lat="44.87668" lon="5.67722">
        <ele>565</ele>
        <time>2019-04-18T08:12:45Z</time>
      </trkpt>
      <trkpt lat="44.87667" lon="5.67722">
        <ele>565</ele>
        <time>2019-04-18T08:12:47Z</time>
      </trkpt>
      <trkpt lat="44.87663" lon="5.67722">
        <ele>564</ele>
        <time>2019-04-18T08:12:50Z</time>
      </trkpt>
      <trkpt lat="44.8766" lon="5.67722">
        <ele>564</ele>
        <time>2019-04-18T08:12:52Z</time>
      </trkpt>
      <trkpt lat="44.8765" lon="5.6772">
        <ele>564</ele>
        <time>2019-04-18T08:13:06Z</time>
      </trkpt>
      <trkpt lat="44.87645" lon="5.6772">
        <ele>565</ele>
        <time>2019-04-18T08:13:15Z</time>
      </trkpt>
      <trkpt lat="44.87632" lon="5.67713">
        <ele>566</ele>
        <time>2019-04-18T08:13:37Z</time>
      </trkpt>
      <trkpt lat="44.87636" lon="5.67716">
        <ele>566</ele>
        <time>2019-04-18T08:13:59Z</time>
      </trkpt>
      <trkpt lat="44.87638" lon="5.67717">
        <ele>565</ele>
        <time>2019-04-18T08:14:01Z</time>
      </trkpt>
      <trkpt lat="44.87631" lon="5.67718">
        <ele>565</ele>
        <time>2019-04-18T08:14:19Z</time>
      </trkpt>
      <trkpt lat="44.87606" lon="5.67718">
        <ele>564</ele>
        <time>2019-04-18T08:14:36Z</time>
      </trkpt>
      <trkpt lat="44.87585" lon="5.67714">
        <ele>565</ele>
        <time>2019-04-18T08:14:54Z</time>
      </trkpt>
      <trkpt lat="44.87579" lon="5.67711">
        <ele>564</ele>
        <time>2019-04-18T08:15:07Z</time>
      </trkpt>
      <trkpt lat="44.87556" lon="5.67701">
        <ele>567</ele>
        <time>2019-04-18T08:15:29Z</time>
      </trkpt>
      <trkpt lat="44.87538" lon="5.67698">
        <ele>567</ele>
        <time>2019-04-18T08:15:46Z</time>
      </trkpt>
      <trkpt lat="44.87522" lon="5.67693">
        <ele>568</ele>
        <time>2019-04-18T08:16:07Z</time>
      </trkpt>
      <trkpt lat="44.87502" lon="5.67692">
        <ele>569</ele>
        <time>2019-04-18T08:16:25Z</time>
      </trkpt>
      <trkpt lat="44.87493" lon="5.67692">
        <ele>567</ele>
        <time>2019-04-18T08:16:42Z</time>
      </trkpt>
      <trkpt lat="44.87469" lon="5.67695">
        <ele>564</ele>
        <time>2019-04-18T08:16:57Z</time>
      </trkpt>
      <trkpt lat="44.8745" lon="5.67696">
        <ele>563</ele>
        <time>2019-04-18T08:17:14Z</time>
      </trkpt>
      <trkpt lat="44.87436" lon="5.67691">
        <ele>564</ele>
        <time>2019-04-18T08:17:31Z</time>
      </trkpt>
      <trkpt lat="44.87427" lon="5.67686">
        <ele>565</ele>
        <time>2019-04-18T08:17:48Z</time>
      </trkpt>
      <trkpt lat="44.87424" lon="5.67683">
        <ele>566</ele>
        <time>2019-04-18T08:18:06Z</time>
      </trkpt>
      <trkpt lat="44.87412" lon="5.67675">
        <ele>565</ele>
        <time>2019-04-18T08:18:23Z</time>
      </trkpt>
      <trkpt lat="44.87398" lon="5.67666">
        <ele>573</ele>
        <time>2019-04-18T08:18:37Z</time>
      </trkpt>
      <trkpt lat="44.87384" lon="5.67655">
        <ele>573</ele>
        <time>2019-04-18T08:18:54Z</time>
      </trkpt>
      <trkpt lat="44.8738" lon="5.67652">
        <ele>573</ele>
        <time>2019-04-18T08:19:02Z</time>
      </trkpt>
      <trkpt lat="44.87376" lon="5.67651">
        <ele>573</ele>
        <time>2019-04-18T08:19:04Z</time>
      </trkpt>
      <trkpt lat="44.87359" lon="5.67646">
        <ele>570</ele>
        <time>2019-04-18T08:19:14Z</time>
      </trkpt>
      <trkpt lat="44.87354" lon="5.67644">
        <ele>569</ele>
        <time>2019-04-18T08:19:17Z</time>
      </trkpt>
      <trkpt lat="44.87344" lon="5.67641">
        <ele>568</ele>
        <time>2019-04-18T08:19:24Z</time>
      </trkpt>
      <trkpt lat="44.87324" lon="5.67636">
        <ele>544</ele>
        <time>2019-04-18T08:19:38Z</time>
      </trkpt>
      <trkpt lat="44.87317" lon="5.67635">
        <ele>543</ele>
        <time>2019-04-18T08:19:43Z</time>
      </trkpt>
      <trkpt lat="44.87313" lon="5.67633">
        <ele>542</ele>
        <time>2019-04-18T08:19:46Z</time>
      </trkpt>
      <trkpt lat="44.87307" lon="5.6763">
        <ele>540</ele>
        <time>2019-04-18T08:19:51Z</time>
      </trkpt>
      <trkpt lat="44.87294" lon="5.67621">
        <ele>538</ele>
        <time>2019-04-18T08:20:04Z</time>
      </trkpt>
      <trkpt lat="44.87288" lon="5.67614">
        <ele>536</ele>
        <time>2019-04-18T08:20:11Z</time>
      </trkpt>
      <trkpt lat="44.87285" lon="5.67603">
        <ele>535</ele>
        <time>2019-04-18T08:20:25Z</time>
      </trkpt>
      <trkpt lat="44.87284" lon="5.67605">
        <ele>535</ele>
        <time>2019-04-18T08:20:40Z</time>
      </trkpt>
      <trkpt lat="44.87285" lon="5.67604">
        <ele>535</ele>
        <time>2019-04-18T08:21:02Z</time>
      </trkpt>
      <trkpt lat="44.87286" lon="5.67605">
        <ele>536</ele>
        <time>2019-04-18T08:21:27Z</time>
      </trkpt>
      <trkpt lat="44.87287" lon="5.67609">
        <ele>536</ele>
        <time>2019-04-18T08:21:41Z</time>
      </trkpt>
      <trkpt lat="44.87291" lon="5.67625">
        <ele>536</ele>
        <time>2019-04-18T08:21:54Z</time>
      </trkpt>
      <trkpt lat="44.87301" lon="5.67639">
        <ele>538</ele>
        <time>2019-04-18T08:22:09Z</time>
      </trkpt>
      <trkpt lat="44.87305" lon="5.67641">
        <ele>540</ele>
        <time>2019-04-18T08:22:13Z</time>
      </trkpt>
      <trkpt lat="44.87319" lon="5.67651">
        <ele>544</ele>
        <time>2019-04-18T08:22:28Z</time>
      </trkpt>
      <trkpt lat="44.87321" lon="5.67655">
        <ele>545</ele>
        <time>2019-04-18T08:22:33Z</time>
      </trkpt>
      <trkpt lat="44.87313" lon="5.67661">
        <ele>543</ele>
        <time>2019-04-18T08:22:46Z</time>
      </trkpt>
      <trkpt lat="44.87293" lon="5.67659">
        <ele>535</ele>
        <time>2019-04-18T08:23:05Z</time>
      </trkpt>
      <trkpt lat="44.87292" lon="5.67658">
        <ele>534</ele>
        <time>2019-04-18T08:23:24Z</time>
      </trkpt>
      <trkpt lat="44.87291" lon="5.67658">
        <ele>534</ele>
        <time>2019-04-18T08:23:38Z</time>
      </trkpt>
      <trkpt lat="44.87288" lon="5.6766">
        <ele>532</ele>
        <time>2019-04-18T08:23:50Z</time>
      </trkpt>
      <trkpt lat="44.87285" lon="5.67665">
        <ele>531</ele>
        <time>2019-04-18T08:23:56Z</time>
      </trkpt>
      <trkpt lat="44.8728" lon="5.67681">
        <ele>519</ele>
        <time>2019-04-18T08:24:10Z</time>
      </trkpt>
      <trkpt lat="44.87287" lon="5.67698">
        <ele>521</ele>
        <time>2019-04-18T08:24:24Z</time>
      </trkpt>
      <trkpt lat="44.87289" lon="5.67701">
        <ele>521</ele>
        <time>2019-04-18T08:24:28Z</time>
      </trkpt>
      <trkpt lat="44.87293" lon="5.67713">
        <ele>521</ele>
        <time>2019-04-18T08:24:38Z</time>
      </trkpt>
      <trkpt lat="44.87294" lon="5.67714">
        <ele>521</ele>
        <time>2019-04-18T08:24:39Z</time>
      </trkpt>
      <trkpt lat="44.87295" lon="5.67714">
        <ele>521</ele>
        <time>2019-04-18T08:24:40Z</time>
      </trkpt>
      <trkpt lat="44.87296" lon="5.67715">
        <ele>521</ele>
        <time>2019-04-18T08:24:41Z</time>
      </trkpt>
      <trkpt lat="44.87297" lon="5.67718">
        <ele>521</ele>
        <time>2019-04-18T08:24:44Z</time>
      </trkpt>
      <trkpt lat="44.87298" lon="5.67719">
        <ele>522</ele>
        <time>2019-04-18T08:24:45Z</time>
      </trkpt>
      <trkpt lat="44.87298" lon="5.6772">
        <ele>522</ele>
        <time>2019-04-18T08:24:46Z</time>
      </trkpt>
      <trkpt lat="44.87299" lon="5.67721">
        <ele>522</ele>
        <time>2019-04-18T08:24:47Z</time>
      </trkpt>
      <trkpt lat="44.87299" lon="5.67722">
        <ele>522</ele>
        <time>2019-04-18T08:24:48Z</time>
      </trkpt>
      <trkpt lat="44.87299" lon="5.67724">
        <ele>522</ele>
        <time>2019-04-18T08:24:49Z</time>
      </trkpt>
      <trkpt lat="44.87299" lon="5.67727">
        <ele>521</ele>
        <time>2019-04-18T08:24:51Z</time>
      </trkpt>
      <trkpt lat="44.87299" lon="5.67729">
        <ele>521</ele>
        <time>2019-04-18T08:24:52Z</time>
      </trkpt>
      <trkpt lat="44.87298" lon="5.6773">
        <ele>521</ele>
        <time>2019-04-18T08:24:53Z</time>
      </trkpt>
      <trkpt lat="44.87298" lon="5.67731">
        <ele>521</ele>
        <time>2019-04-18T08:24:54Z</time>
      </trkpt>
      <trkpt lat="44.87297" lon="5.67732">
        <ele>520</ele>
        <time>2019-04-18T08:24:55Z</time>
      </trkpt>
      <trkpt lat="44.87295" lon="5.67733">
        <ele>520</ele>
        <time>2019-04-18T08:24:56Z</time>
      </trkpt>
      <trkpt lat="44.87294" lon="5.67733">
        <ele>519</ele>
        <time>2019-04-18T08:24:57Z</time>
      </trkpt>
      <trkpt lat="44.87293" lon="5.67733">
        <ele>519</ele>
        <time>2019-04-18T08:24:58Z</time>
      </trkpt>
      <trkpt lat="44.87292" lon="5.67733">
        <ele>518</ele>
        <time>2019-04-18T08:24:59Z</time>
      </trkpt>
      <trkpt lat="44.87291" lon="5.67732">
        <ele>518</ele>
        <time>2019-04-18T08:25:00Z</time>
      </trkpt>
      <trkpt lat="44.8729" lon="5.67732">
        <ele>518</ele>
        <time>2019-04-18T08:25:02Z</time>
      </trkpt>
      <trkpt lat="44.87289" lon="5.67733">
        <ele>517</ele>
        <time>2019-04-18T08:25:03Z</time>
      </trkpt>
      <trkpt lat="44.87288" lon="5.67734">
        <ele>517</ele>
        <time>2019-04-18T08:25:04Z</time>
      </trkpt>
      <trkpt lat="44.87287" lon="5.67734">
        <ele>516</ele>
        <time>2019-04-18T08:25:05Z</time>
      </trkpt>
      <trkpt lat="44.87286" lon="5.67735">
        <ele>516</ele>
        <time>2019-04-18T08:25:07Z</time>
      </trkpt>
      <trkpt lat="44.87285" lon="5.67733">
        <ele>516</ele>
        <time>2019-04-18T08:25:08Z</time>
      </trkpt>
      <trkpt lat="44.87285" lon="5.67732">
        <ele>516</ele>
        <time>2019-04-18T08:25:09Z</time>
      </trkpt>
      <trkpt lat="44.87285" lon="5.6773">
        <ele>516</ele>
        <time>2019-04-18T08:25:10Z</time>
      </trkpt>
      <trkpt lat="44.87285" lon="5.6773">
        <ele>516</ele>
        <time>2019-04-18T08:25:11Z</time>
      </trkpt>
      <trkpt lat="44.87285" lon="5.67731">
        <ele>516</ele>
        <time>2019-04-18T08:25:18Z</time>
      </trkpt>
      <trkpt lat="44.87284" lon="5.67731">
        <ele>516</ele>
        <time>2019-04-18T08:25:19Z</time>
      </trkpt>
      <trkpt lat="44.87284" lon="5.67731">
        <ele>516</ele>
        <time>2019-04-18T08:25:20Z</time>
      </trkpt>
      <trkpt lat="44.87284" lon="5.67731">
        <ele>516</ele>
        <time>2019-04-18T08:25:23Z</time>
      </trkpt>
      <trkpt lat="44.87284" lon="5.67731">
        <ele>516</ele>
        <time>2019-04-18T08:25:24Z</time>
      </trkpt>
      <trkpt lat="44.87284" lon="5.67731">
        <ele>516</ele>
        <time>2019-04-18T08:25:26Z</time>
      </trkpt>
      <trkpt lat="44.87284" lon="5.67729">
        <ele>516</ele>
        <time>2019-04-18T08:25:41Z</time>
      </trkpt>
      <trkpt lat="44.87285" lon="5.67729">
        <ele>516</ele>
        <time>2019-04-18T08:25:46Z</time>
      </trkpt>
      <trkpt lat="44.87285" lon="5.67728">
        <ele>516</ele>
        <time>2019-04-18T08:25:47Z</time>
      </trkpt>
      <trkpt lat="44.87285" lon="5.67728">
        <ele>516</ele>
        <time>2019-04-18T08:25:48Z</time>
      </trkpt>
      <trkpt lat="44.87285" lon="5.67728">
        <ele>516</ele>
        <time>2019-04-18T08:25:49Z</time>
      </trkpt>
      <trkpt lat="44.87285" lon="5.67728">
        <ele>516</ele>
        <time>2019-04-18T08:25:50Z</time>
      </trkpt>
      <trkpt lat="44.87285" lon="5.67728">
        <ele>516</ele>
        <time>2019-04-18T08:25:51Z</time>
      </trkpt>
      <trkpt lat="44.87285" lon="5.67728">
        <ele>516</ele>
        <time>2019-04-18T08:25:52Z</time>
      </trkpt>
      <trkpt lat="44.87285" lon="5.67728">
        <ele>516</ele>
        <time>2019-04-18T08:25:53Z</time>
      </trkpt>
      <trkpt lat="44.87285" lon="5.67728">
        <ele>516</ele>
        <time>2019-04-18T08:25:54Z</time>
      </trkpt>
      <trkpt lat="44.87285" lon="5.67729">
        <ele>516</ele>
        <time>2019-04-18T08:25:55Z</time>
      </trkpt>
      <trkpt lat="44.87285" lon="5.67729">
        <ele>516</ele>
        <time>2019-04-18T08:25:56Z</time>
      </trkpt>
      <trkpt lat="44.87285" lon="5.67729">
        <ele>516</ele>
        <time>2019-04-18T08:25:57Z</time>
      </trkpt>
      <trkpt lat="44.87285" lon="5.67728">
        <ele>516</ele>
        <time>2019-04-18T08:25:58Z</time>
      </trkpt>
      <trkpt lat="44.87285" lon="5.67728">
        <ele>516</ele>
        <time>2019-04-18T08:25:59Z</time>
      </trkpt>
      <trkpt lat="44.87285" lon="5.67728">
        <ele>516</ele>
        <time>2019-04-18T08:26:00Z</time>
      </trkpt>
      <trkpt lat="44.87285" lon="5.67729">
        <ele>516</ele>
        <time>2019-04-18T08:26:01Z</time>
      </trkpt>
      <trkpt lat="44.87284" lon="5.67728">
        <ele>516</ele>
        <time>2019-04-18T08:26:02Z</time>
      </trkpt>
      <trkpt lat="44.87283" lon="5.67727">
        <ele>516</ele>
        <time>2019-04-18T08:26:04Z</time>
      </trkpt>
      <trkpt lat="44.87282" lon="5.67726">
        <ele>516</ele>
        <time>2019-04-18T08:26:06Z</time>
      </trkpt>
      <trkpt lat="44.87281" lon="5.67726">
        <ele>515</ele>
        <time>2019-04-18T08:26:07Z</time>
      </trkpt>
      <trkpt lat="44.8728" lon="5.67725">
        <ele>515</ele>
        <time>2019-04-18T08:26:08Z</time>
      </trkpt>
      <trkpt lat="44.87279" lon="5.67724">
        <ele>515</ele>
        <time>2019-04-18T08:26:10Z</time>
      </trkpt>
      <trkpt lat="44.87272" lon="5.67721">
        <ele>514</ele>
        <time>2019-04-18T08:26:21Z</time>
      </trkpt>
      <trkpt lat="44.87265" lon="5.67717">
        <ele>512</ele>
        <time>2019-04-18T08:26:31Z</time>
      </trkpt>
      <trkpt lat="44.87255" lon="5.67711">
        <ele>512</ele>
        <time>2019-04-18T08:26:46Z</time>
      </trkpt>
      <trkpt lat="44.87255" lon="5.67711">
        <ele>512</ele>
        <time>2019-04-18T08:26:58Z</time>
      </trkpt>
      <trkpt lat="44.87252" lon="5.6771">
        <ele>512</ele>
        <time>2019-04-18T08:27:01Z</time>
      </trkpt>
      <trkpt lat="44.87231" lon="5.677">
        <ele>498</ele>
        <time>2019-04-18T08:27:17Z</time>
      </trkpt>
      <trkpt lat="44.87219" lon="5.67694">
        <ele>498</ele>
        <time>2019-04-18T08:27:28Z</time>
      </trkpt>
      <trkpt lat="44.87208" lon="5.67693">
        <ele>498</ele>
        <time>2019-04-18T08:27:40Z</time>
      </trkpt>
      <trkpt lat="44.87206" lon="5.67692">
        <ele>498</ele>
        <time>2019-04-18T08:27:43Z</time>
      </trkpt>
      <trkpt lat="44.87185" lon="5.67685">
        <ele>498</ele>
        <time>2019-04-18T08:27:56Z</time>
      </trkpt>
      <trkpt lat="44.87182" lon="5.67684">
        <ele>498</ele>
        <time>2019-04-18T08:27:58Z</time>
      </trkpt>
      <trkpt lat="44.8718" lon="5.67682">
        <ele>498</ele>
        <time>2019-04-18T08:28:00Z</time>
      </trkpt>
      <trkpt lat="44.8717" lon="5.67676">
        <ele>499</ele>
        <time>2019-04-18T08:28:18Z</time>
      </trkpt>
      <trkpt lat="44.87164" lon="5.67674">
        <ele>504</ele>
        <time>2019-04-18T08:28:23Z</time>
      </trkpt>
      <trkpt lat="44.87159" lon="5.67672">
        <ele>505</ele>
        <time>2019-04-18T08:28:26Z</time>
      </trkpt>
      <trkpt lat="44.87145" lon="5.67664">
        <ele>512</ele>
        <time>2019-04-18T08:28:38Z</time>
      </trkpt>
      <trkpt lat="44.87137" lon="5.67661">
        <ele>515</ele>
        <time>2019-04-18T08:28:46Z</time>
      </trkpt>
      <trkpt lat="44.87135" lon="5.67659">
        <ele>516</ele>
        <time>2019-04-18T08:28:48Z</time>
      </trkpt>
      <trkpt lat="44.87132" lon="5.67657">
        <ele>517</ele>
        <time>2019-04-18T08:28:51Z</time>
      </trkpt>
      <trkpt lat="44.87124" lon="5.67653">
        <ele>520</ele>
        <time>2019-04-18T08:28:57Z</time>
      </trkpt>
      <trkpt lat="44.87117" lon="5.67651">
        <ele>523</ele>
        <time>2019-04-18T08:29:03Z</time>
      </trkpt>
      <trkpt lat="44.87114" lon="5.6765">
        <ele>524</ele>
        <time>2019-04-18T08:29:23Z</time>
      </trkpt>
      <trkpt lat="44.87113" lon="5.67649">
        <ele>524</ele>
        <time>2019-04-18T08:29:28Z</time>
      </trkpt>
      <trkpt lat="44.87108" lon="5.67647">
        <ele>526</ele>
        <time>2019-04-18T08:29:38Z</time>
      </trkpt>
      <trkpt lat="44.8711" lon="5.67647">
        <ele>525</ele>
        <time>2019-04-18T08:29:55Z</time>
      </trkpt>
      <trkpt lat="44.87111" lon="5.67647">
        <ele>525</ele>
        <time>2019-04-18T08:30:10Z</time>
      </trkpt>
      <trkpt lat="44.87111" lon="5.67647">
        <ele>524</ele>
        <time>2019-04-18T08:30:25Z</time>
      </trkpt>
      <trkpt lat="44.87112" lon="5.67648">
        <ele>524</ele>
        <time>2019-04-18T08:30:39Z</time>
      </trkpt>
      <trkpt lat="44.87112" lon="5.67648">
        <ele>524</ele>
        <time>2019-04-18T08:30:53Z</time>
      </trkpt>
      <trkpt lat="44.87112" lon="5.67647">
        <ele>524</ele>
        <time>2019-04-18T08:31:11Z</time>
      </trkpt>
      <trkpt lat="44.87113" lon="5.67645">
        <ele>524</ele>
        <time>2019-04-18T08:31:37Z</time>
      </trkpt>
      <trkpt lat="44.87113" lon="5.67643">
        <ele>523</ele>
        <time>2019-04-18T08:32:00Z</time>
      </trkpt>
      <trkpt lat="44.87112" lon="5.67644">
        <ele>524</ele>
        <time>2019-04-18T08:32:20Z</time>
      </trkpt>
      <trkpt lat="44.87112" lon="5.67647">
        <ele>524</ele>
        <time>2019-04-18T08:32:33Z</time>
      </trkpt>
      <trkpt lat="44.87109" lon="5.67653">
        <ele>526</ele>
        <time>2019-04-18T08:32:46Z</time>
      </trkpt>
      <trkpt lat="44.87105" lon="5.67655">
        <ele>528</ele>
        <time>2019-04-18T08:32:54Z</time>
      </trkpt>
      <trkpt lat="44.871" lon="5.67656">
        <ele>530</ele>
        <time>2019-04-18T08:33:09Z</time>
      </trkpt>
      <trkpt lat="44.87088" lon="5.67658">
        <ele>536</ele>
        <time>2019-04-18T08:33:22Z</time>
      </trkpt>
      <trkpt lat="44.87083" lon="5.67656">
        <ele>550</ele>
        <time>2019-04-18T08:33:33Z</time>
      </trkpt>
      <trkpt lat="44.87087" lon="5.67654">
        <ele>534</ele>
        <time>2019-04-18T08:33:46Z</time>
      </trkpt>
      <trkpt lat="44.87089" lon="5.67652">
        <ele>533</ele>
        <time>2019-04-18T08:33:49Z</time>
      </trkpt>
      <trkpt lat="44.87086" lon="5.67648">
        <ele>532</ele>
        <time>2019-04-18T08:34:02Z</time>
      </trkpt>
      <trkpt lat="44.87086" lon="5.67646">
        <ele>531</ele>
        <time>2019-04-18T08:34:14Z</time>
      </trkpt>
      <trkpt lat="44.87085" lon="5.67641">
        <ele>530</ele>
        <time>2019-04-18T08:34:26Z</time>
      </trkpt>
      <trkpt lat="44.87077" lon="5.67641">
        <ele>556</ele>
        <time>2019-04-18T08:34:40Z</time>
      </trkpt>
      <trkpt lat="44.87077" lon="5.67638">
        <ele>556</ele>
        <time>2019-04-18T08:34:52Z</time>
      </trkpt>
      <trkpt lat="44.87077" lon="5.67634">
        <ele>557</ele>
        <time>2019-04-18T08:35:03Z</time>
      </trkpt>
      <trkpt lat="44.87076" lon="5.67622">
        <ele>557</ele>
        <time>2019-04-18T08:35:18Z</time>
      </trkpt>
      <trkpt lat="44.87074" lon="5.67616">
        <ele>557</ele>
        <time>2019-04-18T08:35:24Z</time>
      </trkpt>
      <trkpt lat="44.87066" lon="5.67609">
        <ele>558</ele>
        <time>2019-04-18T08:35:37Z</time>
      </trkpt>
      <trkpt lat="44.87055" lon="5.67598">
        <ele>560</ele>
        <time>2019-04-18T08:35:50Z</time>
      </trkpt>
      <trkpt lat="44.87039" lon="5.67591">
        <ele>565</ele>
        <time>2019-04-18T08:36:06Z</time>
      </trkpt>
      <trkpt lat="44.87031" lon="5.67583">
        <ele>569</ele>
        <time>2019-04-18T08:36:22Z</time>
      </trkpt>
      <trkpt lat="44.87028" lon="5.67573">
        <ele>570</ele>
        <time>2019-04-18T08:36:34Z</time>
      </trkpt>
      <trkpt lat="44.8703" lon="5.67562">
        <ele>568</ele>
        <time>2019-04-18T08:36:46Z</time>
      </trkpt>
      <trkpt lat="44.87036" lon="5.67554">
        <ele>566</ele>
        <time>2019-04-18T08:36:58Z</time>
      </trkpt>
      <trkpt lat="44.87039" lon="5.67549">
        <ele>565</ele>
        <time>2019-04-18T08:37:15Z</time>
      </trkpt>
      <trkpt lat="44.87038" lon="5.67538">
        <ele>566</ele>
        <time>2019-04-18T08:37:29Z</time>
      </trkpt>
      <trkpt lat="44.87034" lon="5.67528">
        <ele>567</ele>
        <time>2019-04-18T08:37:41Z</time>
      </trkpt>
      <trkpt lat="44.87028" lon="5.67514">
        <ele>569</ele>
        <time>2019-04-18T08:37:52Z</time>
      </trkpt>
      <trkpt lat="44.87026" lon="5.67502">
        <ele>571</ele>
        <time>2019-04-18T08:38:03Z</time>
      </trkpt>
      <trkpt lat="44.87025" lon="5.67496">
        <ele>568</ele>
        <time>2019-04-18T08:38:09Z</time>
      </trkpt>
      <trkpt lat="44.87024" lon="5.67481">
        <ele>566</ele>
        <time>2019-04-18T08:38:22Z</time>
      </trkpt>
      <trkpt lat="44.87026" lon="5.67467">
        <ele>563</ele>
        <time>2019-04-18T08:38:34Z</time>
      </trkpt>
      <trkpt lat="44.87025" lon="5.67457">
        <ele>563</ele>
        <time>2019-04-18T08:38:45Z</time>
      </trkpt>
      <trkpt lat="44.87027" lon="5.67449">
        <ele>562</ele>
        <time>2019-04-18T08:38:58Z</time>
      </trkpt>
      <trkpt lat="44.87034" lon="5.67438">
        <ele>560</ele>
        <time>2019-04-18T08:39:09Z</time>
      </trkpt>
      <trkpt lat="44.8704" lon="5.67427">
        <ele>557</ele>
        <time>2019-04-18T08:39:24Z</time>
      </trkpt>
      <trkpt lat="44.87043" lon="5.67424">
        <ele>555</ele>
        <time>2019-04-18T08:39:28Z</time>
      </trkpt>
      <trkpt lat="44.87041" lon="5.67416">
        <ele>541</ele>
        <time>2019-04-18T08:39:41Z</time>
      </trkpt>
      <trkpt lat="44.87033" lon="5.67407">
        <ele>544</ele>
        <time>2019-04-18T08:39:55Z</time>
      </trkpt>
      <trkpt lat="44.87025" lon="5.67399">
        <ele>546</ele>
        <time>2019-04-18T08:40:07Z</time>
      </trkpt>
      <trkpt lat="44.87024" lon="5.67395">
        <ele>545</ele>
        <time>2019-04-18T08:40:22Z</time>
      </trkpt>
      <trkpt lat="44.87025" lon="5.67395">
        <ele>545</ele>
        <time>2019-04-18T08:40:41Z</time>
      </trkpt>
      <trkpt lat="44.87025" lon="5.67395">
        <ele>545</ele>
        <time>2019-04-18T08:41:00Z</time>
      </trkpt>
      <trkpt lat="44.87024" lon="5.67395">
        <ele>545</ele>
        <time>2019-04-18T08:41:24Z</time>
      </trkpt>
      <trkpt lat="44.87025" lon="5.67396">
        <ele>545</ele>
        <time>2019-04-18T08:41:57Z</time>
      </trkpt>
      <trkpt lat="44.87024" lon="5.67397">
        <ele>546</ele>
        <time>2019-04-18T08:42:23Z</time>
      </trkpt>
      <trkpt lat="44.87024" lon="5.67397">
        <ele>546</ele>
        <time>2019-04-18T08:42:24Z</time>
      </trkpt>
      <trkpt lat="44.87024" lon="5.67397">
        <ele>546</ele>
        <time>2019-04-18T08:42:25Z</time>
      </trkpt>
      <trkpt lat="44.87024" lon="5.67397">
        <ele>546</ele>
        <time>2019-04-18T08:42:46Z</time>
      </trkpt>
      <trkpt lat="44.87023" lon="5.67398">
        <ele>547</ele>
        <time>2019-04-18T08:43:05Z</time>
      </trkpt>
      <trkpt lat="44.87023" lon="5.67399">
        <ele>547</ele>
        <time>2019-04-18T08:43:22Z</time>
      </trkpt>
      <trkpt lat="44.87023" lon="5.67399">
        <ele>547</ele>
        <time>2019-04-18T08:43:23Z</time>
      </trkpt>
      <trkpt lat="44.87023" lon="5.67399">
        <ele>547</ele>
        <time>2019-04-18T08:43:24Z</time>
      </trkpt>
      <trkpt lat="44.87023" lon="5.67399">
        <ele>547</ele>
        <time>2019-04-18T08:43:25Z</time>
      </trkpt>
      <trkpt lat="44.87023" lon="5.67399">
        <ele>547</ele>
        <time>2019-04-18T08:43:26Z</time>
      </trkpt>
      <trkpt lat="44.87023" lon="5.67399">
        <ele>547</ele>
        <time>2019-04-18T08:43:27Z</time>
      </trkpt>
      <trkpt lat="44.87023" lon="5.67399">
        <ele>547</ele>
        <time>2019-04-18T08:43:28Z</time>
      </trkpt>
      <trkpt lat="44.87023" lon="5.67399">
        <ele>547</ele>
        <time>2019-04-18T08:43:29Z</time>
      </trkpt>
      <trkpt lat="44.87023" lon="5.67399">
        <ele>547</ele>
        <time>2019-04-18T08:43:30Z</time>
      </trkpt>
      <trkpt lat="44.87023" lon="5.67399">
        <ele>547</ele>
        <time>2019-04-18T08:43:31Z</time>
      </trkpt>
      <trkpt lat="44.87023" lon="5.67399">
        <ele>547</ele>
        <time>2019-04-18T08:43:32Z</time>
      </trkpt>
      <trkpt lat="44.87023" lon="5.67399">
        <ele>547</ele>
        <time>2019-04-18T08:43:33Z</time>
      </trkpt>
      <trkpt lat="44.87023" lon="5.67399">
        <ele>547</ele>
        <time>2019-04-18T08:43:34Z</time>
      </trkpt>
      <trkpt lat="44.87023" lon="5.67399">
        <ele>547</ele>
        <time>2019-04-18T08:43:35Z</time>
      </trkpt>
      <trkpt lat="44.87023" lon="5.67399">
        <ele>547</ele>
        <time>2019-04-18T08:43:36Z</time>
      </trkpt>
      <trkpt lat="44.87023" lon="5.67399">
        <ele>547</ele>
        <time>2019-04-18T08:43:37Z</time>
      </trkpt>
      <trkpt lat="44.87022" lon="5.67399">
        <ele>548</ele>
        <time>2019-04-18T08:43:52Z</time>
      </trkpt>
      <trkpt lat="44.8702" lon="5.674">
        <ele>549</ele>
        <time>2019-04-18T08:44:18Z</time>
      </trkpt>
      <trkpt lat="44.8702" lon="5.67401">
        <ele>549</ele>
        <time>2019-04-18T08:44:47Z</time>
      </trkpt>
      <trkpt lat="44.8702" lon="5.67401">
        <ele>549</ele>
        <time>2019-04-18T08:45:10Z</time>
      </trkpt>
      <trkpt lat="44.87017" lon="5.67405">
        <ele>553</ele>
        <time>2019-04-18T08:45:25Z</time>
      </trkpt>
      <trkpt lat="44.87015" lon="5.67412">
        <ele>557</ele>
        <time>2019-04-18T08:45:37Z</time>
      </trkpt>
      <trkpt lat="44.87012" lon="5.67421">
        <ele>570</ele>
        <time>2019-04-18T08:45:52Z</time>
      </trkpt>
      <trkpt lat="44.87003" lon="5.67439">
        <ele>568</ele>
        <time>2019-04-18T08:46:07Z</time>
      </trkpt>
      <trkpt lat="44.87001" lon="5.67443">
        <ele>568</ele>
        <time>2019-04-18T08:46:11Z</time>
      </trkpt>
      <trkpt lat="44.87001" lon="5.67444">
        <ele>567</ele>
        <time>2019-04-18T08:46:12Z</time>
      </trkpt>
      <trkpt lat="44.87001" lon="5.67444">
        <ele>567</ele>
        <time>2019-04-18T08:46:13Z</time>
      </trkpt>
      <trkpt lat="44.87001" lon="5.67444">
        <ele>567</ele>
        <time>2019-04-18T08:46:14Z</time>
      </trkpt>
      <trkpt lat="44.86998" lon="5.67447">
        <ele>583</ele>
        <time>2019-04-18T08:46:18Z</time>
      </trkpt>
      <trkpt lat="44.86995" lon="5.67453">
        <ele>584</ele>
        <time>2019-04-18T08:46:23Z</time>
      </trkpt>
      <trkpt lat="44.86989" lon="5.67464">
        <ele>585</ele>
        <time>2019-04-18T08:46:34Z</time>
      </trkpt>
      <trkpt lat="44.86982" lon="5.67475">
        <ele>585</ele>
        <time>2019-04-18T08:46:45Z</time>
      </trkpt>
      <trkpt lat="44.86977" lon="5.67481">
        <ele>586</ele>
        <time>2019-04-18T08:46:58Z</time>
      </trkpt>
      <trkpt lat="44.86976" lon="5.67484">
        <ele>586</ele>
        <time>2019-04-18T08:47:00Z</time>
      </trkpt>
      <trkpt lat="44.86973" lon="5.67487">
        <ele>586</ele>
        <time>2019-04-18T08:47:05Z</time>
      </trkpt>
      <trkpt lat="44.86968" lon="5.67493">
        <ele>586</ele>
        <time>2019-04-18T08:47:18Z</time>
      </trkpt>
      <trkpt lat="44.86964" lon="5.67501">
        <ele>589</ele>
        <time>2019-04-18T08:47:29Z</time>
      </trkpt>
      <trkpt lat="44.86963" lon="5.67512">
        <ele>589</ele>
        <time>2019-04-18T08:47:41Z</time>
      </trkpt>
      <trkpt lat="44.8696" lon="5.67517">
        <ele>589</ele>
        <time>2019-04-18T08:47:52Z</time>
      </trkpt>
      <trkpt lat="44.86953" lon="5.67529">
        <ele>590</ele>
        <time>2019-04-18T08:48:05Z</time>
      </trkpt>
      <trkpt lat="44.86951" lon="5.67542">
        <ele>590</ele>
        <time>2019-04-18T08:48:18Z</time>
      </trkpt>
      <trkpt lat="44.86955" lon="5.67552">
        <ele>590</ele>
        <time>2019-04-18T08:48:32Z</time>
      </trkpt>
      <trkpt lat="44.86958" lon="5.67568">
        <ele>590</ele>
        <time>2019-04-18T08:48:46Z</time>
      </trkpt>
      <trkpt lat="44.86959" lon="5.67578">
        <ele>589</ele>
        <time>2019-04-18T08:48:58Z</time>
      </trkpt>
      <trkpt lat="44.86957" lon="5.67589">
        <ele>589</ele>
        <time>2019-04-18T08:49:10Z</time>
      </trkpt>
      <trkpt lat="44.86955" lon="5.67599">
        <ele>590</ele>
        <time>2019-04-18T08:49:22Z</time>
      </trkpt>
      <trkpt lat="44.86952" lon="5.67604">
        <ele>590</ele>
        <time>2019-04-18T08:49:28Z</time>
      </trkpt>
      <trkpt lat="44.86947" lon="5.67613">
        <ele>590</ele>
        <time>2019-04-18T08:49:34Z</time>
      </trkpt>
      <trkpt lat="44.8694" lon="5.67627">
        <ele>590</ele>
        <time>2019-04-18T08:49:47Z</time>
      </trkpt>
      <trkpt lat="44.86938" lon="5.67633">
        <ele>590</ele>
        <time>2019-04-18T08:49:52Z</time>
      </trkpt>
      <trkpt lat="44.86932" lon="5.6765">
        <ele>591</ele>
        <time>2019-04-18T08:50:06Z</time>
      </trkpt>
      <trkpt lat="44.86926" lon="5.67664">
        <ele>593</ele>
        <time>2019-04-18T08:50:16Z</time>
      </trkpt>
      <trkpt lat="44.86916" lon="5.67681">
        <ele>596</ele>
        <time>2019-04-18T08:50:33Z</time>
      </trkpt>
      <trkpt lat="44.86913" lon="5.67688">
        <ele>596</ele>
        <time>2019-04-18T08:50:44Z</time>
      </trkpt>
      <trkpt lat="44.86911" lon="5.6769">
        <ele>596</ele>
        <time>2019-04-18T08:50:48Z</time>
      </trkpt>
      <trkpt lat="44.86905" lon="5.67702">
        <ele>596</ele>
        <time>2019-04-18T08:51:00Z</time>
      </trkpt>
      <trkpt lat="44.86897" lon="5.6772">
        <ele>596</ele>
        <time>2019-04-18T08:51:13Z</time>
      </trkpt>
      <trkpt lat="44.86892" lon="5.67731">
        <ele>597</ele>
        <time>2019-04-18T08:51:26Z</time>
      </trkpt>
      <trkpt lat="44.86891" lon="5.67733">
        <ele>597</ele>
        <time>2019-04-18T08:51:34Z</time>
      </trkpt>
      <trkpt lat="44.86885" lon="5.6774">
        <ele>597</ele>
        <time>2019-04-18T08:51:47Z</time>
      </trkpt>
      <trkpt lat="44.86886" lon="5.67745">
        <ele>597</ele>
        <time>2019-04-18T08:52:00Z</time>
      </trkpt>
      <trkpt lat="44.86883" lon="5.67751">
        <ele>597</ele>
        <time>2019-04-18T08:52:12Z</time>
      </trkpt>
      <trkpt lat="44.86875" lon="5.67769">
        <ele>598</ele>
        <time>2019-04-18T08:52:25Z</time>
      </trkpt>
      <trkpt lat="44.86867" lon="5.67783">
        <ele>598</ele>
        <time>2019-04-18T08:52:37Z</time>
      </trkpt>
      <trkpt lat="44.86862" lon="5.67794">
        <ele>598</ele>
        <time>2019-04-18T08:52:53Z</time>
      </trkpt>
      <trkpt lat="44.86857" lon="5.6781">
        <ele>599</ele>
        <time>2019-04-18T08:53:05Z</time>
      </trkpt>
      <trkpt lat="44.86855" lon="5.67815">
        <ele>600</ele>
        <time>2019-04-18T08:53:19Z</time>
      </trkpt>
      <trkpt lat="44.86855" lon="5.67819">
        <ele>600</ele>
        <time>2019-04-18T08:53:33Z</time>
      </trkpt>
      <trkpt lat="44.86855" lon="5.6782">
        <ele>600</ele>
        <time>2019-04-18T08:53:50Z</time>
      </trkpt>
      <trkpt lat="44.86855" lon="5.67823">
        <ele>601</ele>
        <time>2019-04-18T08:54:17Z</time>
      </trkpt>
      <trkpt lat="44.86853" lon="5.67827">
        <ele>601</ele>
        <time>2019-04-18T08:54:52Z</time>
      </trkpt>
      <trkpt lat="44.86853" lon="5.67827">
        <ele>601</ele>
        <time>2019-04-18T08:55:00Z</time>
      </trkpt>
      <trkpt lat="44.86853" lon="5.67827">
        <ele>601</ele>
        <time>2019-04-18T08:55:01Z</time>
      </trkpt>
      <trkpt lat="44.86848" lon="5.6784">
        <ele>601</ele>
        <time>2019-04-18T08:55:14Z</time>
      </trkpt>
      <trkpt lat="44.86835" lon="5.67854">
        <ele>601</ele>
        <time>2019-04-18T08:55:27Z</time>
      </trkpt>
      <trkpt lat="44.86827" lon="5.67867">
        <ele>603</ele>
        <time>2019-04-18T08:55:40Z</time>
      </trkpt>
      <trkpt lat="44.86817" lon="5.67881">
        <ele>603</ele>
        <time>2019-04-18T08:55:53Z</time>
      </trkpt>
      <trkpt lat="44.86815" lon="5.67887">
        <ele>603</ele>
        <time>2019-04-18T08:56:05Z</time>
      </trkpt>
      <trkpt lat="44.86807" lon="5.67905">
        <ele>603</ele>
        <time>2019-04-18T08:56:20Z</time>
      </trkpt>
      <trkpt lat="44.86802" lon="5.67918">
        <ele>604</ele>
        <time>2019-04-18T08:56:32Z</time>
      </trkpt>
      <trkpt lat="44.868" lon="5.67926">
        <ele>604</ele>
        <time>2019-04-18T08:56:44Z</time>
      </trkpt>
      <trkpt lat="44.8679" lon="5.6794">
        <ele>603</ele>
        <time>2019-04-18T08:56:58Z</time>
      </trkpt>
      <trkpt lat="44.86785" lon="5.67949">
        <ele>603</ele>
        <time>2019-04-18T08:57:08Z</time>
      </trkpt>
      <trkpt lat="44.8678" lon="5.67959">
        <ele>604</ele>
        <time>2019-04-18T08:57:18Z</time>
      </trkpt>
      <trkpt lat="44.86776" lon="5.67966">
        <ele>604</ele>
        <time>2019-04-18T08:57:28Z</time>
      </trkpt>
      <trkpt lat="44.8677" lon="5.67977">
        <ele>605</ele>
        <time>2019-04-18T08:57:41Z</time>
      </trkpt>
      <trkpt lat="44.86765" lon="5.67987">
        <ele>607</ele>
        <time>2019-04-18T08:57:54Z</time>
      </trkpt>
      <trkpt lat="44.86759" lon="5.67996">
        <ele>609</ele>
        <time>2019-04-18T08:58:02Z</time>
      </trkpt>
      <trkpt lat="44.86746" lon="5.68015">
        <ele>611</ele>
        <time>2019-04-18T08:58:16Z</time>
      </trkpt>
      <trkpt lat="44.86737" lon="5.68031">
        <ele>610</ele>
        <time>2019-04-18T08:58:30Z</time>
      </trkpt>
      <trkpt lat="44.8673" lon="5.68043">
        <ele>610</ele>
        <time>2019-04-18T08:58:45Z</time>
      </trkpt>
      <trkpt lat="44.86724" lon="5.68055">
        <ele>610</ele>
        <time>2019-04-18T08:58:57Z</time>
      </trkpt>
      <trkpt lat="44.86724" lon="5.68068">
        <ele>611</ele>
        <time>2019-04-18T08:59:10Z</time>
      </trkpt>
      <trkpt lat="44.86724" lon="5.68076">
        <ele>612</ele>
        <time>2019-04-18T08:59:24Z</time>
      </trkpt>
      <trkpt lat="44.86721" lon="5.68086">
        <ele>618</ele>
        <time>2019-04-18T08:59:37Z</time>
      </trkpt>
      <trkpt lat="44.86722" lon="5.68092">
        <ele>618</ele>
        <time>2019-04-18T08:59:49Z</time>
      </trkpt>
      <trkpt lat="44.86719" lon="5.68102">
        <ele>618</ele>
        <time>2019-04-18T09:00:02Z</time>
      </trkpt>
      <trkpt lat="44.86716" lon="5.68113">
        <ele>618</ele>
        <time>2019-04-18T09:00:18Z</time>
      </trkpt>
      <trkpt lat="44.86709" lon="5.6812">
        <ele>618</ele>
        <time>2019-04-18T09:00:30Z</time>
      </trkpt>
      <trkpt lat="44.86702" lon="5.68128">
        <ele>618</ele>
        <time>2019-04-18T09:00:41Z</time>
      </trkpt>
      <trkpt lat="44.86698" lon="5.68134">
        <ele>619</ele>
        <time>2019-04-18T09:00:53Z</time>
      </trkpt>
      <trkpt lat="44.86694" lon="5.6814">
        <ele>620</ele>
        <time>2019-04-18T09:01:06Z</time>
      </trkpt>
      <trkpt lat="44.8669" lon="5.68145">
        <ele>620</ele>
        <time>2019-04-18T09:01:18Z</time>
      </trkpt>
      <trkpt lat="44.86689" lon="5.68158">
        <ele>622</ele>
        <time>2019-04-18T09:01:30Z</time>
      </trkpt>
      <trkpt lat="44.86688" lon="5.68172">
        <ele>628</ele>
        <time>2019-04-18T09:01:44Z</time>
      </trkpt>
      <trkpt lat="44.86686" lon="5.68183">
        <ele>628</ele>
        <time>2019-04-18T09:01:55Z</time>
      </trkpt>
      <trkpt lat="44.86682" lon="5.68195">
        <ele>629</ele>
        <time>2019-04-18T09:02:06Z</time>
      </trkpt>
      <trkpt lat="44.86678" lon="5.68205">
        <ele>630</ele>
        <time>2019-04-18T09:02:17Z</time>
      </trkpt>
      <trkpt lat="44.86675" lon="5.68213">
        <ele>631</ele>
        <time>2019-04-18T09:02:28Z</time>
      </trkpt>
      <trkpt lat="44.86673" lon="5.68226">
        <ele>634</ele>
        <time>2019-04-18T09:02:40Z</time>
      </trkpt>
      <trkpt lat="44.86669" lon="5.68233">
        <ele>636</ele>
        <time>2019-04-18T09:02:53Z</time>
      </trkpt>
      <trkpt lat="44.86664" lon="5.68233">
        <ele>637</ele>
        <time>2019-04-18T09:03:06Z</time>
      </trkpt>
      <trkpt lat="44.86655" lon="5.68245">
        <ele>639</ele>
        <time>2019-04-18T09:03:19Z</time>
      </trkpt>
      <trkpt lat="44.86651" lon="5.68261">
        <ele>645</ele>
        <time>2019-04-18T09:03:33Z</time>
      </trkpt>
      <trkpt lat="44.86651" lon="5.68262">
        <ele>645</ele>
        <time>2019-04-18T09:03:36Z</time>
      </trkpt>
      <trkpt lat="44.8665" lon="5.6827">
        <ele>645</ele>
        <time>2019-04-18T09:03:43Z</time>
      </trkpt>
      <trkpt lat="44.8665" lon="5.68271">
        <ele>645</ele>
        <time>2019-04-18T09:03:44Z</time>
      </trkpt>
      <trkpt lat="44.8665" lon="5.68271">
        <ele>645</ele>
        <time>2019-04-18T09:03:45Z</time>
      </trkpt>
      <trkpt lat="44.86649" lon="5.68272">
        <ele>645</ele>
        <time>2019-04-18T09:03:46Z</time>
      </trkpt>
      <trkpt lat="44.86649" lon="5.68272">
        <ele>645</ele>
        <time>2019-04-18T09:03:47Z</time>
      </trkpt>
      <trkpt lat="44.86648" lon="5.68273">
        <ele>645</ele>
        <time>2019-04-18T09:03:48Z</time>
      </trkpt>
      <trkpt lat="44.86646" lon="5.68274">
        <ele>645</ele>
        <time>2019-04-18T09:03:50Z</time>
      </trkpt>
      <trkpt lat="44.86647" lon="5.68275">
        <ele>645</ele>
        <time>2019-04-18T09:03:51Z</time>
      </trkpt>
      <trkpt lat="44.86647" lon="5.68275">
        <ele>645</ele>
        <time>2019-04-18T09:03:52Z</time>
      </trkpt>
      <trkpt lat="44.86646" lon="5.68276">
        <ele>645</ele>
        <time>2019-04-18T09:03:54Z</time>
      </trkpt>
      <trkpt lat="44.86643" lon="5.68279">
        <ele>645</ele>
        <time>2019-04-18T09:03:56Z</time>
      </trkpt>
      <trkpt lat="44.86639" lon="5.68282">
        <ele>645</ele>
        <time>2019-04-18T09:03:59Z</time>
      </trkpt>
      <trkpt lat="44.86628" lon="5.68295">
        <ele>646</ele>
        <time>2019-04-18T09:04:12Z</time>
      </trkpt>
      <trkpt lat="44.86622" lon="5.68302">
        <ele>646</ele>
        <time>2019-04-18T09:04:25Z</time>
      </trkpt>
      <trkpt lat="44.86617" lon="5.68305">
        <ele>646</ele>
        <time>2019-04-18T09:04:29Z</time>
      </trkpt>
      <trkpt lat="44.86595" lon="5.6831">
        <ele>646</ele>
        <time>2019-04-18T09:04:43Z</time>
      </trkpt>
      <trkpt lat="44.86592" lon="5.68308">
        <ele>646</ele>
        <time>2019-04-18T09:04:47Z</time>
      </trkpt>
      <trkpt lat="44.86581" lon="5.68311">
        <ele>638</ele>
        <time>2019-04-18T09:04:59Z</time>
      </trkpt>
      <trkpt lat="44.86575" lon="5.6832">
        <ele>640</ele>
        <time>2019-04-18T09:05:11Z</time>
      </trkpt>
      <trkpt lat="44.86567" lon="5.68337">
        <ele>647</ele>
        <time>2019-04-18T09:05:26Z</time>
      </trkpt>
      <trkpt lat="44.86566" lon="5.6834">
        <ele>647</ele>
        <time>2019-04-18T09:05:48Z</time>
      </trkpt>
      <trkpt lat="44.86568" lon="5.6834">
        <ele>647</ele>
        <time>2019-04-18T09:06:15Z</time>
      </trkpt>
      <trkpt lat="44.86569" lon="5.6834">
        <ele>647</ele>
        <time>2019-04-18T09:06:47Z</time>
      </trkpt>
      <trkpt lat="44.86565" lon="5.68351">
        <ele>647</ele>
        <time>2019-04-18T09:07:01Z</time>
      </trkpt>
      <trkpt lat="44.86556" lon="5.68363">
        <ele>646</ele>
        <time>2019-04-18T09:07:14Z</time>
      </trkpt>
      <trkpt lat="44.86547" lon="5.68377">
        <ele>646</ele>
        <time>2019-04-18T09:07:27Z</time>
      </trkpt>
      <trkpt lat="44.86543" lon="5.68386">
        <ele>647</ele>
        <time>2019-04-18T09:07:39Z</time>
      </trkpt>
      <trkpt lat="44.86536" lon="5.68391">
        <ele>646</ele>
        <time>2019-04-18T09:07:49Z</time>
      </trkpt>
      <trkpt lat="44.8652" lon="5.68401">
        <ele>645</ele>
        <time>2019-04-18T09:08:02Z</time>
      </trkpt>
      <trkpt lat="44.86519" lon="5.68404">
        <ele>645</ele>
        <time>2019-04-18T09:08:04Z</time>
      </trkpt>
      <trkpt lat="44.86514" lon="5.68411">
        <ele>645</ele>
        <time>2019-04-18T09:08:10Z</time>
      </trkpt>
      <trkpt lat="44.86513" lon="5.68414">
        <ele>645</ele>
        <time>2019-04-18T09:08:12Z</time>
      </trkpt>
      <trkpt lat="44.86509" lon="5.68419">
        <ele>649</ele>
        <time>2019-04-18T09:08:17Z</time>
      </trkpt>
      <trkpt lat="44.86508" lon="5.68433">
        <ele>652</ele>
        <time>2019-04-18T09:08:28Z</time>
      </trkpt>
      <trkpt lat="44.86503" lon="5.68447">
        <ele>655</ele>
        <time>2019-04-18T09:08:41Z</time>
      </trkpt>
      <trkpt lat="44.86497" lon="5.68459">
        <ele>646</ele>
        <time>2019-04-18T09:08:53Z</time>
      </trkpt>
      <trkpt lat="44.86488" lon="5.68479">
        <ele>648</ele>
        <time>2019-04-18T09:09:05Z</time>
      </trkpt>
      <trkpt lat="44.86483" lon="5.68485">
        <ele>648</ele>
        <time>2019-04-18T09:09:11Z</time>
      </trkpt>
      <trkpt lat="44.86481" lon="5.6849">
        <ele>649</ele>
        <time>2019-04-18T09:09:14Z</time>
      </trkpt>
      <trkpt lat="44.86475" lon="5.68505">
        <ele>655</ele>
        <time>2019-04-18T09:09:26Z</time>
      </trkpt>
      <trkpt lat="44.86469" lon="5.68513">
        <ele>655</ele>
        <time>2019-04-18T09:09:36Z</time>
      </trkpt>
      <trkpt lat="44.8646" lon="5.68521">
        <ele>654</ele>
        <time>2019-04-18T09:09:48Z</time>
      </trkpt>
      <trkpt lat="44.86457" lon="5.68534">
        <ele>655</ele>
        <time>2019-04-18T09:10:00Z</time>
      </trkpt>
      <trkpt lat="44.86458" lon="5.68539">
        <ele>655</ele>
        <time>2019-04-18T09:10:04Z</time>
      </trkpt>
      <trkpt lat="44.86458" lon="5.68542">
        <ele>656</ele>
        <time>2019-04-18T09:10:06Z</time>
      </trkpt>
      <trkpt lat="44.86458" lon="5.68543">
        <ele>656</ele>
        <time>2019-04-18T09:10:07Z</time>
      </trkpt>
      <trkpt lat="44.86458" lon="5.68544">
        <ele>656</ele>
        <time>2019-04-18T09:10:08Z</time>
      </trkpt>
      <trkpt lat="44.86458" lon="5.68544">
        <ele>656</ele>
        <time>2019-04-18T09:10:09Z</time>
      </trkpt>
      <trkpt lat="44.86457" lon="5.68546">
        <ele>656</ele>
        <time>2019-04-18T09:10:11Z</time>
      </trkpt>
      <trkpt lat="44.86457" lon="5.68556">
        <ele>656</ele>
        <time>2019-04-18T09:10:22Z</time>
      </trkpt>
      <trkpt lat="44.86453" lon="5.68566">
        <ele>657</ele>
        <time>2019-04-18T09:10:32Z</time>
      </trkpt>
      <trkpt lat="44.86452" lon="5.68572">
        <ele>657</ele>
        <time>2019-04-18T09:10:37Z</time>
      </trkpt>
      <trkpt lat="44.86452" lon="5.68584">
        <ele>664</ele>
        <time>2019-04-18T09:10:51Z</time>
      </trkpt>
      <trkpt lat="44.86452" lon="5.68587">
        <ele>664</ele>
        <time>2019-04-18T09:11:02Z</time>
      </trkpt>
      <trkpt lat="44.86455" lon="5.68595">
        <ele>665</ele>
        <time>2019-04-18T09:11:13Z</time>
      </trkpt>
      <trkpt lat="44.86455" lon="5.68608">
        <ele>665</ele>
        <time>2019-04-18T09:11:26Z</time>
      </trkpt>
      <trkpt lat="44.86455" lon="5.6862">
        <ele>666</ele>
        <time>2019-04-18T09:11:37Z</time>
      </trkpt>
      <trkpt lat="44.86452" lon="5.68628">
        <ele>666</ele>
        <time>2019-04-18T09:11:45Z</time>
      </trkpt>
      <trkpt lat="44.86452" lon="5.68643">
        <ele>667</ele>
        <time>2019-04-18T09:11:56Z</time>
      </trkpt>
      <trkpt lat="44.86453" lon="5.6865">
        <ele>668</ele>
        <time>2019-04-18T09:12:08Z</time>
      </trkpt>
      <trkpt lat="44.86448" lon="5.68657">
        <ele>667</ele>
        <time>2019-04-18T09:12:20Z</time>
      </trkpt>
      <trkpt lat="44.86444" lon="5.68667">
        <ele>667</ele>
        <time>2019-04-18T09:12:31Z</time>
      </trkpt>
      <trkpt lat="44.86441" lon="5.68677">
        <ele>673</ele>
        <time>2019-04-18T09:12:44Z</time>
      </trkpt>
      <trkpt lat="44.86433" lon="5.68691">
        <ele>674</ele>
        <time>2019-04-18T09:12:59Z</time>
      </trkpt>
      <trkpt lat="44.86428" lon="5.68704">
        <ele>675</ele>
        <time>2019-04-18T09:13:12Z</time>
      </trkpt>
      <trkpt lat="44.86427" lon="5.68709">
        <ele>675</ele>
        <time>2019-04-18T09:13:20Z</time>
      </trkpt>
      <trkpt lat="44.86421" lon="5.68716">
        <ele>676</ele>
        <time>2019-04-18T09:13:31Z</time>
      </trkpt>
      <trkpt lat="44.86415" lon="5.68724">
        <ele>671</ele>
        <time>2019-04-18T09:13:45Z</time>
      </trkpt>
      <trkpt lat="44.86415" lon="5.68732">
        <ele>673</ele>
        <time>2019-04-18T09:13:58Z</time>
      </trkpt>
      <trkpt lat="44.86404" lon="5.68737">
        <ele>673</ele>
        <time>2019-04-18T09:14:15Z</time>
      </trkpt>
      <trkpt lat="44.86398" lon="5.68742">
        <ele>672</ele>
        <time>2019-04-18T09:14:26Z</time>
      </trkpt>
      <trkpt lat="44.86392" lon="5.68746">
        <ele>672</ele>
        <time>2019-04-18T09:14:41Z</time>
      </trkpt>
      <trkpt lat="44.86392" lon="5.68748">
        <ele>672</ele>
        <time>2019-04-18T09:15:07Z</time>
      </trkpt>
      <trkpt lat="44.86394" lon="5.68748">
        <ele>672</ele>
        <time>2019-04-18T09:15:43Z</time>
      </trkpt>
      <trkpt lat="44.86392" lon="5.68747">
        <ele>672</ele>
        <time>2019-04-18T09:16:07Z</time>
      </trkpt>
      <trkpt lat="44.8639" lon="5.68758">
        <ele>678</ele>
        <time>2019-04-18T09:16:19Z</time>
      </trkpt>
      <trkpt lat="44.86389" lon="5.68767">
        <ele>678</ele>
        <time>2019-04-18T09:16:31Z</time>
      </trkpt>
      <trkpt lat="44.86381" lon="5.68769">
        <ele>678</ele>
        <time>2019-04-18T09:16:45Z</time>
      </trkpt>
      <trkpt lat="44.86373" lon="5.68772">
        <ele>678</ele>
        <time>2019-04-18T09:16:57Z</time>
      </trkpt>
      <trkpt lat="44.86361" lon="5.6878">
        <ele>678</ele>
        <time>2019-04-18T09:17:10Z</time>
      </trkpt>
      <trkpt lat="44.8636" lon="5.68783">
        <ele>678</ele>
        <time>2019-04-18T09:17:17Z</time>
      </trkpt>
      <trkpt lat="44.86361" lon="5.688">
        <ele>679</ele>
        <time>2019-04-18T09:17:30Z</time>
      </trkpt>
      <trkpt lat="44.86358" lon="5.6881">
        <ele>679</ele>
        <time>2019-04-18T09:17:41Z</time>
      </trkpt>
      <trkpt lat="44.86351" lon="5.68815">
        <ele>680</ele>
        <time>2019-04-18T09:17:51Z</time>
      </trkpt>
      <trkpt lat="44.8634" lon="5.68823">
        <ele>681</ele>
        <time>2019-04-18T09:18:02Z</time>
      </trkpt>
      <trkpt lat="44.86333" lon="5.68833">
        <ele>682</ele>
        <time>2019-04-18T09:18:15Z</time>
      </trkpt>
      <trkpt lat="44.86322" lon="5.68841">
        <ele>683</ele>
        <time>2019-04-18T09:18:27Z</time>
      </trkpt>
      <trkpt lat="44.86319" lon="5.68846">
        <ele>683</ele>
        <time>2019-04-18T09:18:32Z</time>
      </trkpt>
      <trkpt lat="44.86309" lon="5.68852">
        <ele>684</ele>
        <time>2019-04-18T09:18:48Z</time>
      </trkpt>
      <trkpt lat="44.863" lon="5.68856">
        <ele>684</ele>
        <time>2019-04-18T09:19:01Z</time>
      </trkpt>
      <trkpt lat="44.8629" lon="5.68862">
        <ele>684</ele>
        <time>2019-04-18T09:19:15Z</time>
      </trkpt>
      <trkpt lat="44.86281" lon="5.68864">
        <ele>684</ele>
        <time>2019-04-18T09:19:29Z</time>
      </trkpt>
      <trkpt lat="44.86275" lon="5.68866">
        <ele>684</ele>
        <time>2019-04-18T09:19:44Z</time>
      </trkpt>
      <trkpt lat="44.86268" lon="5.68875">
        <ele>685</ele>
        <time>2019-04-18T09:19:57Z</time>
      </trkpt>
      <trkpt lat="44.86261" lon="5.68881">
        <ele>686</ele>
        <time>2019-04-18T09:20:09Z</time>
      </trkpt>
      <trkpt lat="44.86255" lon="5.6888">
        <ele>686</ele>
        <time>2019-04-18T09:20:22Z</time>
      </trkpt>
      <trkpt lat="44.8625" lon="5.68878">
        <ele>686</ele>
        <time>2019-04-18T09:20:30Z</time>
      </trkpt>
      <trkpt lat="44.8624" lon="5.68878">
        <ele>686</ele>
        <time>2019-04-18T09:20:43Z</time>
      </trkpt>
      <trkpt lat="44.86238" lon="5.68885">
        <ele>686</ele>
        <time>2019-04-18T09:20:56Z</time>
      </trkpt>
      <trkpt lat="44.86246" lon="5.68892">
        <ele>687</ele>
        <time>2019-04-18T09:21:10Z</time>
      </trkpt>
      <trkpt lat="44.86258" lon="5.689">
        <ele>688</ele>
        <time>2019-04-18T09:21:26Z</time>
      </trkpt>
      <trkpt lat="44.86251" lon="5.68902">
        <ele>688</ele>
        <time>2019-04-18T09:21:39Z</time>
      </trkpt>
      <trkpt lat="44.86251" lon="5.68911">
        <ele>690</ele>
        <time>2019-04-18T09:21:49Z</time>
      </trkpt>
      <trkpt lat="44.86248" lon="5.68916">
        <ele>690</ele>
        <time>2019-04-18T09:22:01Z</time>
      </trkpt>
      <trkpt lat="44.86242" lon="5.68923">
        <ele>692</ele>
        <time>2019-04-18T09:22:12Z</time>
      </trkpt>
      <trkpt lat="44.86241" lon="5.68929">
        <ele>693</ele>
        <time>2019-04-18T09:22:23Z</time>
      </trkpt>
      <trkpt lat="44.86243" lon="5.68929">
        <ele>693</ele>
        <time>2019-04-18T09:22:27Z</time>
      </trkpt>
      <trkpt lat="44.86254" lon="5.68931">
        <ele>690</ele>
        <time>2019-04-18T09:22:40Z</time>
      </trkpt>
      <trkpt lat="44.86262" lon="5.68931">
        <ele>690</ele>
        <time>2019-04-18T09:22:53Z</time>
      </trkpt>
      <trkpt lat="44.86268" lon="5.6893">
        <ele>689</ele>
        <time>2019-04-18T09:23:00Z</time>
      </trkpt>
      <trkpt lat="44.86268" lon="5.6893">
        <ele>689</ele>
        <time>2019-04-18T09:23:01Z</time>
      </trkpt>
      <trkpt lat="44.86268" lon="5.68929">
        <ele>689</ele>
        <time>2019-04-18T09:23:02Z</time>
      </trkpt>
      <trkpt lat="44.86269" lon="5.68929">
        <ele>689</ele>
        <time>2019-04-18T09:23:04Z</time>
      </trkpt>
      <trkpt lat="44.86271" lon="5.6893">
        <ele>689</ele>
        <time>2019-04-18T09:23:06Z</time>
      </trkpt>
      <trkpt lat="44.86273" lon="5.6893">
        <ele>689</ele>
        <time>2019-04-18T09:23:07Z</time>
      </trkpt>
      <trkpt lat="44.86274" lon="5.6893">
        <ele>689</ele>
        <time>2019-04-18T09:23:08Z</time>
      </trkpt>
      <trkpt lat="44.86274" lon="5.68931">
        <ele>689</ele>
        <time>2019-04-18T09:23:09Z</time>
      </trkpt>
      <trkpt lat="44.86275" lon="5.6893">
        <ele>689</ele>
        <time>2019-04-18T09:23:10Z</time>
      </trkpt>
      <trkpt lat="44.86277" lon="5.68931">
        <ele>689</ele>
        <time>2019-04-18T09:23:12Z</time>
      </trkpt>
      <trkpt lat="44.86278" lon="5.68931">
        <ele>689</ele>
        <time>2019-04-18T09:23:13Z</time>
      </trkpt>
      <trkpt lat="44.86278" lon="5.68931">
        <ele>689</ele>
        <time>2019-04-18T09:23:14Z</time>
      </trkpt>
      <trkpt lat="44.86279" lon="5.68931">
        <ele>689</ele>
        <time>2019-04-18T09:23:15Z</time>
      </trkpt>
      <trkpt lat="44.8628" lon="5.68931">
        <ele>689</ele>
        <time>2019-04-18T09:23:16Z</time>
      </trkpt>
      <trkpt lat="44.86283" lon="5.68931">
        <ele>689</ele>
        <time>2019-04-18T09:23:18Z</time>
      </trkpt>
      <trkpt lat="44.86292" lon="5.6893">
        <ele>688</ele>
        <time>2019-04-18T09:23:29Z</time>
      </trkpt>
      <trkpt lat="44.86303" lon="5.68928">
        <ele>687</ele>
        <time>2019-04-18T09:23:44Z</time>
      </trkpt>
      <trkpt lat="44.86303" lon="5.68929">
        <ele>687</ele>
        <time>2019-04-18T09:24:01Z</time>
      </trkpt>
      <trkpt lat="44.86303" lon="5.68928">
        <ele>687</ele>
        <time>2019-04-18T09:24:13Z</time>
      </trkpt>
      <trkpt lat="44.86303" lon="5.68928">
        <ele>687</ele>
        <time>2019-04-18T09:24:28Z</time>
      </trkpt>
      <trkpt lat="44.86304" lon="5.68927">
        <ele>687</ele>
        <time>2019-04-18T09:24:46Z</time>
      </trkpt>
      <trkpt lat="44.86304" lon="5.68927">
        <ele>687</ele>
        <time>2019-04-18T09:25:05Z</time>
      </trkpt>
      <trkpt lat="44.86304" lon="5.68928">
        <ele>687</ele>
        <time>2019-04-18T09:25:28Z</time>
      </trkpt>
      <trkpt lat="44.86304" lon="5.68927">
        <ele>687</ele>
        <time>2019-04-18T09:25:51Z</time>
      </trkpt>
      <trkpt lat="44.86307" lon="5.68926">
        <ele>687</ele>
        <time>2019-04-18T09:26:16Z</time>
      </trkpt>
      <trkpt lat="44.86308" lon="5.68928">
        <ele>687</ele>
        <time>2019-04-18T09:26:22Z</time>
      </trkpt>
      <trkpt lat="44.86315" lon="5.68931">
        <ele>687</ele>
        <time>2019-04-18T09:26:29Z</time>
      </trkpt>
      <trkpt lat="44.86323" lon="5.68927">
        <ele>686</ele>
        <time>2019-04-18T09:26:39Z</time>
      </trkpt>
      <trkpt lat="44.86333" lon="5.68917">
        <ele>685</ele>
        <time>2019-04-18T09:26:51Z</time>
      </trkpt>
      <trkpt lat="44.86337" lon="5.68915">
        <ele>684</ele>
        <time>2019-04-18T09:26:55Z</time>
      </trkpt>
      <trkpt lat="44.86339" lon="5.68912">
        <ele>684</ele>
        <time>2019-04-18T09:26:58Z</time>
      </trkpt>
      <trkpt lat="44.86349" lon="5.68904">
        <ele>683</ele>
        <time>2019-04-18T09:27:09Z</time>
      </trkpt>
      <trkpt lat="44.86349" lon="5.68904">
        <ele>683</ele>
        <time>2019-04-18T09:27:10Z</time>
      </trkpt>
      <trkpt lat="44.8635" lon="5.68904">
        <ele>683</ele>
        <time>2019-04-18T09:27:11Z</time>
      </trkpt>
      <trkpt lat="44.86351" lon="5.68903">
        <ele>683</ele>
        <time>2019-04-18T09:27:12Z</time>
      </trkpt>
      <trkpt lat="44.86353" lon="5.68901">
        <ele>682</ele>
        <time>2019-04-18T09:27:15Z</time>
      </trkpt>
      <trkpt lat="44.86354" lon="5.68901">
        <ele>682</ele>
        <time>2019-04-18T09:27:16Z</time>
      </trkpt>
      <trkpt lat="44.86355" lon="5.689">
        <ele>682</ele>
        <time>2019-04-18T09:27:17Z</time>
      </trkpt>
      <trkpt lat="44.86356" lon="5.689">
        <ele>682</ele>
        <time>2019-04-18T09:27:18Z</time>
      </trkpt>
      <trkpt lat="44.86368" lon="5.6889">
        <ele>682</ele>
        <time>2019-04-18T09:27:34Z</time>
      </trkpt>
      <trkpt lat="44.86369" lon="5.68893">
        <ele>682</ele>
        <time>2019-04-18T09:27:47Z</time>
      </trkpt>
      <trkpt lat="44.86376" lon="5.68895">
        <ele>681</ele>
        <time>2019-04-18T09:27:57Z</time>
      </trkpt>
      <trkpt lat="44.86384" lon="5.68898">
        <ele>681</ele>
        <time>2019-04-18T09:28:09Z</time>
      </trkpt>
      <trkpt lat="44.86384" lon="5.68905">
        <ele>681</ele>
        <time>2019-04-18T09:28:20Z</time>
      </trkpt>
      <trkpt lat="44.86386" lon="5.68907">
        <ele>680</ele>
        <time>2019-04-18T09:28:30Z</time>
      </trkpt>
      <trkpt lat="44.86388" lon="5.68907">
        <ele>680</ele>
        <time>2019-04-18T09:28:44Z</time>
      </trkpt>
      <trkpt lat="44.86392" lon="5.68911">
        <ele>680</ele>
        <time>2019-04-18T09:28:56Z</time>
      </trkpt>
      <trkpt lat="44.86396" lon="5.68916">
        <ele>679</ele>
        <time>2019-04-18T09:29:07Z</time>
      </trkpt>
      <trkpt lat="44.864" lon="5.68914">
        <ele>679</ele>
        <time>2019-04-18T09:29:23Z</time>
      </trkpt>
      <trkpt lat="44.86404" lon="5.68916">
        <ele>678</ele>
        <time>2019-04-18T09:29:34Z</time>
      </trkpt>
      <trkpt lat="44.8641" lon="5.68923">
        <ele>676</ele>
        <time>2019-04-18T09:29:46Z</time>
      </trkpt>
      <trkpt lat="44.86413" lon="5.68933">
        <ele>676</ele>
        <time>2019-04-18T09:29:58Z</time>
      </trkpt>
      <trkpt lat="44.86416" lon="5.68945">
        <ele>675</ele>
        <time>2019-04-18T09:30:09Z</time>
      </trkpt>
      <trkpt lat="44.86424" lon="5.68954">
        <ele>667</ele>
        <time>2019-04-18T09:30:22Z</time>
      </trkpt>
      <trkpt lat="44.86427" lon="5.68959">
        <ele>667</ele>
        <time>2019-04-18T09:30:37Z</time>
      </trkpt>
      <trkpt lat="44.86427" lon="5.6896">
        <ele>666</ele>
        <time>2019-04-18T09:31:08Z</time>
      </trkpt>
      <trkpt lat="44.86431" lon="5.68964">
        <ele>666</ele>
        <time>2019-04-18T09:31:14Z</time>
      </trkpt>
      <trkpt lat="44.86432" lon="5.68966">
        <ele>666</ele>
        <time>2019-04-18T09:31:16Z</time>
      </trkpt>
      <trkpt lat="44.86438" lon="5.68972">
        <ele>665</ele>
        <time>2019-04-18T09:31:23Z</time>
      </trkpt>
      <trkpt lat="44.86441" lon="5.68976">
        <ele>665</ele>
        <time>2019-04-18T09:31:26Z</time>
      </trkpt>
      <trkpt lat="44.86445" lon="5.6898">
        <ele>665</ele>
        <time>2019-04-18T09:31:32Z</time>
      </trkpt>
      <trkpt lat="44.86452" lon="5.68989">
        <ele>664</ele>
        <time>2019-04-18T09:31:44Z</time>
      </trkpt>
      <trkpt lat="44.86461" lon="5.69001">
        <ele>660</ele>
        <time>2019-04-18T09:31:56Z</time>
      </trkpt>
      <trkpt lat="44.86465" lon="5.69006">
        <ele>660</ele>
        <time>2019-04-18T09:32:02Z</time>
      </trkpt>
      <trkpt lat="44.86469" lon="5.69011">
        <ele>659</ele>
        <time>2019-04-18T09:32:06Z</time>
      </trkpt>
      <trkpt lat="44.86473" lon="5.69014">
        <ele>659</ele>
        <time>2019-04-18T09:32:10Z</time>
      </trkpt>
      <trkpt lat="44.86476" lon="5.69016">
        <ele>659</ele>
        <time>2019-04-18T09:32:14Z</time>
      </trkpt>
      <trkpt lat="44.86487" lon="5.69024">
        <ele>659</ele>
        <time>2019-04-18T09:32:27Z</time>
      </trkpt>
      <trkpt lat="44.86485" lon="5.69025">
        <ele>659</ele>
        <time>2019-04-18T09:32:50Z</time>
      </trkpt>
      <trkpt lat="44.86484" lon="5.69023">
        <ele>659</ele>
        <time>2019-04-18T09:33:24Z</time>
      </trkpt>
      <trkpt lat="44.86486" lon="5.69024">
        <ele>659</ele>
        <time>2019-04-18T09:33:42Z</time>
      </trkpt>
      <trkpt lat="44.86495" lon="5.69031">
        <ele>658</ele>
        <time>2019-04-18T09:33:55Z</time>
      </trkpt>
      <trkpt lat="44.86509" lon="5.69037">
        <ele>653</ele>
        <time>2019-04-18T09:34:09Z</time>
      </trkpt>
      <trkpt lat="44.86512" lon="5.69039">
        <ele>653</ele>
        <time>2019-04-18T09:34:12Z</time>
      </trkpt>
      <trkpt lat="44.86517" lon="5.69043">
        <ele>652</ele>
        <time>2019-04-18T09:34:16Z</time>
      </trkpt>
      <trkpt lat="44.86518" lon="5.69044">
        <ele>652</ele>
        <time>2019-04-18T09:34:17Z</time>
      </trkpt>
      <trkpt lat="44.86519" lon="5.69044">
        <ele>652</ele>
        <time>2019-04-18T09:34:18Z</time>
      </trkpt>
      <trkpt lat="44.8652" lon="5.69044">
        <ele>652</ele>
        <time>2019-04-18T09:34:19Z</time>
      </trkpt>
      <trkpt lat="44.86522" lon="5.69046">
        <ele>652</ele>
        <time>2019-04-18T09:34:23Z</time>
      </trkpt>
      <trkpt lat="44.86531" lon="5.6905">
        <ele>652</ele>
        <time>2019-04-18T09:34:31Z</time>
      </trkpt>
      <trkpt lat="44.86537" lon="5.69053">
        <ele>651</ele>
        <time>2019-04-18T09:34:35Z</time>
      </trkpt>
      <trkpt lat="44.86538" lon="5.69061">
        <ele>651</ele>
        <time>2019-04-18T09:34:40Z</time>
      </trkpt>
      <trkpt lat="44.86538" lon="5.69062">
        <ele>651</ele>
        <time>2019-04-18T09:34:41Z</time>
      </trkpt>
      <trkpt lat="44.86538" lon="5.69064">
        <ele>651</ele>
        <time>2019-04-18T09:34:42Z</time>
      </trkpt>
      <trkpt lat="44.86538" lon="5.69066">
        <ele>651</ele>
        <time>2019-04-18T09:34:43Z</time>
      </trkpt>
      <trkpt lat="44.86538" lon="5.69067">
        <ele>651</ele>
        <time>2019-04-18T09:34:44Z</time>
      </trkpt>
      <trkpt lat="44.86537" lon="5.69069">
        <ele>651</ele>
        <time>2019-04-18T09:34:46Z</time>
      </trkpt>
      <trkpt lat="44.86534" lon="5.69074">
        <ele>651</ele>
        <time>2019-04-18T09:34:50Z</time>
      </trkpt>
      <trkpt lat="44.86524" lon="5.6909">
        <ele>649</ele>
        <time>2019-04-18T09:35:05Z</time>
      </trkpt>
      <trkpt lat="44.86516" lon="5.69105">
        <ele>649</ele>
        <time>2019-04-18T09:35:19Z</time>
      </trkpt>
      <trkpt lat="44.86515" lon="5.69106">
        <ele>649</ele>
        <time>2019-04-18T09:35:20Z</time>
      </trkpt>
      <trkpt lat="44.86514" lon="5.69109">
        <ele>648</ele>
        <time>2019-04-18T09:35:22Z</time>
      </trkpt>
      <trkpt lat="44.86512" lon="5.69113">
        <ele>648</ele>
        <time>2019-04-18T09:35:25Z</time>
      </trkpt>
      <trkpt lat="44.86503" lon="5.69131">
        <ele>648</ele>
        <time>2019-04-18T09:35:39Z</time>
      </trkpt>
      <trkpt lat="44.86502" lon="5.69133">
        <ele>648</ele>
        <time>2019-04-18T09:35:41Z</time>
      </trkpt>
      <trkpt lat="44.86501" lon="5.69134">
        <ele>648</ele>
        <time>2019-04-18T09:35:42Z</time>
      </trkpt>
      <trkpt lat="44.86499" lon="5.69137">
        <ele>655</ele>
        <time>2019-04-18T09:35:45Z</time>
      </trkpt>
      <trkpt lat="44.86499" lon="5.69138">
        <ele>655</ele>
        <time>2019-04-18T09:35:46Z</time>
      </trkpt>
      <trkpt lat="44.86497" lon="5.69141">
        <ele>655</ele>
        <time>2019-04-18T09:35:49Z</time>
      </trkpt>
      <trkpt lat="44.86496" lon="5.69142">
        <ele>655</ele>
        <time>2019-04-18T09:35:50Z</time>
      </trkpt>
      <trkpt lat="44.8649" lon="5.69149">
        <ele>655</ele>
        <time>2019-04-18T09:35:57Z</time>
      </trkpt>
      <trkpt lat="44.86483" lon="5.69155">
        <ele>655</ele>
        <time>2019-04-18T09:36:05Z</time>
      </trkpt>
      <trkpt lat="44.86481" lon="5.69157">
        <ele>655</ele>
        <time>2019-04-18T09:36:08Z</time>
      </trkpt>
      <trkpt lat="44.86469" lon="5.69165">
        <ele>656</ele>
        <time>2019-04-18T09:36:20Z</time>
      </trkpt>
      <trkpt lat="44.86467" lon="5.69166">
        <ele>657</ele>
        <time>2019-04-18T09:36:23Z</time>
      </trkpt>
      <trkpt lat="44.86456" lon="5.69175">
        <ele>656</ele>
        <time>2019-04-18T09:36:35Z</time>
      </trkpt>
      <trkpt lat="44.86443" lon="5.69184">
        <ele>657</ele>
        <time>2019-04-18T09:36:49Z</time>
      </trkpt>
      <trkpt lat="44.86433" lon="5.69195">
        <ele>658</ele>
        <time>2019-04-18T09:37:02Z</time>
      </trkpt>
      <trkpt lat="44.86432" lon="5.69196">
        <ele>658</ele>
        <time>2019-04-18T09:37:18Z</time>
      </trkpt>
      <trkpt lat="44.86432" lon="5.69195">
        <ele>658</ele>
        <time>2019-04-18T09:37:38Z</time>
      </trkpt>
      <trkpt lat="44.86432" lon="5.69195">
        <ele>658</ele>
        <time>2019-04-18T09:37:56Z</time>
      </trkpt>
      <trkpt lat="44.86425" lon="5.69201">
        <ele>658</ele>
        <time>2019-04-18T09:38:09Z</time>
      </trkpt>
      <trkpt lat="44.86423" lon="5.69205">
        <ele>658</ele>
        <time>2019-04-18T09:38:13Z</time>
      </trkpt>
      <trkpt lat="44.86415" lon="5.69212">
        <ele>666</ele>
        <time>2019-04-18T09:38:24Z</time>
      </trkpt>
      <trkpt lat="44.86405" lon="5.6922">
        <ele>666</ele>
        <time>2019-04-18T09:38:38Z</time>
      </trkpt>
      <trkpt lat="44.86394" lon="5.69228">
        <ele>666</ele>
        <time>2019-04-18T09:38:52Z</time>
      </trkpt>
      <trkpt lat="44.86389" lon="5.69231">
        <ele>666</ele>
        <time>2019-04-18T09:38:57Z</time>
      </trkpt>
      <trkpt lat="44.86386" lon="5.69234">
        <ele>667</ele>
        <time>2019-04-18T09:39:01Z</time>
      </trkpt>
      <trkpt lat="44.86376" lon="5.69245">
        <ele>668</ele>
        <time>2019-04-18T09:39:16Z</time>
      </trkpt>
      <trkpt lat="44.86369" lon="5.69261">
        <ele>667</ele>
        <time>2019-04-18T09:39:30Z</time>
      </trkpt>
      <trkpt lat="44.86364" lon="5.69267">
        <ele>667</ele>
        <time>2019-04-18T09:39:38Z</time>
      </trkpt>
      <trkpt lat="44.86362" lon="5.69271">
        <ele>667</ele>
        <time>2019-04-18T09:39:41Z</time>
      </trkpt>
      <trkpt lat="44.86357" lon="5.69282">
        <ele>668</ele>
        <time>2019-04-18T09:39:50Z</time>
      </trkpt>
      <trkpt lat="44.86352" lon="5.69298">
        <ele>668</ele>
        <time>2019-04-18T09:40:05Z</time>
      </trkpt>
      <trkpt lat="44.86352" lon="5.69302">
        <ele>668</ele>
        <time>2019-04-18T09:40:08Z</time>
      </trkpt>
      <trkpt lat="44.86352" lon="5.69304">
        <ele>668</ele>
        <time>2019-04-18T09:40:09Z</time>
      </trkpt>
      <trkpt lat="44.86353" lon="5.69305">
        <ele>668</ele>
        <time>2019-04-18T09:40:10Z</time>
      </trkpt>
      <trkpt lat="44.86353" lon="5.69306">
        <ele>668</ele>
        <time>2019-04-18T09:40:11Z</time>
      </trkpt>
      <trkpt lat="44.86352" lon="5.69307">
        <ele>668</ele>
        <time>2019-04-18T09:40:12Z</time>
      </trkpt>
      <trkpt lat="44.86352" lon="5.69308">
        <ele>668</ele>
        <time>2019-04-18T09:40:13Z</time>
      </trkpt>
      <trkpt lat="44.86351" lon="5.6931">
        <ele>668</ele>
        <time>2019-04-18T09:40:14Z</time>
      </trkpt>
      <trkpt lat="44.86351" lon="5.69312">
        <ele>668</ele>
        <time>2019-04-18T09:40:16Z</time>
      </trkpt>
      <trkpt lat="44.8635" lon="5.69313">
        <ele>668</ele>
        <time>2019-04-18T09:40:17Z</time>
      </trkpt>
      <trkpt lat="44.8635" lon="5.69314">
        <ele>669</ele>
        <time>2019-04-18T09:40:18Z</time>
      </trkpt>
      <trkpt lat="44.8635" lon="5.69316">
        <ele>669</ele>
        <time>2019-04-18T09:40:19Z</time>
      </trkpt>
      <trkpt lat="44.8635" lon="5.69317">
        <ele>669</ele>
        <time>2019-04-18T09:40:20Z</time>
      </trkpt>
      <trkpt lat="44.86348" lon="5.69343">
        <ele>668</ele>
        <time>2019-04-18T09:40:38Z</time>
      </trkpt>
      <trkpt lat="44.86348" lon="5.69364">
        <ele>666</ele>
        <time>2019-04-18T09:40:54Z</time>
      </trkpt>
      <trkpt lat="44.86347" lon="5.69367">
        <ele>666</ele>
        <time>2019-04-18T09:40:56Z</time>
      </trkpt>
      <trkpt lat="44.86347" lon="5.69369">
        <ele>666</ele>
        <time>2019-04-18T09:40:57Z</time>
      </trkpt>
      <trkpt lat="44.86347" lon="5.69377">
        <ele>666</ele>
        <time>2019-04-18T09:41:04Z</time>
      </trkpt>
      <trkpt lat="44.86348" lon="5.69388">
        <ele>666</ele>
        <time>2019-04-18T09:41:13Z</time>
      </trkpt>
      <trkpt lat="44.86355" lon="5.69398">
        <ele>665</ele>
        <time>2019-04-18T09:41:24Z</time>
      </trkpt>
      <trkpt lat="44.86365" lon="5.69411">
        <ele>664</ele>
        <time>2019-04-18T09:41:37Z</time>
      </trkpt>
      <trkpt lat="44.86371" lon="5.69413">
        <ele>663</ele>
        <time>2019-04-18T09:41:44Z</time>
      </trkpt>
      <trkpt lat="44.86372" lon="5.69413">
        <ele>663</ele>
        <time>2019-04-18T09:41:45Z</time>
      </trkpt>
      <trkpt lat="44.86372" lon="5.69413">
        <ele>663</ele>
        <time>2019-04-18T09:41:46Z</time>
      </trkpt>
      <trkpt lat="44.86372" lon="5.69414">
        <ele>663</ele>
        <time>2019-04-18T09:41:49Z</time>
      </trkpt>
      <trkpt lat="44.86372" lon="5.69414">
        <ele>663</ele>
        <time>2019-04-18T09:41:50Z</time>
      </trkpt>
      <trkpt lat="44.86372" lon="5.69414">
        <ele>663</ele>
        <time>2019-04-18T09:41:51Z</time>
      </trkpt>
      <trkpt lat="44.86373" lon="5.69414">
        <ele>663</ele>
        <time>2019-04-18T09:42:03Z</time>
      </trkpt>
      <trkpt lat="44.86373" lon="5.69414">
        <ele>663</ele>
        <time>2019-04-18T09:42:04Z</time>
      </trkpt>
      <trkpt lat="44.86373" lon="5.69414">
        <ele>663</ele>
        <time>2019-04-18T09:42:05Z</time>
      </trkpt>
      <trkpt lat="44.86373" lon="5.69414">
        <ele>663</ele>
        <time>2019-04-18T09:42:06Z</time>
      </trkpt>
      <trkpt lat="44.86373" lon="5.69414">
        <ele>663</ele>
        <time>2019-04-18T09:42:08Z</time>
      </trkpt>
      <trkpt lat="44.86373" lon="5.69414">
        <ele>663</ele>
        <time>2019-04-18T09:42:09Z</time>
      </trkpt>
      <trkpt lat="44.86373" lon="5.69414">
        <ele>663</ele>
        <time>2019-04-18T09:42:10Z</time>
      </trkpt>
      <trkpt lat="44.86374" lon="5.69414">
        <ele>663</ele>
        <time>2019-04-18T09:42:11Z</time>
      </trkpt>
      <trkpt lat="44.86374" lon="5.69414">
        <ele>663</ele>
        <time>2019-04-18T09:42:14Z</time>
      </trkpt>
      <trkpt lat="44.86374" lon="5.69414">
        <ele>663</ele>
        <time>2019-04-18T09:42:15Z</time>
      </trkpt>
      <trkpt lat="44.86374" lon="5.69415">
        <ele>663</ele>
        <time>2019-04-18T09:42:16Z</time>
      </trkpt>
      <trkpt lat="44.86374" lon="5.69415">
        <ele>663</ele>
        <time>2019-04-18T09:42:18Z</time>
      </trkpt>
      <trkpt lat="44.86373" lon="5.6942">
        <ele>661</ele>
        <time>2019-04-18T09:42:31Z</time>
      </trkpt>
      <trkpt lat="44.86373" lon="5.6942">
        <ele>661</ele>
        <time>2019-04-18T09:42:32Z</time>
      </trkpt>
      <trkpt lat="44.86372" lon="5.69423">
        <ele>661</ele>
        <time>2019-04-18T09:42:34Z</time>
      </trkpt>
      <trkpt lat="44.86372" lon="5.69424">
        <ele>661</ele>
        <time>2019-04-18T09:42:35Z</time>
      </trkpt>
      <trkpt lat="44.86371" lon="5.69425">
        <ele>661</ele>
        <time>2019-04-18T09:42:36Z</time>
      </trkpt>
      <trkpt lat="44.8637" lon="5.69427">
        <ele>661</ele>
        <time>2019-04-18T09:42:38Z</time>
      </trkpt>
      <trkpt lat="44.86366" lon="5.69438">
        <ele>661</ele>
        <time>2019-04-18T09:42:47Z</time>
      </trkpt>
      <trkpt lat="44.86359" lon="5.69452">
        <ele>661</ele>
        <time>2019-04-18T09:42:59Z</time>
      </trkpt>
      <trkpt lat="44.86356" lon="5.69458">
        <ele>661</ele>
        <time>2019-04-18T09:43:04Z</time>
      </trkpt>
      <trkpt lat="44.86356" lon="5.69459">
        <ele>661</ele>
        <time>2019-04-18T09:43:05Z</time>
      </trkpt>
      <trkpt lat="44.86356" lon="5.6946">
        <ele>661</ele>
        <time>2019-04-18T09:43:06Z</time>
      </trkpt>
      <trkpt lat="44.86354" lon="5.69464">
        <ele>662</ele>
        <time>2019-04-18T09:43:09Z</time>
      </trkpt>
      <trkpt lat="44.86354" lon="5.69464">
        <ele>662</ele>
        <time>2019-04-18T09:43:10Z</time>
      </trkpt>
      <trkpt lat="44.86354" lon="5.69465">
        <ele>662</ele>
        <time>2019-04-18T09:43:11Z</time>
      </trkpt>
      <trkpt lat="44.86354" lon="5.69465">
        <ele>662</ele>
        <time>2019-04-18T09:43:12Z</time>
      </trkpt>
      <trkpt lat="44.86352" lon="5.69467">
        <ele>662</ele>
        <time>2019-04-18T09:43:14Z</time>
      </trkpt>
      <trkpt lat="44.86351" lon="5.69469">
        <ele>662</ele>
        <time>2019-04-18T09:43:15Z</time>
      </trkpt>
      <trkpt lat="44.8635" lon="5.69471">
        <ele>662</ele>
        <time>2019-04-18T09:43:16Z</time>
      </trkpt>
      <trkpt lat="44.86348" lon="5.69474">
        <ele>662</ele>
        <time>2019-04-18T09:43:18Z</time>
      </trkpt>
      <trkpt lat="44.86347" lon="5.69475">
        <ele>662</ele>
        <time>2019-04-18T09:43:19Z</time>
      </trkpt>
      <trkpt lat="44.86346" lon="5.69475">
        <ele>662</ele>
        <time>2019-04-18T09:43:20Z</time>
      </trkpt>
      <trkpt lat="44.86345" lon="5.69477">
        <ele>663</ele>
        <time>2019-04-18T09:43:21Z</time>
      </trkpt>
      <trkpt lat="44.86343" lon="5.6948">
        <ele>663</ele>
        <time>2019-04-18T09:43:23Z</time>
      </trkpt>
      <trkpt lat="44.86333" lon="5.6949">
        <ele>670</ele>
        <time>2019-04-18T09:43:37Z</time>
      </trkpt>
      <trkpt lat="44.86323" lon="5.69497">
        <ele>671</ele>
        <time>2019-04-18T09:43:49Z</time>
      </trkpt>
      <trkpt lat="44.8632" lon="5.69499">
        <ele>672</ele>
        <time>2019-04-18T09:43:53Z</time>
      </trkpt>
      <trkpt lat="44.86319" lon="5.695">
        <ele>672</ele>
        <time>2019-04-18T09:43:54Z</time>
      </trkpt>
      <trkpt lat="44.86318" lon="5.695">
        <ele>670</ele>
        <time>2019-04-18T09:43:55Z</time>
      </trkpt>
      <trkpt lat="44.86317" lon="5.69502">
        <ele>670</ele>
        <time>2019-04-18T09:43:57Z</time>
      </trkpt>
      <trkpt lat="44.86311" lon="5.69514">
        <ele>671</ele>
        <time>2019-04-18T09:44:11Z</time>
      </trkpt>
      <trkpt lat="44.86304" lon="5.69532">
        <ele>672</ele>
        <time>2019-04-18T09:44:27Z</time>
      </trkpt>
      <trkpt lat="44.86304" lon="5.69534">
        <ele>672</ele>
        <time>2019-04-18T09:44:29Z</time>
      </trkpt>
      <trkpt lat="44.86303" lon="5.69535">
        <ele>672</ele>
        <time>2019-04-18T09:44:30Z</time>
      </trkpt>
      <trkpt lat="44.863" lon="5.6955">
        <ele>672</ele>
        <time>2019-04-18T09:44:43Z</time>
      </trkpt>
      <trkpt lat="44.86298" lon="5.69555">
        <ele>672</ele>
        <time>2019-04-18T09:44:47Z</time>
      </trkpt>
      <trkpt lat="44.86298" lon="5.69558">
        <ele>672</ele>
        <time>2019-04-18T09:44:49Z</time>
      </trkpt>
      <trkpt lat="44.86294" lon="5.69569">
        <ele>672</ele>
        <time>2019-04-18T09:44:58Z</time>
      </trkpt>
      <trkpt lat="44.8629" lon="5.69587">
        <ele>667</ele>
        <time>2019-04-18T09:45:11Z</time>
      </trkpt>
      <trkpt lat="44.86287" lon="5.69595">
        <ele>668</ele>
        <time>2019-04-18T09:45:17Z</time>
      </trkpt>
      <trkpt lat="44.86282" lon="5.69614">
        <ele>667</ele>
        <time>2019-04-18T09:45:33Z</time>
      </trkpt>
      <trkpt lat="44.86281" lon="5.69621">
        <ele>667</ele>
        <time>2019-04-18T09:45:38Z</time>
      </trkpt>
      <trkpt lat="44.8628" lon="5.69622">
        <ele>667</ele>
        <time>2019-04-18T09:45:39Z</time>
      </trkpt>
      <trkpt lat="44.8628" lon="5.69623">
        <ele>667</ele>
        <time>2019-04-18T09:45:40Z</time>
      </trkpt>
      <trkpt lat="44.86279" lon="5.69627">
        <ele>667</ele>
        <time>2019-04-18T09:45:42Z</time>
      </trkpt>
      <trkpt lat="44.86276" lon="5.69649">
        <ele>667</ele>
        <time>2019-04-18T09:45:58Z</time>
      </trkpt>
      <trkpt lat="44.86272" lon="5.69671">
        <ele>664</ele>
        <time>2019-04-18T09:46:14Z</time>
      </trkpt>
      <trkpt lat="44.86272" lon="5.69686">
        <ele>662</ele>
        <time>2019-04-18T09:46:26Z</time>
      </trkpt>
      <trkpt lat="44.86272" lon="5.6969">
        <ele>662</ele>
        <time>2019-04-18T09:46:29Z</time>
      </trkpt>
      <trkpt lat="44.86272" lon="5.69708">
        <ele>661</ele>
        <time>2019-04-18T09:46:42Z</time>
      </trkpt>
      <trkpt lat="44.86272" lon="5.69724">
        <ele>661</ele>
        <time>2019-04-18T09:46:56Z</time>
      </trkpt>
      <trkpt lat="44.86272" lon="5.69725">
        <ele>661</ele>
        <time>2019-04-18T09:46:57Z</time>
      </trkpt>
      <trkpt lat="44.86272" lon="5.69727">
        <ele>661</ele>
        <time>2019-04-18T09:46:58Z</time>
      </trkpt>
      <trkpt lat="44.86274" lon="5.69739">
        <ele>661</ele>
        <time>2019-04-18T09:47:08Z</time>
      </trkpt>
      <trkpt lat="44.86276" lon="5.69749">
        <ele>660</ele>
        <time>2019-04-18T09:47:15Z</time>
      </trkpt>
      <trkpt lat="44.86279" lon="5.69759">
        <ele>658</ele>
        <time>2019-04-18T09:47:24Z</time>
      </trkpt>
      <trkpt lat="44.86284" lon="5.69773">
        <ele>656</ele>
        <time>2019-04-18T09:47:36Z</time>
      </trkpt>
      <trkpt lat="44.86284" lon="5.69782">
        <ele>656</ele>
        <time>2019-04-18T09:47:48Z</time>
      </trkpt>
      <trkpt lat="44.86283" lon="5.69783">
        <ele>656</ele>
        <time>2019-04-18T09:48:10Z</time>
      </trkpt>
      <trkpt lat="44.86282" lon="5.69784">
        <ele>656</ele>
        <time>2019-04-18T09:48:37Z</time>
      </trkpt>
      <trkpt lat="44.86281" lon="5.69783">
        <ele>656</ele>
        <time>2019-04-18T09:49:02Z</time>
      </trkpt>
      <trkpt lat="44.8628" lon="5.69785">
        <ele>656</ele>
        <time>2019-04-18T09:49:15Z</time>
      </trkpt>
      <trkpt lat="44.86288" lon="5.69799">
        <ele>655</ele>
        <time>2019-04-18T09:49:24Z</time>
      </trkpt>
      <trkpt lat="44.86292" lon="5.69815">
        <ele>655</ele>
        <time>2019-04-18T09:49:33Z</time>
      </trkpt>
      <trkpt lat="44.86294" lon="5.69819">
        <ele>655</ele>
        <time>2019-04-18T09:49:36Z</time>
      </trkpt>
      <trkpt lat="44.86298" lon="5.69835">
        <ele>657</ele>
        <time>2019-04-18T09:49:45Z</time>
      </trkpt>
      <trkpt lat="44.86304" lon="5.69856">
        <ele>657</ele>
        <time>2019-04-18T09:49:59Z</time>
      </trkpt>
      <trkpt lat="44.86306" lon="5.69859">
        <ele>657</ele>
        <time>2019-04-18T09:50:02Z</time>
      </trkpt>
      <trkpt lat="44.86308" lon="5.69864">
        <ele>657</ele>
        <time>2019-04-18T09:50:07Z</time>
      </trkpt>
      <trkpt lat="44.8631" lon="5.69868">
        <ele>657</ele>
        <time>2019-04-18T09:50:10Z</time>
      </trkpt>
      <trkpt lat="44.86313" lon="5.69881">
        <ele>658</ele>
        <time>2019-04-18T09:50:19Z</time>
      </trkpt>
      <trkpt lat="44.86315" lon="5.69884">
        <ele>658</ele>
        <time>2019-04-18T09:50:22Z</time>
      </trkpt>
      <trkpt lat="44.86316" lon="5.69886">
        <ele>658</ele>
        <time>2019-04-18T09:50:24Z</time>
      </trkpt>
      <trkpt lat="44.86321" lon="5.699">
        <ele>658</ele>
        <time>2019-04-18T09:50:36Z</time>
      </trkpt>
      <trkpt lat="44.86326" lon="5.69912">
        <ele>658</ele>
        <time>2019-04-18T09:50:48Z</time>
      </trkpt>
      <trkpt lat="44.86326" lon="5.69914">
        <ele>658</ele>
        <time>2019-04-18T09:50:50Z</time>
      </trkpt>
      <trkpt lat="44.86335" lon="5.69921">
        <ele>656</ele>
        <time>2019-04-18T09:51:03Z</time>
      </trkpt>
      <trkpt lat="44.86337" lon="5.69923">
        <ele>655</ele>
        <time>2019-04-18T09:51:19Z</time>
      </trkpt>
      <trkpt lat="44.8634" lon="5.69922">
        <ele>655</ele>
        <time>2019-04-18T09:51:34Z</time>
      </trkpt>
      <trkpt lat="44.86346" lon="5.69922">
        <ele>654</ele>
        <time>2019-04-18T09:51:39Z</time>
      </trkpt>
      <trkpt lat="44.86348" lon="5.69921">
        <ele>654</ele>
        <time>2019-04-18T09:51:40Z</time>
      </trkpt>
      <trkpt lat="44.8635" lon="5.69921">
        <ele>653</ele>
        <time>2019-04-18T09:51:41Z</time>
      </trkpt>
      <trkpt lat="44.86352" lon="5.69921">
        <ele>653</ele>
        <time>2019-04-18T09:51:42Z</time>
      </trkpt>
      <trkpt lat="44.86355" lon="5.6992">
        <ele>652</ele>
        <time>2019-04-18T09:51:44Z</time>
      </trkpt>
      <trkpt lat="44.86363" lon="5.69916">
        <ele>648</ele>
        <time>2019-04-18T09:51:49Z</time>
      </trkpt>
      <trkpt lat="44.86384" lon="5.69916">
        <ele>644</ele>
        <time>2019-04-18T09:52:03Z</time>
      </trkpt>
      <trkpt lat="44.86388" lon="5.69917">
        <ele>647</ele>
        <time>2019-04-18T09:52:09Z</time>
      </trkpt>
      <trkpt lat="44.8639" lon="5.69925">
        <ele>647</ele>
        <time>2019-04-18T09:52:16Z</time>
      </trkpt>
      <trkpt lat="44.8639" lon="5.69929">
        <ele>647</ele>
        <time>2019-04-18T09:52:20Z</time>
      </trkpt>
      <trkpt lat="44.86389" lon="5.69933">
        <ele>647</ele>
        <time>2019-04-18T09:52:24Z</time>
      </trkpt>
      <trkpt lat="44.86388" lon="5.69934">
        <ele>648</ele>
        <time>2019-04-18T09:52:25Z</time>
      </trkpt>
      <trkpt lat="44.86388" lon="5.69936">
        <ele>648</ele>
        <time>2019-04-18T09:52:26Z</time>
      </trkpt>
      <trkpt lat="44.86388" lon="5.69937">
        <ele>648</ele>
        <time>2019-04-18T09:52:27Z</time>
      </trkpt>
      <trkpt lat="44.86388" lon="5.6994">
        <ele>648</ele>
        <time>2019-04-18T09:52:29Z</time>
      </trkpt>
      <trkpt lat="44.86388" lon="5.6994">
        <ele>648</ele>
        <time>2019-04-18T09:52:30Z</time>
      </trkpt>
      <trkpt lat="44.86387" lon="5.69944">
        <ele>648</ele>
        <time>2019-04-18T09:52:33Z</time>
      </trkpt>
      <trkpt lat="44.86383" lon="5.69964">
        <ele>649</ele>
        <time>2019-04-18T09:52:47Z</time>
      </trkpt>
      <trkpt lat="44.86377" lon="5.69979">
        <ele>650</ele>
        <time>2019-04-18T09:53:00Z</time>
      </trkpt>
      <trkpt lat="44.8637" lon="5.70001">
        <ele>652</ele>
        <time>2019-04-18T09:53:14Z</time>
      </trkpt>
      <trkpt lat="44.86366" lon="5.70013">
        <ele>652</ele>
        <time>2019-04-18T09:53:27Z</time>
      </trkpt>
      <trkpt lat="44.86352" lon="5.70037">
        <ele>653</ele>
        <time>2019-04-18T09:53:44Z</time>
      </trkpt>
      <trkpt lat="44.86345" lon="5.70052">
        <ele>654</ele>
        <time>2019-04-18T09:53:58Z</time>
      </trkpt>
      <trkpt lat="44.86341" lon="5.70062">
        <ele>654</ele>
        <time>2019-04-18T09:54:12Z</time>
      </trkpt>
      <trkpt lat="44.86339" lon="5.70078">
        <ele>657</ele>
        <time>2019-04-18T09:54:26Z</time>
      </trkpt>
      <trkpt lat="44.86336" lon="5.70096">
        <ele>657</ele>
        <time>2019-04-18T09:54:39Z</time>
      </trkpt>
      <trkpt lat="44.86338" lon="5.70111">
        <ele>656</ele>
        <time>2019-04-18T09:54:53Z</time>
      </trkpt>
      <trkpt lat="44.86341" lon="5.70134">
        <ele>656</ele>
        <time>2019-04-18T09:55:11Z</time>
      </trkpt>
      <trkpt lat="44.86347" lon="5.70148">
        <ele>657</ele>
        <time>2019-04-18T09:55:24Z</time>
      </trkpt>
      <trkpt lat="44.86352" lon="5.70162">
        <ele>658</ele>
        <time>2019-04-18T09:55:37Z</time>
      </trkpt>
      <trkpt lat="44.86352" lon="5.70163">
        <ele>658</ele>
        <time>2019-04-18T09:55:38Z</time>
      </trkpt>
      <trkpt lat="44.86353" lon="5.70164">
        <ele>658</ele>
        <time>2019-04-18T09:55:39Z</time>
      </trkpt>
      <trkpt lat="44.86354" lon="5.70172">
        <ele>661</ele>
        <time>2019-04-18T09:55:53Z</time>
      </trkpt>
      <trkpt lat="44.86355" lon="5.70187">
        <ele>661</ele>
        <time>2019-04-18T09:56:06Z</time>
      </trkpt>
      <trkpt lat="44.86354" lon="5.70196">
        <ele>662</ele>
        <time>2019-04-18T09:56:18Z</time>
      </trkpt>
      <trkpt lat="44.86353" lon="5.70197">
        <ele>662</ele>
        <time>2019-04-18T09:56:20Z</time>
      </trkpt>
      <trkpt lat="44.86353" lon="5.70198">
        <ele>662</ele>
        <time>2019-04-18T09:56:21Z</time>
      </trkpt>
      <trkpt lat="44.86353" lon="5.70199">
        <ele>662</ele>
        <time>2019-04-18T09:56:22Z</time>
      </trkpt>
      <trkpt lat="44.86352" lon="5.70207">
        <ele>662</ele>
        <time>2019-04-18T09:56:29Z</time>
      </trkpt>
      <trkpt lat="44.86356" lon="5.70224">
        <ele>663</ele>
        <time>2019-04-18T09:56:41Z</time>
      </trkpt>
      <trkpt lat="44.8636" lon="5.70235">
        <ele>664</ele>
        <time>2019-04-18T09:56:53Z</time>
      </trkpt>
      <trkpt lat="44.86364" lon="5.7024">
        <ele>664</ele>
        <time>2019-04-18T09:57:02Z</time>
      </trkpt>
      <trkpt lat="44.86364" lon="5.7024">
        <ele>664</ele>
        <time>2019-04-18T09:57:03Z</time>
      </trkpt>
      <trkpt lat="44.86366" lon="5.70241">
        <ele>663</ele>
        <time>2019-04-18T09:57:05Z</time>
      </trkpt>
      <trkpt lat="44.86377" lon="5.70245">
        <ele>662</ele>
        <time>2019-04-18T09:57:18Z</time>
      </trkpt>
      <trkpt lat="44.86387" lon="5.7025">
        <ele>661</ele>
        <time>2019-04-18T09:57:31Z</time>
      </trkpt>
      <trkpt lat="44.86394" lon="5.70253">
        <ele>663</ele>
        <time>2019-04-18T09:57:44Z</time>
      </trkpt>
      <trkpt lat="44.86402" lon="5.7026">
        <ele>661</ele>
        <time>2019-04-18T09:57:57Z</time>
      </trkpt>
      <trkpt lat="44.86404" lon="5.70275">
        <ele>663</ele>
        <time>2019-04-18T09:58:11Z</time>
      </trkpt>
      <trkpt lat="44.86402" lon="5.70278">
        <ele>663</ele>
        <time>2019-04-18T09:58:22Z</time>
      </trkpt>
      <trkpt lat="44.86402" lon="5.70278">
        <ele>663</ele>
        <time>2019-04-18T09:58:39Z</time>
      </trkpt>
      <trkpt lat="44.86402" lon="5.70278">
        <ele>663</ele>
        <time>2019-04-18T09:59:02Z</time>
      </trkpt>
      <trkpt lat="44.864" lon="5.70278">
        <ele>663</ele>
        <time>2019-04-18T09:59:21Z</time>
      </trkpt>
      <trkpt lat="44.864" lon="5.70278">
        <ele>663</ele>
        <time>2019-04-18T09:59:44Z</time>
      </trkpt>
      <trkpt lat="44.86401" lon="5.70279">
        <ele>663</ele>
        <time>2019-04-18T10:00:10Z</time>
      </trkpt>
      <trkpt lat="44.86401" lon="5.70279">
        <ele>663</ele>
        <time>2019-04-18T10:00:38Z</time>
      </trkpt>
      <trkpt lat="44.86401" lon="5.70279">
        <ele>663</ele>
        <time>2019-04-18T10:01:09Z</time>
      </trkpt>
      <trkpt lat="44.864" lon="5.7028">
        <ele>663</ele>
        <time>2019-04-18T10:01:35Z</time>
      </trkpt>
      <trkpt lat="44.86397" lon="5.70282">
        <ele>664</ele>
        <time>2019-04-18T10:01:39Z</time>
      </trkpt>
      <trkpt lat="44.86395" lon="5.70282">
        <ele>664</ele>
        <time>2019-04-18T10:01:41Z</time>
      </trkpt>
      <trkpt lat="44.8639" lon="5.70284">
        <ele>664</ele>
        <time>2019-04-18T10:01:47Z</time>
      </trkpt>
      <trkpt lat="44.86385" lon="5.70287">
        <ele>665</ele>
        <time>2019-04-18T10:01:52Z</time>
      </trkpt>
      <trkpt lat="44.86376" lon="5.7029">
        <ele>666</ele>
        <time>2019-04-18T10:02:01Z</time>
      </trkpt>
      <trkpt lat="44.86371" lon="5.703">
        <ele>667</ele>
        <time>2019-04-18T10:02:11Z</time>
      </trkpt>
      <trkpt lat="44.86371" lon="5.7031">
        <ele>667</ele>
        <time>2019-04-18T10:02:18Z</time>
      </trkpt>
      <trkpt lat="44.86374" lon="5.70322">
        <ele>667</ele>
        <time>2019-04-18T10:02:29Z</time>
      </trkpt>
      <trkpt lat="44.8638" lon="5.70328">
        <ele>666</ele>
        <time>2019-04-18T10:02:35Z</time>
      </trkpt>
      <trkpt lat="44.86385" lon="5.70346">
        <ele>664</ele>
        <time>2019-04-18T10:02:48Z</time>
      </trkpt>
      <trkpt lat="44.86386" lon="5.70349">
        <ele>664</ele>
        <time>2019-04-18T10:02:50Z</time>
      </trkpt>
      <trkpt lat="44.86388" lon="5.70356">
        <ele>663</ele>
        <time>2019-04-18T10:02:56Z</time>
      </trkpt>
      <trkpt lat="44.86391" lon="5.70371">
        <ele>663</ele>
        <time>2019-04-18T10:03:08Z</time>
      </trkpt>
      <trkpt lat="44.86391" lon="5.70373">
        <ele>663</ele>
        <time>2019-04-18T10:03:09Z</time>
      </trkpt>
      <trkpt lat="44.86397" lon="5.70389">
        <ele>660</ele>
        <time>2019-04-18T10:03:20Z</time>
      </trkpt>
      <trkpt lat="44.86398" lon="5.70396">
        <ele>659</ele>
        <time>2019-04-18T10:03:25Z</time>
      </trkpt>
      <trkpt lat="44.86397" lon="5.704">
        <ele>659</ele>
        <time>2019-04-18T10:03:28Z</time>
      </trkpt>
      <trkpt lat="44.86391" lon="5.70413">
        <ele>660</ele>
        <time>2019-04-18T10:03:42Z</time>
      </trkpt>
      <trkpt lat="44.86384" lon="5.70426">
        <ele>659</ele>
        <time>2019-04-18T10:03:59Z</time>
      </trkpt>
      <trkpt lat="44.86378" lon="5.70439">
        <ele>661</ele>
        <time>2019-04-18T10:04:12Z</time>
      </trkpt>
      <trkpt lat="44.86373" lon="5.70456">
        <ele>661</ele>
        <time>2019-04-18T10:04:27Z</time>
      </trkpt>
      <trkpt lat="44.86374" lon="5.70462">
        <ele>660</ele>
        <time>2019-04-18T10:04:37Z</time>
      </trkpt>
      <trkpt lat="44.86377" lon="5.7048">
        <ele>659</ele>
        <time>2019-04-18T10:04:49Z</time>
      </trkpt>
      <trkpt lat="44.86379" lon="5.70486">
        <ele>659</ele>
        <time>2019-04-18T10:04:54Z</time>
      </trkpt>
      <trkpt lat="44.86385" lon="5.70499">
        <ele>657</ele>
        <time>2019-04-18T10:05:06Z</time>
      </trkpt>
      <trkpt lat="44.86386" lon="5.70504">
        <ele>658</ele>
        <time>2019-04-18T10:05:10Z</time>
      </trkpt>
      <trkpt lat="44.86387" lon="5.70516">
        <ele>658</ele>
        <time>2019-04-18T10:05:17Z</time>
      </trkpt>
      <trkpt lat="44.86388" lon="5.70519">
        <ele>658</ele>
        <time>2019-04-18T10:05:19Z</time>
      </trkpt>
      <trkpt lat="44.86398" lon="5.70532">
        <ele>658</ele>
        <time>2019-04-18T10:05:32Z</time>
      </trkpt>
      <trkpt lat="44.86406" lon="5.70541">
        <ele>658</ele>
        <time>2019-04-18T10:05:43Z</time>
      </trkpt>
      <trkpt lat="44.86407" lon="5.70544">
        <ele>658</ele>
        <time>2019-04-18T10:05:45Z</time>
      </trkpt>
      <trkpt lat="44.86416" lon="5.70562">
        <ele>657</ele>
        <time>2019-04-18T10:05:58Z</time>
      </trkpt>
      <trkpt lat="44.86425" lon="5.70574">
        <ele>647</ele>
        <time>2019-04-18T10:06:13Z</time>
      </trkpt>
      <trkpt lat="44.86433" lon="5.70586">
        <ele>649</ele>
        <time>2019-04-18T10:06:25Z</time>
      </trkpt>
      <trkpt lat="44.86442" lon="5.70602">
        <ele>648</ele>
        <time>2019-04-18T10:06:40Z</time>
      </trkpt>
      <trkpt lat="44.86442" lon="5.70606">
        <ele>648</ele>
        <time>2019-04-18T10:06:43Z</time>
      </trkpt>
      <trkpt lat="44.86443" lon="5.70613">
        <ele>648</ele>
        <time>2019-04-18T10:06:48Z</time>
      </trkpt>
      <trkpt lat="44.86444" lon="5.70617">
        <ele>648</ele>
        <time>2019-04-18T10:06:51Z</time>
      </trkpt>
      <trkpt lat="44.86444" lon="5.70621">
        <ele>648</ele>
        <time>2019-04-18T10:06:54Z</time>
      </trkpt>
      <trkpt lat="44.86448" lon="5.7064">
        <ele>650</ele>
        <time>2019-04-18T10:07:06Z</time>
      </trkpt>
      <trkpt lat="44.86448" lon="5.70644">
        <ele>650</ele>
        <time>2019-04-18T10:07:09Z</time>
      </trkpt>
      <trkpt lat="44.86445" lon="5.70657">
        <ele>652</ele>
        <time>2019-04-18T10:07:16Z</time>
      </trkpt>
      <trkpt lat="44.86447" lon="5.70669">
        <ele>658</ele>
        <time>2019-04-18T10:07:26Z</time>
      </trkpt>
      <trkpt lat="44.8645" lon="5.7068">
        <ele>657</ele>
        <time>2019-04-18T10:07:33Z</time>
      </trkpt>
      <trkpt lat="44.86457" lon="5.70694">
        <ele>656</ele>
        <time>2019-04-18T10:07:46Z</time>
      </trkpt>
      <trkpt lat="44.86465" lon="5.70705">
        <ele>655</ele>
        <time>2019-04-18T10:07:55Z</time>
      </trkpt>
      <trkpt lat="44.8647" lon="5.7071">
        <ele>655</ele>
        <time>2019-04-18T10:08:00Z</time>
      </trkpt>
      <trkpt lat="44.86474" lon="5.70713">
        <ele>654</ele>
        <time>2019-04-18T10:08:04Z</time>
      </trkpt>
      <trkpt lat="44.8648" lon="5.70718">
        <ele>654</ele>
        <time>2019-04-18T10:08:12Z</time>
      </trkpt>
      <trkpt lat="44.86491" lon="5.70722">
        <ele>653</ele>
        <time>2019-04-18T10:08:25Z</time>
      </trkpt>
      <trkpt lat="44.86492" lon="5.70721">
        <ele>653</ele>
        <time>2019-04-18T10:08:26Z</time>
      </trkpt>
      <trkpt lat="44.86493" lon="5.7072">
        <ele>653</ele>
        <time>2019-04-18T10:08:27Z</time>
      </trkpt>
      <trkpt lat="44.86495" lon="5.70718">
        <ele>653</ele>
        <time>2019-04-18T10:08:29Z</time>
      </trkpt>
      <trkpt lat="44.86496" lon="5.70718">
        <ele>653</ele>
        <time>2019-04-18T10:08:30Z</time>
      </trkpt>
      <trkpt lat="44.86497" lon="5.70717">
        <ele>652</ele>
        <time>2019-04-18T10:08:32Z</time>
      </trkpt>
      <trkpt lat="44.86498" lon="5.70717">
        <ele>652</ele>
        <time>2019-04-18T10:08:33Z</time>
      </trkpt>
      <trkpt lat="44.86499" lon="5.70716">
        <ele>652</ele>
        <time>2019-04-18T10:08:34Z</time>
      </trkpt>
      <trkpt lat="44.86499" lon="5.70716">
        <ele>652</ele>
        <time>2019-04-18T10:08:35Z</time>
      </trkpt>
      <trkpt lat="44.86499" lon="5.70714">
        <ele>652</ele>
        <time>2019-04-18T10:08:37Z</time>
      </trkpt>
      <trkpt lat="44.865" lon="5.70714">
        <ele>652</ele>
        <time>2019-04-18T10:08:38Z</time>
      </trkpt>
      <trkpt lat="44.865" lon="5.70713">
        <ele>652</ele>
        <time>2019-04-18T10:08:39Z</time>
      </trkpt>
      <trkpt lat="44.865" lon="5.70713">
        <ele>652</ele>
        <time>2019-04-18T10:08:40Z</time>
      </trkpt>
      <trkpt lat="44.865" lon="5.70713">
        <ele>652</ele>
        <time>2019-04-18T10:08:41Z</time>
      </trkpt>
      <trkpt lat="44.865" lon="5.70713">
        <ele>645</ele>
        <time>2019-04-18T10:08:42Z</time>
      </trkpt>
      <trkpt lat="44.865" lon="5.70713">
        <ele>645</ele>
        <time>2019-04-18T10:08:43Z</time>
      </trkpt>
      <trkpt lat="44.865" lon="5.70714">
        <ele>645</ele>
        <time>2019-04-18T10:08:45Z</time>
      </trkpt>
      <trkpt lat="44.86504" lon="5.70711">
        <ele>645</ele>
        <time>2019-04-18T10:08:54Z</time>
      </trkpt>
      <trkpt lat="44.86505" lon="5.7071">
        <ele>645</ele>
        <time>2019-04-18T10:08:55Z</time>
      </trkpt>
      <trkpt lat="44.86505" lon="5.7071">
        <ele>645</ele>
        <time>2019-04-18T10:08:56Z</time>
      </trkpt>
      <trkpt lat="44.86506" lon="5.70709">
        <ele>645</ele>
        <time>2019-04-18T10:08:57Z</time>
      </trkpt>
      <trkpt lat="44.86507" lon="5.70709">
        <ele>645</ele>
        <time>2019-04-18T10:08:58Z</time>
      </trkpt>
      <trkpt lat="44.86508" lon="5.70708">
        <ele>645</ele>
        <time>2019-04-18T10:08:59Z</time>
      </trkpt>
      <trkpt lat="44.86509" lon="5.70708">
        <ele>645</ele>
        <time>2019-04-18T10:09:00Z</time>
      </trkpt>
      <trkpt lat="44.86513" lon="5.70707">
        <ele>645</ele>
        <time>2019-04-18T10:09:06Z</time>
      </trkpt>
      <trkpt lat="44.86514" lon="5.70707">
        <ele>645</ele>
        <time>2019-04-18T10:09:07Z</time>
      </trkpt>
      <trkpt lat="44.86514" lon="5.70706">
        <ele>645</ele>
        <time>2019-04-18T10:09:08Z</time>
      </trkpt>
      <trkpt lat="44.86515" lon="5.70706">
        <ele>645</ele>
        <time>2019-04-18T10:09:09Z</time>
      </trkpt>
      <trkpt lat="44.8652" lon="5.70697">
        <ele>644</ele>
        <time>2019-04-18T10:09:22Z</time>
      </trkpt>
      <trkpt lat="44.8652" lon="5.70697">
        <ele>644</ele>
        <time>2019-04-18T10:09:23Z</time>
      </trkpt>
      <trkpt lat="44.8652" lon="5.70696">
        <ele>644</ele>
        <time>2019-04-18T10:09:24Z</time>
      </trkpt>
      <trkpt lat="44.86521" lon="5.70696">
        <ele>644</ele>
        <time>2019-04-18T10:09:26Z</time>
      </trkpt>
      <trkpt lat="44.86523" lon="5.70687">
        <ele>643</ele>
        <time>2019-04-18T10:09:39Z</time>
      </trkpt>
      <trkpt lat="44.86523" lon="5.70686">
        <ele>643</ele>
        <time>2019-04-18T10:09:40Z</time>
      </trkpt>
      <trkpt lat="44.86523" lon="5.70685">
        <ele>643</ele>
        <time>2019-04-18T10:09:41Z</time>
      </trkpt>
      <trkpt lat="44.86524" lon="5.70685">
        <ele>643</ele>
        <time>2019-04-18T10:09:43Z</time>
      </trkpt>
      <trkpt lat="44.86524" lon="5.70684">
        <ele>643</ele>
        <time>2019-04-18T10:09:45Z</time>
      </trkpt>
      <trkpt lat="44.86538" lon="5.70663">
        <ele>634</ele>
        <time>2019-04-18T10:09:58Z</time>
      </trkpt>
      <trkpt lat="44.86545" lon="5.70651">
        <ele>633</ele>
        <time>2019-04-18T10:10:08Z</time>
      </trkpt>
      <trkpt lat="44.86547" lon="5.70644">
        <ele>633</ele>
        <time>2019-04-18T10:10:13Z</time>
      </trkpt>
      <trkpt lat="44.86548" lon="5.70643">
        <ele>633</ele>
        <time>2019-04-18T10:10:14Z</time>
      </trkpt>
      <trkpt lat="44.86551" lon="5.70639">
        <ele>632</ele>
        <time>2019-04-18T10:10:18Z</time>
      </trkpt>
      <trkpt lat="44.86553" lon="5.7063">
        <ele>631</ele>
        <time>2019-04-18T10:10:29Z</time>
      </trkpt>
      <trkpt lat="44.86561" lon="5.70623">
        <ele>631</ele>
        <time>2019-04-18T10:10:38Z</time>
      </trkpt>
      <trkpt lat="44.86566" lon="5.70617">
        <ele>630</ele>
        <time>2019-04-18T10:10:45Z</time>
      </trkpt>
      <trkpt lat="44.86566" lon="5.70615">
        <ele>629</ele>
        <time>2019-04-18T10:10:46Z</time>
      </trkpt>
      <trkpt lat="44.86568" lon="5.70609">
        <ele>628</ele>
        <time>2019-04-18T10:10:53Z</time>
      </trkpt>
      <trkpt lat="44.86572" lon="5.70603">
        <ele>627</ele>
        <time>2019-04-18T10:11:05Z</time>
      </trkpt>
      <trkpt lat="44.86573" lon="5.70602">
        <ele>627</ele>
        <time>2019-04-18T10:11:06Z</time>
      </trkpt>
      <trkpt lat="44.8658" lon="5.70595">
        <ele>624</ele>
        <time>2019-04-18T10:11:18Z</time>
      </trkpt>
      <trkpt lat="44.86581" lon="5.70594">
        <ele>624</ele>
        <time>2019-04-18T10:11:20Z</time>
      </trkpt>
      <trkpt lat="44.86589" lon="5.70586">
        <ele>620</ele>
        <time>2019-04-18T10:11:31Z</time>
      </trkpt>
      <trkpt lat="44.86592" lon="5.7058">
        <ele>616</ele>
        <time>2019-04-18T10:11:37Z</time>
      </trkpt>
      <trkpt lat="44.86599" lon="5.70568">
        <ele>612</ele>
        <time>2019-04-18T10:11:48Z</time>
      </trkpt>
      <trkpt lat="44.86601" lon="5.70568">
        <ele>612</ele>
        <time>2019-04-18T10:11:49Z</time>
      </trkpt>
      <trkpt lat="44.8661" lon="5.70554">
        <ele>609</ele>
        <time>2019-04-18T10:12:01Z</time>
      </trkpt>
      <trkpt lat="44.8662" lon="5.70547">
        <ele>607</ele>
        <time>2019-04-18T10:12:14Z</time>
      </trkpt>
      <trkpt lat="44.86628" lon="5.70543">
        <ele>606</ele>
        <time>2019-04-18T10:12:25Z</time>
      </trkpt>
      <trkpt lat="44.86635" lon="5.70541">
        <ele>605</ele>
        <time>2019-04-18T10:12:34Z</time>
      </trkpt>
      <trkpt lat="44.86648" lon="5.70539">
        <ele>604</ele>
        <time>2019-04-18T10:12:44Z</time>
      </trkpt>
      <trkpt lat="44.86663" lon="5.70543">
        <ele>604</ele>
        <time>2019-04-18T10:12:59Z</time>
      </trkpt>
      <trkpt lat="44.86675" lon="5.70554">
        <ele>589</ele>
        <time>2019-04-18T10:13:12Z</time>
      </trkpt>
      <trkpt lat="44.86676" lon="5.70561">
        <ele>591</ele>
        <time>2019-04-18T10:13:24Z</time>
      </trkpt>
      <trkpt lat="44.86677" lon="5.70566">
        <ele>592</ele>
        <time>2019-04-18T10:13:28Z</time>
      </trkpt>
      <trkpt lat="44.86677" lon="5.7057">
        <ele>594</ele>
        <time>2019-04-18T10:13:31Z</time>
      </trkpt>
      <trkpt lat="44.86677" lon="5.70572">
        <ele>595</ele>
        <time>2019-04-18T10:13:32Z</time>
      </trkpt>
      <trkpt lat="44.86678" lon="5.70573">
        <ele>595</ele>
        <time>2019-04-18T10:13:33Z</time>
      </trkpt>
      <trkpt lat="44.86677" lon="5.70575">
        <ele>596</ele>
        <time>2019-04-18T10:13:34Z</time>
      </trkpt>
      <trkpt lat="44.86677" lon="5.70577">
        <ele>597</ele>
        <time>2019-04-18T10:13:35Z</time>
      </trkpt>
      <trkpt lat="44.86677" lon="5.70579">
        <ele>598</ele>
        <time>2019-04-18T10:13:37Z</time>
      </trkpt>
      <trkpt lat="44.86676" lon="5.70582">
        <ele>599</ele>
        <time>2019-04-18T10:13:39Z</time>
      </trkpt>
      <trkpt lat="44.86676" lon="5.70584">
        <ele>602</ele>
        <time>2019-04-18T10:13:41Z</time>
      </trkpt>
      <trkpt lat="44.86678" lon="5.70595">
        <ele>599</ele>
        <time>2019-04-18T10:13:51Z</time>
      </trkpt>
      <trkpt lat="44.86678" lon="5.70596">
        <ele>599</ele>
        <time>2019-04-18T10:13:52Z</time>
      </trkpt>
      <trkpt lat="44.86678" lon="5.70597">
        <ele>599</ele>
        <time>2019-04-18T10:13:53Z</time>
      </trkpt>
      <trkpt lat="44.86678" lon="5.70599">
        <ele>599</ele>
        <time>2019-04-18T10:13:54Z</time>
      </trkpt>
      <trkpt lat="44.86678" lon="5.706">
        <ele>599</ele>
        <time>2019-04-18T10:13:55Z</time>
      </trkpt>
      <trkpt lat="44.86677" lon="5.706">
        <ele>598</ele>
        <time>2019-04-18T10:13:56Z</time>
      </trkpt>
      <trkpt lat="44.86683" lon="5.70616">
        <ele>596</ele>
        <time>2019-04-18T10:14:07Z</time>
      </trkpt>
      <trkpt lat="44.86687" lon="5.70629">
        <ele>596</ele>
        <time>2019-04-18T10:14:17Z</time>
      </trkpt>
      <trkpt lat="44.86688" lon="5.70635">
        <ele>596</ele>
        <time>2019-04-18T10:14:22Z</time>
      </trkpt>
      <trkpt lat="44.86688" lon="5.70635">
        <ele>596</ele>
        <time>2019-04-18T10:14:23Z</time>
      </trkpt>
      <trkpt lat="44.86688" lon="5.70636">
        <ele>596</ele>
        <time>2019-04-18T10:14:24Z</time>
      </trkpt>
      <trkpt lat="44.86688" lon="5.70638">
        <ele>597</ele>
        <time>2019-04-18T10:14:25Z</time>
      </trkpt>
      <trkpt lat="44.86688" lon="5.70639">
        <ele>597</ele>
        <time>2019-04-18T10:14:26Z</time>
      </trkpt>
      <trkpt lat="44.8669" lon="5.7065">
        <ele>598</ele>
        <time>2019-04-18T10:14:34Z</time>
      </trkpt>
      <trkpt lat="44.8669" lon="5.70651">
        <ele>598</ele>
        <time>2019-04-18T10:14:35Z</time>
      </trkpt>
      <trkpt lat="44.8669" lon="5.70652">
        <ele>599</ele>
        <time>2019-04-18T10:14:36Z</time>
      </trkpt>
      <trkpt lat="44.8669" lon="5.70655">
        <ele>599</ele>
        <time>2019-04-18T10:14:38Z</time>
      </trkpt>
      <trkpt lat="44.86692" lon="5.70662">
        <ele>599</ele>
        <time>2019-04-18T10:14:43Z</time>
      </trkpt>
      <trkpt lat="44.86693" lon="5.70663">
        <ele>599</ele>
        <time>2019-04-18T10:14:44Z</time>
      </trkpt>
      <trkpt lat="44.86693" lon="5.70663">
        <ele>599</ele>
        <time>2019-04-18T10:14:45Z</time>
      </trkpt>
      <trkpt lat="44.86694" lon="5.70664">
        <ele>598</ele>
        <time>2019-04-18T10:14:46Z</time>
      </trkpt>
      <trkpt lat="44.86694" lon="5.70665">
        <ele>598</ele>
        <time>2019-04-18T10:14:47Z</time>
      </trkpt>
      <trkpt lat="44.86694" lon="5.70665">
        <ele>598</ele>
        <time>2019-04-18T10:14:48Z</time>
      </trkpt>
      <trkpt lat="44.86694" lon="5.70666">
        <ele>598</ele>
        <time>2019-04-18T10:14:49Z</time>
      </trkpt>
      <trkpt lat="44.86695" lon="5.70666">
        <ele>598</ele>
        <time>2019-04-18T10:14:50Z</time>
      </trkpt>
      <trkpt lat="44.86695" lon="5.70666">
        <ele>598</ele>
        <time>2019-04-18T10:14:51Z</time>
      </trkpt>
      <trkpt lat="44.86695" lon="5.70667">
        <ele>601</ele>
        <time>2019-04-18T10:14:52Z</time>
      </trkpt>
      <trkpt lat="44.86695" lon="5.70667">
        <ele>601</ele>
        <time>2019-04-18T10:14:53Z</time>
      </trkpt>
      <trkpt lat="44.86695" lon="5.70667">
        <ele>601</ele>
        <time>2019-04-18T10:14:54Z</time>
      </trkpt>
      <trkpt lat="44.86695" lon="5.70667">
        <ele>601</ele>
        <time>2019-04-18T10:14:55Z</time>
      </trkpt>
      <trkpt lat="44.86695" lon="5.70668">
        <ele>601</ele>
        <time>2019-04-18T10:14:56Z</time>
      </trkpt>
      <trkpt lat="44.86695" lon="5.70668">
        <ele>601</ele>
        <time>2019-04-18T10:14:57Z</time>
      </trkpt>
      <trkpt lat="44.86695" lon="5.70668">
        <ele>601</ele>
        <time>2019-04-18T10:14:58Z</time>
      </trkpt>
      <trkpt lat="44.86695" lon="5.70669">
        <ele>601</ele>
        <time>2019-04-18T10:14:59Z</time>
      </trkpt>
      <trkpt lat="44.86696" lon="5.70669">
        <ele>601</ele>
        <time>2019-04-18T10:15:00Z</time>
      </trkpt>
      <trkpt lat="44.86696" lon="5.70669">
        <ele>601</ele>
        <time>2019-04-18T10:15:01Z</time>
      </trkpt>
      <trkpt lat="44.86696" lon="5.70669">
        <ele>601</ele>
        <time>2019-04-18T10:15:02Z</time>
      </trkpt>
      <trkpt lat="44.86696" lon="5.7067">
        <ele>601</ele>
        <time>2019-04-18T10:15:03Z</time>
      </trkpt>
      <trkpt lat="44.86697" lon="5.7067">
        <ele>600</ele>
        <time>2019-04-18T10:15:04Z</time>
      </trkpt>
      <trkpt lat="44.86699" lon="5.70674">
        <ele>599</ele>
        <time>2019-04-18T10:15:07Z</time>
      </trkpt>
      <trkpt lat="44.867" lon="5.70675">
        <ele>599</ele>
        <time>2019-04-18T10:15:08Z</time>
      </trkpt>
      <trkpt lat="44.86702" lon="5.70678">
        <ele>598</ele>
        <time>2019-04-18T10:15:10Z</time>
      </trkpt>
      <trkpt lat="44.86702" lon="5.70679">
        <ele>598</ele>
        <time>2019-04-18T10:15:11Z</time>
      </trkpt>
      <trkpt lat="44.86703" lon="5.7068">
        <ele>597</ele>
        <time>2019-04-18T10:15:12Z</time>
      </trkpt>
      <trkpt lat="44.86704" lon="5.70682">
        <ele>597</ele>
        <time>2019-04-18T10:15:15Z</time>
      </trkpt>
      <trkpt lat="44.86704" lon="5.70682">
        <ele>597</ele>
        <time>2019-04-18T10:15:16Z</time>
      </trkpt>
      <trkpt lat="44.86704" lon="5.70682">
        <ele>597</ele>
        <time>2019-04-18T10:15:17Z</time>
      </trkpt>
      <trkpt lat="44.86705" lon="5.70683">
        <ele>597</ele>
        <time>2019-04-18T10:15:18Z</time>
      </trkpt>
      <trkpt lat="44.86704" lon="5.70684">
        <ele>597</ele>
        <time>2019-04-18T10:15:19Z</time>
      </trkpt>
      <trkpt lat="44.86705" lon="5.70686">
        <ele>597</ele>
        <time>2019-04-18T10:15:20Z</time>
      </trkpt>
      <trkpt lat="44.86709" lon="5.70698">
        <ele>595</ele>
        <time>2019-04-18T10:15:27Z</time>
      </trkpt>
      <trkpt lat="44.8671" lon="5.707">
        <ele>595</ele>
        <time>2019-04-18T10:15:29Z</time>
      </trkpt>
      <trkpt lat="44.8671" lon="5.70701">
        <ele>595</ele>
        <time>2019-04-18T10:15:30Z</time>
      </trkpt>
      <trkpt lat="44.86711" lon="5.70702">
        <ele>595</ele>
        <time>2019-04-18T10:15:32Z</time>
      </trkpt>
      <trkpt lat="44.86712" lon="5.70703">
        <ele>594</ele>
        <time>2019-04-18T10:15:34Z</time>
      </trkpt>
      <trkpt lat="44.86713" lon="5.70703">
        <ele>594</ele>
        <time>2019-04-18T10:15:37Z</time>
      </trkpt>
      <trkpt lat="44.86716" lon="5.70695">
        <ele>593</ele>
        <time>2019-04-18T10:15:49Z</time>
      </trkpt>
      <trkpt lat="44.86721" lon="5.70692">
        <ele>590</ele>
        <time>2019-04-18T10:16:07Z</time>
      </trkpt>
      <trkpt lat="44.86721" lon="5.70691">
        <ele>590</ele>
        <time>2019-04-18T10:16:10Z</time>
      </trkpt>
      <trkpt lat="44.86721" lon="5.70692">
        <ele>590</ele>
        <time>2019-04-18T10:16:11Z</time>
      </trkpt>
      <trkpt lat="44.86721" lon="5.70692">
        <ele>590</ele>
        <time>2019-04-18T10:16:12Z</time>
      </trkpt>
      <trkpt lat="44.86721" lon="5.70691">
        <ele>590</ele>
        <time>2019-04-18T10:16:26Z</time>
      </trkpt>
      <trkpt lat="44.8672" lon="5.70691">
        <ele>591</ele>
        <time>2019-04-18T10:16:48Z</time>
      </trkpt>
      <trkpt lat="44.8672" lon="5.70692">
        <ele>591</ele>
        <time>2019-04-18T10:17:11Z</time>
      </trkpt>
      <trkpt lat="44.8672" lon="5.70692">
        <ele>591</ele>
        <time>2019-04-18T10:17:39Z</time>
      </trkpt>
      <trkpt lat="44.86718" lon="5.70677">
        <ele>590</ele>
        <time>2019-04-18T10:17:52Z</time>
      </trkpt>
      <trkpt lat="44.86716" lon="5.70664">
        <ele>587</ele>
        <time>2019-04-18T10:18:03Z</time>
      </trkpt>
      <trkpt lat="44.86714" lon="5.70639">
        <ele>588</ele>
        <time>2019-04-18T10:18:16Z</time>
      </trkpt>
      <trkpt lat="44.86713" lon="5.70628">
        <ele>588</ele>
        <time>2019-04-18T10:18:23Z</time>
      </trkpt>
      <trkpt lat="44.86711" lon="5.70612">
        <ele>588</ele>
        <time>2019-04-18T10:18:34Z</time>
      </trkpt>
      <trkpt lat="44.86713" lon="5.70601">
        <ele>587</ele>
        <time>2019-04-18T10:18:43Z</time>
      </trkpt>
      <trkpt lat="44.86718" lon="5.70603">
        <ele>585</ele>
        <time>2019-04-18T10:18:53Z</time>
      </trkpt>
      <trkpt lat="44.8672" lon="5.70604">
        <ele>585</ele>
        <time>2019-04-18T10:18:56Z</time>
      </trkpt>
      <trkpt lat="44.86722" lon="5.70615">
        <ele>585</ele>
        <time>2019-04-18T10:19:08Z</time>
      </trkpt>
      <trkpt lat="44.86723" lon="5.70624">
        <ele>585</ele>
        <time>2019-04-18T10:19:14Z</time>
      </trkpt>
      <trkpt lat="44.86725" lon="5.70634">
        <ele>585</ele>
        <time>2019-04-18T10:19:20Z</time>
      </trkpt>
      <trkpt lat="44.86728" lon="5.70649">
        <ele>583</ele>
        <time>2019-04-18T10:19:31Z</time>
      </trkpt>
      <trkpt lat="44.86727" lon="5.70654">
        <ele>583</ele>
        <time>2019-04-18T10:19:34Z</time>
      </trkpt>
      <trkpt lat="44.86727" lon="5.70658">
        <ele>582</ele>
        <time>2019-04-18T10:19:36Z</time>
      </trkpt>
      <trkpt lat="44.86729" lon="5.70662">
        <ele>581</ele>
        <time>2019-04-18T10:19:38Z</time>
      </trkpt>
      <trkpt lat="44.86733" lon="5.70674">
        <ele>582</ele>
        <time>2019-04-18T10:19:52Z</time>
      </trkpt>
      <trkpt lat="44.86739" lon="5.70685">
        <ele>583</ele>
        <time>2019-04-18T10:20:04Z</time>
      </trkpt>
      <trkpt lat="44.86744" lon="5.70707">
        <ele>586</ele>
        <time>2019-04-18T10:20:15Z</time>
      </trkpt>
      <trkpt lat="44.86746" lon="5.70711">
        <ele>586</ele>
        <time>2019-04-18T10:20:18Z</time>
      </trkpt>
      <trkpt lat="44.86751" lon="5.70718">
        <ele>552</ele>
        <time>2019-04-18T10:20:31Z</time>
      </trkpt>
      <trkpt lat="44.8676" lon="5.70731">
        <ele>553</ele>
        <time>2019-04-18T10:20:44Z</time>
      </trkpt>
      <trkpt lat="44.8677" lon="5.70742">
        <ele>552</ele>
        <time>2019-04-18T10:20:54Z</time>
      </trkpt>
      <trkpt lat="44.86771" lon="5.70743">
        <ele>551</ele>
        <time>2019-04-18T10:21:09Z</time>
      </trkpt>
      <trkpt lat="44.86772" lon="5.70744">
        <ele>551</ele>
        <time>2019-04-18T10:21:10Z</time>
      </trkpt>
      <trkpt lat="44.86778" lon="5.70763">
        <ele>547</ele>
        <time>2019-04-18T10:21:25Z</time>
      </trkpt>
      <trkpt lat="44.86781" lon="5.70775">
        <ele>545</ele>
        <time>2019-04-18T10:21:38Z</time>
      </trkpt>
      <trkpt lat="44.86787" lon="5.70784">
        <ele>542</ele>
        <time>2019-04-18T10:21:48Z</time>
      </trkpt>
      <trkpt lat="44.86787" lon="5.70786">
        <ele>542</ele>
        <time>2019-04-18T10:22:03Z</time>
      </trkpt>
      <trkpt lat="44.86786" lon="5.70786">
        <ele>542</ele>
        <time>2019-04-18T10:22:21Z</time>
      </trkpt>
      <trkpt lat="44.86785" lon="5.70786">
        <ele>542</ele>
        <time>2019-04-18T10:22:36Z</time>
      </trkpt>
      <trkpt lat="44.86785" lon="5.7079">
        <ele>543</ele>
        <time>2019-04-18T10:22:52Z</time>
      </trkpt>
      <trkpt lat="44.86789" lon="5.70794">
        <ele>541</ele>
        <time>2019-04-18T10:23:03Z</time>
      </trkpt>
      <trkpt lat="44.8679" lon="5.70797">
        <ele>540</ele>
        <time>2019-04-18T10:23:06Z</time>
      </trkpt>
      <trkpt lat="44.86796" lon="5.70802">
        <ele>538</ele>
        <time>2019-04-18T10:23:16Z</time>
      </trkpt>
      <trkpt lat="44.86796" lon="5.70802">
        <ele>538</ele>
        <time>2019-04-18T10:23:18Z</time>
      </trkpt>
      <trkpt lat="44.86805" lon="5.70807">
        <ele>534</ele>
        <time>2019-04-18T10:23:28Z</time>
      </trkpt>
      <trkpt lat="44.86811" lon="5.7081">
        <ele>531</ele>
        <time>2019-04-18T10:23:34Z</time>
      </trkpt>
      <trkpt lat="44.8682" lon="5.70817">
        <ele>525</ele>
        <time>2019-04-18T10:23:43Z</time>
      </trkpt>
      <trkpt lat="44.86827" lon="5.70822">
        <ele>519</ele>
        <time>2019-04-18T10:23:49Z</time>
      </trkpt>
      <trkpt lat="44.86833" lon="5.70827">
        <ele>512</ele>
        <time>2019-04-18T10:23:56Z</time>
      </trkpt>
      <trkpt lat="44.86841" lon="5.70836">
        <ele>499</ele>
        <time>2019-04-18T10:24:09Z</time>
      </trkpt>
      <trkpt lat="44.86846" lon="5.70842">
        <ele>497</ele>
        <time>2019-04-18T10:24:23Z</time>
      </trkpt>
      <trkpt lat="44.86854" lon="5.70849">
        <ele>494</ele>
        <time>2019-04-18T10:24:35Z</time>
      </trkpt>
      <trkpt lat="44.86866" lon="5.7086">
        <ele>491</ele>
        <time>2019-04-18T10:24:51Z</time>
      </trkpt>
      <trkpt lat="44.86872" lon="5.70868">
        <ele>490</ele>
        <time>2019-04-18T10:25:03Z</time>
      </trkpt>
      <trkpt lat="44.86877" lon="5.70871">
        <ele>490</ele>
        <time>2019-04-18T10:25:10Z</time>
      </trkpt>
      <trkpt lat="44.86882" lon="5.70875">
        <ele>489</ele>
        <time>2019-04-18T10:25:17Z</time>
      </trkpt>
      <trkpt lat="44.86891" lon="5.70882">
        <ele>489</ele>
        <time>2019-04-18T10:25:29Z</time>
      </trkpt>
      <trkpt lat="44.86893" lon="5.70883">
        <ele>489</ele>
        <time>2019-04-18T10:25:33Z</time>
      </trkpt>
      <trkpt lat="44.86901" lon="5.7089">
        <ele>490</ele>
        <time>2019-04-18T10:25:44Z</time>
      </trkpt>
      <trkpt lat="44.86908" lon="5.70895">
        <ele>490</ele>
        <time>2019-04-18T10:25:55Z</time>
      </trkpt>
      <trkpt lat="44.86915" lon="5.709">
        <ele>491</ele>
        <time>2019-04-18T10:26:06Z</time>
      </trkpt>
      <trkpt lat="44.86923" lon="5.70908">
        <ele>496</ele>
        <time>2019-04-18T10:26:18Z</time>
      </trkpt>
      <trkpt lat="44.86932" lon="5.70916">
        <ele>498</ele>
        <time>2019-04-18T10:26:32Z</time>
      </trkpt>
      <trkpt lat="44.86935" lon="5.70919">
        <ele>510</ele>
        <time>2019-04-18T10:26:45Z</time>
      </trkpt>
      <trkpt lat="44.86942" lon="5.70925">
        <ele>515</ele>
        <time>2019-04-18T10:26:58Z</time>
      </trkpt>
      <trkpt lat="44.86949" lon="5.70932">
        <ele>519</ele>
        <time>2019-04-18T10:27:12Z</time>
      </trkpt>
      <trkpt lat="44.86951" lon="5.70936">
        <ele>521</ele>
        <time>2019-04-18T10:27:23Z</time>
      </trkpt>
      <trkpt lat="44.86965" lon="5.70937">
        <ele>525</ele>
        <time>2019-04-18T10:27:37Z</time>
      </trkpt>
      <trkpt lat="44.86965" lon="5.70937">
        <ele>525</ele>
        <time>2019-04-18T10:27:59Z</time>
      </trkpt>
      <trkpt lat="44.86965" lon="5.70938">
        <ele>525</ele>
        <time>2019-04-18T10:28:18Z</time>
      </trkpt>
      <trkpt lat="44.86966" lon="5.70938">
        <ele>526</ele>
        <time>2019-04-18T10:28:38Z</time>
      </trkpt>
      <trkpt lat="44.86966" lon="5.70938">
        <ele>526</ele>
        <time>2019-04-18T10:28:40Z</time>
      </trkpt>
      <trkpt lat="44.86966" lon="5.70938">
        <ele>526</ele>
        <time>2019-04-18T10:28:41Z</time>
      </trkpt>
      <trkpt lat="44.86966" lon="5.70939">
        <ele>526</ele>
        <time>2019-04-18T10:28:58Z</time>
      </trkpt>
      <trkpt lat="44.86972" lon="5.70946">
        <ele>528</ele>
        <time>2019-04-18T10:29:11Z</time>
      </trkpt>
      <trkpt lat="44.8698" lon="5.70951">
        <ele>530</ele>
        <time>2019-04-18T10:29:27Z</time>
      </trkpt>
      <trkpt lat="44.8699" lon="5.70949">
        <ele>532</ele>
        <time>2019-04-18T10:29:43Z</time>
      </trkpt>
      <trkpt lat="44.87003" lon="5.7094">
        <ele>548</ele>
        <time>2019-04-18T10:29:58Z</time>
      </trkpt>
      <trkpt lat="44.87004" lon="5.70935">
        <ele>546</ele>
        <time>2019-04-18T10:30:18Z</time>
      </trkpt>
      <trkpt lat="44.87004" lon="5.70934">
        <ele>546</ele>
        <time>2019-04-18T10:30:38Z</time>
      </trkpt>
      <trkpt lat="44.87004" lon="5.70931">
        <ele>545</ele>
        <time>2019-04-18T10:30:56Z</time>
      </trkpt>
      <trkpt lat="44.87004" lon="5.70931">
        <ele>544</ele>
        <time>2019-04-18T10:31:13Z</time>
      </trkpt>
      <trkpt lat="44.87004" lon="5.7093">
        <ele>544</ele>
        <time>2019-04-18T10:31:33Z</time>
      </trkpt>
      <trkpt lat="44.87002" lon="5.70929">
        <ele>543</ele>
        <time>2019-04-18T10:31:54Z</time>
      </trkpt>
      <trkpt lat="44.87002" lon="5.70929">
        <ele>543</ele>
        <time>2019-04-18T10:31:56Z</time>
      </trkpt>
      <trkpt lat="44.87002" lon="5.70929">
        <ele>543</ele>
        <time>2019-04-18T10:31:57Z</time>
      </trkpt>
      <trkpt lat="44.87002" lon="5.70929">
        <ele>543</ele>
        <time>2019-04-18T10:31:58Z</time>
      </trkpt>
      <trkpt lat="44.87002" lon="5.70929">
        <ele>543</ele>
        <time>2019-04-18T10:31:59Z</time>
      </trkpt>
      <trkpt lat="44.87002" lon="5.70929">
        <ele>543</ele>
        <time>2019-04-18T10:32:00Z</time>
      </trkpt>
      <trkpt lat="44.87002" lon="5.70928">
        <ele>543</ele>
        <time>2019-04-18T10:32:04Z</time>
      </trkpt>
      <trkpt lat="44.87002" lon="5.70928">
        <ele>543</ele>
        <time>2019-04-18T10:32:05Z</time>
      </trkpt>
      <trkpt lat="44.87003" lon="5.70928">
        <ele>543</ele>
        <time>2019-04-18T10:32:06Z</time>
      </trkpt>
      <trkpt lat="44.87003" lon="5.70928">
        <ele>543</ele>
        <time>2019-04-18T10:32:09Z</time>
      </trkpt>
      <trkpt lat="44.87003" lon="5.70928">
        <ele>543</ele>
        <time>2019-04-18T10:32:10Z</time>
      </trkpt>
      <trkpt lat="44.87003" lon="5.70928">
        <ele>543</ele>
        <time>2019-04-18T10:32:11Z</time>
      </trkpt>
      <trkpt lat="44.87003" lon="5.70928">
        <ele>543</ele>
        <time>2019-04-18T10:32:12Z</time>
      </trkpt>
      <trkpt lat="44.87003" lon="5.70928">
        <ele>543</ele>
        <time>2019-04-18T10:32:13Z</time>
      </trkpt>
      <trkpt lat="44.87003" lon="5.70931">
        <ele>545</ele>
        <time>2019-04-18T10:32:35Z</time>
      </trkpt>
      <trkpt lat="44.87003" lon="5.70931">
        <ele>545</ele>
        <time>2019-04-18T10:32:47Z</time>
      </trkpt>
      <trkpt lat="44.87003" lon="5.70931">
        <ele>545</ele>
        <time>2019-04-18T10:32:48Z</time>
      </trkpt>
      <trkpt lat="44.87003" lon="5.70931">
        <ele>545</ele>
        <time>2019-04-18T10:32:49Z</time>
      </trkpt>
      <trkpt lat="44.87004" lon="5.70931">
        <ele>545</ele>
        <time>2019-04-18T10:33:08Z</time>
      </trkpt>
      <trkpt lat="44.87005" lon="5.70931">
        <ele>545</ele>
        <time>2019-04-18T10:33:31Z</time>
      </trkpt>
      <trkpt lat="44.87005" lon="5.70931">
        <ele>545</ele>
        <time>2019-04-18T10:34:02Z</time>
      </trkpt>
      <trkpt lat="44.87005" lon="5.70931">
        <ele>545</ele>
        <time>2019-04-18T10:34:03Z</time>
      </trkpt>
      <trkpt lat="44.87005" lon="5.70931">
        <ele>545</ele>
        <time>2019-04-18T10:34:05Z</time>
      </trkpt>
      <trkpt lat="44.87005" lon="5.70931">
        <ele>545</ele>
        <time>2019-04-18T10:34:11Z</time>
      </trkpt>
      <trkpt lat="44.87005" lon="5.70931">
        <ele>545</ele>
        <time>2019-04-18T10:34:13Z</time>
      </trkpt>
      <trkpt lat="44.87005" lon="5.70932">
        <ele>545</ele>
        <time>2019-04-18T10:34:34Z</time>
      </trkpt>
      <trkpt lat="44.87006" lon="5.70931">
        <ele>545</ele>
        <time>2019-04-18T10:35:02Z</time>
      </trkpt>
      <trkpt lat="44.87006" lon="5.70931">
        <ele>545</ele>
        <time>2019-04-18T10:35:04Z</time>
      </trkpt>
      <trkpt lat="44.87006" lon="5.70931">
        <ele>545</ele>
        <time>2019-04-18T10:35:05Z</time>
      </trkpt>
      <trkpt lat="44.87006" lon="5.70931">
        <ele>545</ele>
        <time>2019-04-18T10:35:06Z</time>
      </trkpt>
      <trkpt lat="44.87006" lon="5.70931">
        <ele>545</ele>
        <time>2019-04-18T10:35:07Z</time>
      </trkpt>
      <trkpt lat="44.87006" lon="5.70931">
        <ele>545</ele>
        <time>2019-04-18T10:35:08Z</time>
      </trkpt>
      <trkpt lat="44.87006" lon="5.70931">
        <ele>545</ele>
        <time>2019-04-18T10:35:09Z</time>
      </trkpt>
      <trkpt lat="44.87007" lon="5.70929">
        <ele>544</ele>
        <time>2019-04-18T10:35:29Z</time>
      </trkpt>
      <trkpt lat="44.87007" lon="5.70924">
        <ele>542</ele>
        <time>2019-04-18T10:36:02Z</time>
      </trkpt>
      <trkpt lat="44.87007" lon="5.70924">
        <ele>542</ele>
        <time>2019-04-18T10:36:35Z</time>
      </trkpt>
      <trkpt lat="44.87007" lon="5.70924">
        <ele>542</ele>
        <time>2019-04-18T10:37:07Z</time>
      </trkpt>
      <trkpt lat="44.87007" lon="5.70924">
        <ele>542</ele>
        <time>2019-04-18T10:37:36Z</time>
      </trkpt>
      <trkpt lat="44.87007" lon="5.70925">
        <ele>543</ele>
        <time>2019-04-18T10:38:09Z</time>
      </trkpt>
      <trkpt lat="44.87007" lon="5.70924">
        <ele>543</ele>
        <time>2019-04-18T10:38:39Z</time>
      </trkpt>
      <trkpt lat="44.87007" lon="5.70925">
        <ele>543</ele>
        <time>2019-04-18T10:38:42Z</time>
      </trkpt>
      <trkpt lat="44.87008" lon="5.70926">
        <ele>543</ele>
        <time>2019-04-18T10:39:10Z</time>
      </trkpt>
      <trkpt lat="44.87006" lon="5.70925">
        <ele>542</ele>
        <time>2019-04-18T10:39:41Z</time>
      </trkpt>
      <trkpt lat="44.87005" lon="5.70925">
        <ele>542</ele>
        <time>2019-04-18T10:40:08Z</time>
      </trkpt>
      <trkpt lat="44.87005" lon="5.70924">
        <ele>542</ele>
        <time>2019-04-18T10:40:35Z</time>
      </trkpt>
      <trkpt lat="44.87005" lon="5.70924">
        <ele>542</ele>
        <time>2019-04-18T10:41:03Z</time>
      </trkpt>
      <trkpt lat="44.87004" lon="5.70925">
        <ele>542</ele>
        <time>2019-04-18T10:41:26Z</time>
      </trkpt>
      <trkpt lat="44.87004" lon="5.70924">
        <ele>541</ele>
        <time>2019-04-18T10:41:47Z</time>
      </trkpt>
      <trkpt lat="44.87004" lon="5.70922">
        <ele>540</ele>
        <time>2019-04-18T10:42:14Z</time>
      </trkpt>
      <trkpt lat="44.87004" lon="5.70924">
        <ele>541</ele>
        <time>2019-04-18T10:42:46Z</time>
      </trkpt>
      <trkpt lat="44.87004" lon="5.70923">
        <ele>541</ele>
        <time>2019-04-18T10:43:20Z</time>
      </trkpt>
      <trkpt lat="44.87005" lon="5.70924">
        <ele>541</ele>
        <time>2019-04-18T10:43:55Z</time>
      </trkpt>
      <trkpt lat="44.87005" lon="5.70924">
        <ele>542</ele>
        <time>2019-04-18T10:44:17Z</time>
      </trkpt>
      <trkpt lat="44.87005" lon="5.70924">
        <ele>542</ele>
        <time>2019-04-18T10:44:19Z</time>
      </trkpt>
      <trkpt lat="44.87005" lon="5.70925">
        <ele>542</ele>
        <time>2019-04-18T10:44:53Z</time>
      </trkpt>
      <trkpt lat="44.87005" lon="5.70926">
        <ele>542</ele>
        <time>2019-04-18T10:45:20Z</time>
      </trkpt>
      <trkpt lat="44.87005" lon="5.70926">
        <ele>543</ele>
        <time>2019-04-18T10:45:51Z</time>
      </trkpt>
      <trkpt lat="44.87006" lon="5.70923">
        <ele>542</ele>
        <time>2019-04-18T10:46:16Z</time>
      </trkpt>
      <trkpt lat="44.87005" lon="5.70923">
        <ele>541</ele>
        <time>2019-04-18T10:46:47Z</time>
      </trkpt>
      <trkpt lat="44.87005" lon="5.70925">
        <ele>542</ele>
        <time>2019-04-18T10:47:02Z</time>
      </trkpt>
      <trkpt lat="44.87006" lon="5.70926">
        <ele>543</ele>
        <time>2019-04-18T10:47:16Z</time>
      </trkpt>
      <trkpt lat="44.87006" lon="5.70928">
        <ele>544</ele>
        <time>2019-04-18T10:47:41Z</time>
      </trkpt>
      <trkpt lat="44.87005" lon="5.70928">
        <ele>544</ele>
        <time>2019-04-18T10:48:10Z</time>
      </trkpt>
      <trkpt lat="44.87005" lon="5.70931">
        <ele>545</ele>
        <time>2019-04-18T10:48:16Z</time>
      </trkpt>
      <trkpt lat="44.87005" lon="5.70931">
        <ele>545</ele>
        <time>2019-04-18T10:48:32Z</time>
      </trkpt>
      <trkpt lat="44.87005" lon="5.70931">
        <ele>545</ele>
        <time>2019-04-18T10:48:33Z</time>
      </trkpt>
      <trkpt lat="44.87005" lon="5.70931">
        <ele>545</ele>
        <time>2019-04-18T10:48:34Z</time>
      </trkpt>
      <trkpt lat="44.87005" lon="5.70931">
        <ele>545</ele>
        <time>2019-04-18T10:48:36Z</time>
      </trkpt>
      <trkpt lat="44.87005" lon="5.7093">
        <ele>544</ele>
        <time>2019-04-18T10:48:46Z</time>
      </trkpt>
      <trkpt lat="44.87004" lon="5.70928">
        <ele>543</ele>
        <time>2019-04-18T10:49:12Z</time>
      </trkpt>
      <trkpt lat="44.87006" lon="5.70927">
        <ele>543</ele>
        <time>2019-04-18T10:49:34Z</time>
      </trkpt>
      <trkpt lat="44.87009" lon="5.70918">
        <ele>542</ele>
        <time>2019-04-18T10:49:47Z</time>
      </trkpt>
      <trkpt lat="44.8701" lon="5.70918">
        <ele>542</ele>
        <time>2019-04-18T10:50:12Z</time>
      </trkpt>
      <trkpt lat="44.8701" lon="5.70918">
        <ele>542</ele>
        <time>2019-04-18T10:50:19Z</time>
      </trkpt>
      <trkpt lat="44.87007" lon="5.70931">
        <ele>546</ele>
        <time>2019-04-18T10:50:24Z</time>
      </trkpt>
      <trkpt lat="44.86999" lon="5.70946">
        <ele>532</ele>
        <time>2019-04-18T10:50:31Z</time>
      </trkpt>
      <trkpt lat="44.86978" lon="5.70949">
        <ele>529</ele>
        <time>2019-04-18T10:50:42Z</time>
      </trkpt>
      <trkpt lat="44.86975" lon="5.70947">
        <ele>529</ele>
        <time>2019-04-18T10:50:54Z</time>
      </trkpt>
      <trkpt lat="44.86975" lon="5.70946">
        <ele>528</ele>
        <time>2019-04-18T10:51:09Z</time>
      </trkpt>
      <trkpt lat="44.86978" lon="5.70947">
        <ele>529</ele>
        <time>2019-04-18T10:51:21Z</time>
      </trkpt>
      <trkpt lat="44.8698" lon="5.70948">
        <ele>530</ele>
        <time>2019-04-18T10:51:40Z</time>
      </trkpt>
      <trkpt lat="44.8698" lon="5.70948">
        <ele>530</ele>
        <time>2019-04-18T10:52:07Z</time>
      </trkpt>
      <trkpt lat="44.8698" lon="5.70949">
        <ele>530</ele>
        <time>2019-04-18T10:52:31Z</time>
      </trkpt>
      <trkpt lat="44.8698" lon="5.70949">
        <ele>530</ele>
        <time>2019-04-18T10:52:57Z</time>
      </trkpt>
      <trkpt lat="44.86981" lon="5.7095">
        <ele>530</ele>
        <time>2019-04-18T10:53:21Z</time>
      </trkpt>
      <trkpt lat="44.86981" lon="5.70951">
        <ele>530</ele>
        <time>2019-04-18T10:53:41Z</time>
      </trkpt>
      <trkpt lat="44.86981" lon="5.70952">
        <ele>530</ele>
        <time>2019-04-18T10:54:03Z</time>
      </trkpt>
      <trkpt lat="44.86981" lon="5.70953">
        <ele>531</ele>
        <time>2019-04-18T10:54:22Z</time>
      </trkpt>
      <trkpt lat="44.86982" lon="5.70953">
        <ele>531</ele>
        <time>2019-04-18T10:54:36Z</time>
      </trkpt>
      <trkpt lat="44.86986" lon="5.70953">
        <ele>531</ele>
        <time>2019-04-18T10:54:47Z</time>
      </trkpt>
      <trkpt lat="44.86992" lon="5.70949">
        <ele>532</ele>
        <time>2019-04-18T10:54:58Z</time>
      </trkpt>
      <trkpt lat="44.86996" lon="5.70943">
        <ele>532</ele>
        <time>2019-04-18T10:55:10Z</time>
      </trkpt>
      <trkpt lat="44.86998" lon="5.70941">
        <ele>532</ele>
        <time>2019-04-18T10:55:31Z</time>
      </trkpt>
      <trkpt lat="44.87" lon="5.70937">
        <ele>547</ele>
        <time>2019-04-18T10:56:01Z</time>
      </trkpt>
      <trkpt lat="44.86999" lon="5.70934">
        <ele>532</ele>
        <time>2019-04-18T10:56:31Z</time>
      </trkpt>
      <trkpt lat="44.86998" lon="5.70934">
        <ele>532</ele>
        <time>2019-04-18T10:57:06Z</time>
      </trkpt>
      <trkpt lat="44.86999" lon="5.70934">
        <ele>532</ele>
        <time>2019-04-18T10:57:42Z</time>
      </trkpt>
      <trkpt lat="44.86999" lon="5.70934">
        <ele>532</ele>
        <time>2019-04-18T10:58:04Z</time>
      </trkpt>
      <trkpt lat="44.86999" lon="5.70935">
        <ele>532</ele>
        <time>2019-04-18T10:58:30Z</time>
      </trkpt>
      <trkpt lat="44.86998" lon="5.70933">
        <ele>532</ele>
        <time>2019-04-18T10:59:02Z</time>
      </trkpt>
      <trkpt lat="44.86998" lon="5.70932">
        <ele>532</ele>
        <time>2019-04-18T10:59:38Z</time>
      </trkpt>
      <trkpt lat="44.86998" lon="5.70932">
        <ele>532</ele>
        <time>2019-04-18T11:00:07Z</time>
      </trkpt>
      <trkpt lat="44.86998" lon="5.70933">
        <ele>532</ele>
        <time>2019-04-18T11:00:37Z</time>
      </trkpt>
      <trkpt lat="44.86998" lon="5.70933">
        <ele>532</ele>
        <time>2019-04-18T11:01:01Z</time>
      </trkpt>
      <trkpt lat="44.87" lon="5.70933">
        <ele>532</ele>
        <time>2019-04-18T11:01:25Z</time>
      </trkpt>
      <trkpt lat="44.86969" lon="5.709">
        <ele>509</ele>
        <time>2019-04-18T11:02:00Z</time>
      </trkpt>
      <trkpt lat="44.86969" lon="5.7091">
        <ele>511</ele>
        <time>2019-04-18T11:02:25Z</time>
      </trkpt>
      <trkpt lat="44.87009" lon="5.70936">
        <ele>547</ele>
        <time>2019-04-18T11:02:56Z</time>
      </trkpt>
      <trkpt lat="44.87006" lon="5.70928">
        <ele>544</ele>
        <time>2019-04-18T11:03:27Z</time>
      </trkpt>
      <trkpt lat="44.86995" lon="5.70927">
        <ele>532</ele>
        <time>2019-04-18T11:03:54Z</time>
      </trkpt>
      <trkpt lat="44.86993" lon="5.70928">
        <ele>532</ele>
        <time>2019-04-18T11:04:18Z</time>
      </trkpt>
      <trkpt lat="44.86996" lon="5.70927">
        <ele>532</ele>
        <time>2019-04-18T11:04:23Z</time>
      </trkpt>
      <trkpt lat="44.86975" lon="5.70937">
        <ele>528</ele>
        <time>2019-04-18T11:15:52Z</time>
      </trkpt>
      <trkpt lat="44.86978" lon="5.70937">
        <ele>528</ele>
        <time>2019-04-18T11:15:53Z</time>
      </trkpt>
      <trkpt lat="44.86981" lon="5.70936">
        <ele>529</ele>
        <time>2019-04-18T11:16:02Z</time>
      </trkpt>
      <trkpt lat="44.86981" lon="5.70935">
        <ele>529</ele>
        <time>2019-04-18T11:16:03Z</time>
      </trkpt>
      <trkpt lat="44.86982" lon="5.70935">
        <ele>529</ele>
        <time>2019-04-18T11:16:04Z</time>
      </trkpt>
      <trkpt lat="44.86982" lon="5.70936">
        <ele>529</ele>
        <time>2019-04-18T11:16:05Z</time>
      </trkpt>
      <trkpt lat="44.86982" lon="5.70936">
        <ele>529</ele>
        <time>2019-04-18T11:16:06Z</time>
      </trkpt>
      <trkpt lat="44.86983" lon="5.70936">
        <ele>530</ele>
        <time>2019-04-18T11:16:07Z</time>
      </trkpt>
      <trkpt lat="44.86983" lon="5.70936">
        <ele>530</ele>
        <time>2019-04-18T11:16:08Z</time>
      </trkpt>
      <trkpt lat="44.86983" lon="5.70936">
        <ele>530</ele>
        <time>2019-04-18T11:16:09Z</time>
      </trkpt>
      <trkpt lat="44.86983" lon="5.70937">
        <ele>530</ele>
        <time>2019-04-18T11:16:10Z</time>
      </trkpt>
      <trkpt lat="44.86983" lon="5.70938">
        <ele>530</ele>
        <time>2019-04-18T11:16:11Z</time>
      </trkpt>
      <trkpt lat="44.86982" lon="5.70938">
        <ele>529</ele>
        <time>2019-04-18T11:16:12Z</time>
      </trkpt>
      <trkpt lat="44.8698" lon="5.70937">
        <ele>529</ele>
        <time>2019-04-18T11:16:14Z</time>
      </trkpt>
      <trkpt lat="44.8698" lon="5.70937">
        <ele>529</ele>
        <time>2019-04-18T11:16:15Z</time>
      </trkpt>
      <trkpt lat="44.86979" lon="5.70938">
        <ele>529</ele>
        <time>2019-04-18T11:16:17Z</time>
      </trkpt>
      <trkpt lat="44.86979" lon="5.70938">
        <ele>529</ele>
        <time>2019-04-18T11:16:18Z</time>
      </trkpt>
      <trkpt lat="44.86979" lon="5.70938">
        <ele>529</ele>
        <time>2019-04-18T11:16:19Z</time>
      </trkpt>
      <trkpt lat="44.86979" lon="5.70937">
        <ele>529</ele>
        <time>2019-04-18T11:16:21Z</time>
      </trkpt>
      <trkpt lat="44.86978" lon="5.70937">
        <ele>529</ele>
        <time>2019-04-18T11:16:22Z</time>
      </trkpt>
      <trkpt lat="44.86978" lon="5.70937">
        <ele>529</ele>
        <time>2019-04-18T11:16:23Z</time>
      </trkpt>
      <trkpt lat="44.86978" lon="5.70937">
        <ele>528</ele>
        <time>2019-04-18T11:16:26Z</time>
      </trkpt>
      <trkpt lat="44.86977" lon="5.70937">
        <ele>528</ele>
        <time>2019-04-18T11:16:27Z</time>
      </trkpt>
      <trkpt lat="44.86977" lon="5.70937">
        <ele>528</ele>
        <time>2019-04-18T11:16:28Z</time>
      </trkpt>
      <trkpt lat="44.86978" lon="5.70938">
        <ele>529</ele>
        <time>2019-04-18T11:16:32Z</time>
      </trkpt>
      <trkpt lat="44.86976" lon="5.70939">
        <ele>528</ele>
        <time>2019-04-18T11:16:38Z</time>
      </trkpt>
      <trkpt lat="44.86974" lon="5.70937">
        <ele>528</ele>
        <time>2019-04-18T11:16:41Z</time>
      </trkpt>
      <trkpt lat="44.86965" lon="5.70933">
        <ele>525</ele>
        <time>2019-04-18T11:16:52Z</time>
      </trkpt>
      <trkpt lat="44.86961" lon="5.70931">
        <ele>524</ele>
        <time>2019-04-18T11:17:03Z</time>
      </trkpt>
      <trkpt lat="44.86959" lon="5.70929">
        <ele>523</ele>
        <time>2019-04-18T11:17:11Z</time>
      </trkpt>
      <trkpt lat="44.86953" lon="5.70924">
        <ele>520</ele>
        <time>2019-04-18T11:17:22Z</time>
      </trkpt>
      <trkpt lat="44.86946" lon="5.70917">
        <ele>502</ele>
        <time>2019-04-18T11:17:34Z</time>
      </trkpt>
      <trkpt lat="44.8694" lon="5.70913">
        <ele>500</ele>
        <time>2019-04-18T11:17:48Z</time>
      </trkpt>
      <trkpt lat="44.86931" lon="5.70906">
        <ele>498</ele>
        <time>2019-04-18T11:18:01Z</time>
      </trkpt>
      <trkpt lat="44.86925" lon="5.70904">
        <ele>497</ele>
        <time>2019-04-18T11:18:13Z</time>
      </trkpt>
      <trkpt lat="44.86923" lon="5.70906">
        <ele>497</ele>
        <time>2019-04-18T11:18:24Z</time>
      </trkpt>
      <trkpt lat="44.86908" lon="5.70896">
        <ele>490</ele>
        <time>2019-04-18T11:18:38Z</time>
      </trkpt>
      <trkpt lat="44.86898" lon="5.70886">
        <ele>489</ele>
        <time>2019-04-18T11:18:48Z</time>
      </trkpt>
      <trkpt lat="44.86889" lon="5.70878">
        <ele>489</ele>
        <time>2019-04-18T11:19:00Z</time>
      </trkpt>
      <trkpt lat="44.86882" lon="5.70875">
        <ele>489</ele>
        <time>2019-04-18T11:19:03Z</time>
      </trkpt>
      <trkpt lat="44.86873" lon="5.70869">
        <ele>490</ele>
        <time>2019-04-18T11:19:13Z</time>
      </trkpt>
      <trkpt lat="44.86862" lon="5.70863">
        <ele>491</ele>
        <time>2019-04-18T11:19:24Z</time>
      </trkpt>
      <trkpt lat="44.86851" lon="5.70857">
        <ele>493</ele>
        <time>2019-04-18T11:19:34Z</time>
      </trkpt>
      <trkpt lat="44.86845" lon="5.70854">
        <ele>494</ele>
        <time>2019-04-18T11:19:43Z</time>
      </trkpt>
      <trkpt lat="44.86836" lon="5.70847">
        <ele>497</ele>
        <time>2019-04-18T11:19:55Z</time>
      </trkpt>
      <trkpt lat="44.8684" lon="5.7084">
        <ele>499</ele>
        <time>2019-04-18T11:20:07Z</time>
      </trkpt>
      <trkpt lat="44.86836" lon="5.70834">
        <ele>503</ele>
        <time>2019-04-18T11:20:17Z</time>
      </trkpt>
      <trkpt lat="44.86827" lon="5.70826">
        <ele>515</ele>
        <time>2019-04-18T11:20:29Z</time>
      </trkpt>
      <trkpt lat="44.86822" lon="5.70819">
        <ele>523</ele>
        <time>2019-04-18T11:20:39Z</time>
      </trkpt>
      <trkpt lat="44.86812" lon="5.70814">
        <ele>529</ele>
        <time>2019-04-18T11:20:51Z</time>
      </trkpt>
      <trkpt lat="44.86811" lon="5.70811">
        <ele>531</ele>
        <time>2019-04-18T11:20:54Z</time>
      </trkpt>
      <trkpt lat="44.86811" lon="5.70812">
        <ele>531</ele>
        <time>2019-04-18T11:20:55Z</time>
      </trkpt>
      <trkpt lat="44.8681" lon="5.70811">
        <ele>531</ele>
        <time>2019-04-18T11:20:56Z</time>
      </trkpt>
      <trkpt lat="44.8681" lon="5.7081">
        <ele>531</ele>
        <time>2019-04-18T11:20:57Z</time>
      </trkpt>
      <trkpt lat="44.8681" lon="5.7081">
        <ele>531</ele>
        <time>2019-04-18T11:20:58Z</time>
      </trkpt>
      <trkpt lat="44.86809" lon="5.7081">
        <ele>532</ele>
        <time>2019-04-18T11:20:59Z</time>
      </trkpt>
      <trkpt lat="44.86809" lon="5.70809">
        <ele>532</ele>
        <time>2019-04-18T11:21:00Z</time>
      </trkpt>
      <trkpt lat="44.86809" lon="5.70809">
        <ele>532</ele>
        <time>2019-04-18T11:21:01Z</time>
      </trkpt>
      <trkpt lat="44.86809" lon="5.70809">
        <ele>532</ele>
        <time>2019-04-18T11:21:02Z</time>
      </trkpt>
      <trkpt lat="44.86809" lon="5.70808">
        <ele>532</ele>
        <time>2019-04-18T11:21:03Z</time>
      </trkpt>
      <trkpt lat="44.86809" lon="5.70808">
        <ele>532</ele>
        <time>2019-04-18T11:21:04Z</time>
      </trkpt>
      <trkpt lat="44.86808" lon="5.70808">
        <ele>532</ele>
        <time>2019-04-18T11:21:05Z</time>
      </trkpt>
      <trkpt lat="44.86808" lon="5.70808">
        <ele>532</ele>
        <time>2019-04-18T11:21:06Z</time>
      </trkpt>
      <trkpt lat="44.86807" lon="5.70807">
        <ele>533</ele>
        <time>2019-04-18T11:21:07Z</time>
      </trkpt>
      <trkpt lat="44.86807" lon="5.70807">
        <ele>533</ele>
        <time>2019-04-18T11:21:08Z</time>
      </trkpt>
      <trkpt lat="44.86807" lon="5.70807">
        <ele>533</ele>
        <time>2019-04-18T11:21:09Z</time>
      </trkpt>
      <trkpt lat="44.86807" lon="5.70807">
        <ele>533</ele>
        <time>2019-04-18T11:21:10Z</time>
      </trkpt>
      <trkpt lat="44.86806" lon="5.70806">
        <ele>534</ele>
        <time>2019-04-18T11:21:12Z</time>
      </trkpt>
      <trkpt lat="44.86805" lon="5.70805">
        <ele>534</ele>
        <time>2019-04-18T11:21:14Z</time>
      </trkpt>
      <trkpt lat="44.86805" lon="5.70805">
        <ele>534</ele>
        <time>2019-04-18T11:21:16Z</time>
      </trkpt>
      <trkpt lat="44.86805" lon="5.70805">
        <ele>534</ele>
        <time>2019-04-18T11:21:17Z</time>
      </trkpt>
      <trkpt lat="44.86804" lon="5.70804">
        <ele>535</ele>
        <time>2019-04-18T11:21:18Z</time>
      </trkpt>
      <trkpt lat="44.86803" lon="5.70804">
        <ele>535</ele>
        <time>2019-04-18T11:21:19Z</time>
      </trkpt>
      <trkpt lat="44.86803" lon="5.70804">
        <ele>535</ele>
        <time>2019-04-18T11:21:20Z</time>
      </trkpt>
      <trkpt lat="44.86803" lon="5.70804">
        <ele>535</ele>
        <time>2019-04-18T11:21:21Z</time>
      </trkpt>
      <trkpt lat="44.86802" lon="5.70803">
        <ele>536</ele>
        <time>2019-04-18T11:21:23Z</time>
      </trkpt>
      <trkpt lat="44.86799" lon="5.70801">
        <ele>537</ele>
        <time>2019-04-18T11:21:27Z</time>
      </trkpt>
      <trkpt lat="44.86798" lon="5.708">
        <ele>537</ele>
        <time>2019-04-18T11:21:28Z</time>
      </trkpt>
      <trkpt lat="44.86798" lon="5.70799">
        <ele>537</ele>
        <time>2019-04-18T11:21:29Z</time>
      </trkpt>
      <trkpt lat="44.86796" lon="5.70798">
        <ele>538</ele>
        <time>2019-04-18T11:21:33Z</time>
      </trkpt>
      <trkpt lat="44.86796" lon="5.70798">
        <ele>538</ele>
        <time>2019-04-18T11:21:34Z</time>
      </trkpt>
      <trkpt lat="44.86796" lon="5.70797">
        <ele>538</ele>
        <time>2019-04-18T11:21:35Z</time>
      </trkpt>
      <trkpt lat="44.86795" lon="5.70796">
        <ele>539</ele>
        <time>2019-04-18T11:21:36Z</time>
      </trkpt>
      <trkpt lat="44.86792" lon="5.70794">
        <ele>540</ele>
        <time>2019-04-18T11:21:47Z</time>
      </trkpt>
      <trkpt lat="44.86786" lon="5.70785">
        <ele>542</ele>
        <time>2019-04-18T11:21:59Z</time>
      </trkpt>
      <trkpt lat="44.86789" lon="5.70775">
        <ele>542</ele>
        <time>2019-04-18T11:22:13Z</time>
      </trkpt>
      <trkpt lat="44.86789" lon="5.70775">
        <ele>542</ele>
        <time>2019-04-18T11:22:14Z</time>
      </trkpt>
      <trkpt lat="44.86789" lon="5.70775">
        <ele>542</ele>
        <time>2019-04-18T11:22:15Z</time>
      </trkpt>
      <trkpt lat="44.86789" lon="5.70774">
        <ele>542</ele>
        <time>2019-04-18T11:22:16Z</time>
      </trkpt>
      <trkpt lat="44.8679" lon="5.70773">
        <ele>541</ele>
        <time>2019-04-18T11:22:29Z</time>
      </trkpt>
      <trkpt lat="44.86789" lon="5.70775">
        <ele>541</ele>
        <time>2019-04-18T11:22:47Z</time>
      </trkpt>
      <trkpt lat="44.86788" lon="5.70764">
        <ele>542</ele>
        <time>2019-04-18T11:22:57Z</time>
      </trkpt>
      <trkpt lat="44.86788" lon="5.70763">
        <ele>542</ele>
        <time>2019-04-18T11:22:58Z</time>
      </trkpt>
      <trkpt lat="44.86788" lon="5.70763">
        <ele>542</ele>
        <time>2019-04-18T11:22:59Z</time>
      </trkpt>
      <trkpt lat="44.86788" lon="5.70763">
        <ele>542</ele>
        <time>2019-04-18T11:23:00Z</time>
      </trkpt>
      <trkpt lat="44.86788" lon="5.70749">
        <ele>543</ele>
        <time>2019-04-18T11:23:11Z</time>
      </trkpt>
      <trkpt lat="44.86789" lon="5.70739">
        <ele>542</ele>
        <time>2019-04-18T11:23:20Z</time>
      </trkpt>
      <trkpt lat="44.86789" lon="5.7072">
        <ele>542</ele>
        <time>2019-04-18T11:23:32Z</time>
      </trkpt>
      <trkpt lat="44.8679" lon="5.70702">
        <ele>542</ele>
        <time>2019-04-18T11:23:42Z</time>
      </trkpt>
      <trkpt lat="44.86793" lon="5.70691">
        <ele>540</ele>
        <time>2019-04-18T11:23:52Z</time>
      </trkpt>
      <trkpt lat="44.86794" lon="5.70686">
        <ele>540</ele>
        <time>2019-04-18T11:23:54Z</time>
      </trkpt>
      <trkpt lat="44.86798" lon="5.70674">
        <ele>538</ele>
        <time>2019-04-18T11:24:06Z</time>
      </trkpt>
      <trkpt lat="44.86799" lon="5.70664">
        <ele>536</ele>
        <time>2019-04-18T11:24:16Z</time>
      </trkpt>
      <trkpt lat="44.86799" lon="5.70663">
        <ele>536</ele>
        <time>2019-04-18T11:24:17Z</time>
      </trkpt>
      <trkpt lat="44.868" lon="5.70661">
        <ele>536</ele>
        <time>2019-04-18T11:24:18Z</time>
      </trkpt>
      <trkpt lat="44.86801" lon="5.70655">
        <ele>535</ele>
        <time>2019-04-18T11:24:25Z</time>
      </trkpt>
      <trkpt lat="44.86801" lon="5.70651">
        <ele>536</ele>
        <time>2019-04-18T11:24:28Z</time>
      </trkpt>
      <trkpt lat="44.86803" lon="5.70642">
        <ele>536</ele>
        <time>2019-04-18T11:24:36Z</time>
      </trkpt>
      <trkpt lat="44.86808" lon="5.70632">
        <ele>534</ele>
        <time>2019-04-18T11:24:47Z</time>
      </trkpt>
      <trkpt lat="44.86814" lon="5.70621">
        <ele>533</ele>
        <time>2019-04-18T11:24:58Z</time>
      </trkpt>
      <trkpt lat="44.86815" lon="5.70612">
        <ele>532</ele>
        <time>2019-04-18T11:25:06Z</time>
      </trkpt>
      <trkpt lat="44.86822" lon="5.70601">
        <ele>528</ele>
        <time>2019-04-18T11:25:14Z</time>
      </trkpt>
      <trkpt lat="44.86825" lon="5.70592">
        <ele>524</ele>
        <time>2019-04-18T11:25:23Z</time>
      </trkpt>
      <trkpt lat="44.86825" lon="5.70591">
        <ele>523</ele>
        <time>2019-04-18T11:25:24Z</time>
      </trkpt>
      <trkpt lat="44.86825" lon="5.70591">
        <ele>523</ele>
        <time>2019-04-18T11:25:25Z</time>
      </trkpt>
      <trkpt lat="44.86825" lon="5.70591">
        <ele>523</ele>
        <time>2019-04-18T11:25:27Z</time>
      </trkpt>
      <trkpt lat="44.86825" lon="5.70591">
        <ele>523</ele>
        <time>2019-04-18T11:25:28Z</time>
      </trkpt>
      <trkpt lat="44.86826" lon="5.7059">
        <ele>522</ele>
        <time>2019-04-18T11:25:30Z</time>
      </trkpt>
      <trkpt lat="44.86827" lon="5.70589">
        <ele>522</ele>
        <time>2019-04-18T11:25:31Z</time>
      </trkpt>
      <trkpt lat="44.86827" lon="5.70589">
        <ele>522</ele>
        <time>2019-04-18T11:25:32Z</time>
      </trkpt>
      <trkpt lat="44.86827" lon="5.70588">
        <ele>521</ele>
        <time>2019-04-18T11:25:34Z</time>
      </trkpt>
      <trkpt lat="44.86828" lon="5.70588">
        <ele>521</ele>
        <time>2019-04-18T11:25:35Z</time>
      </trkpt>
      <trkpt lat="44.86829" lon="5.70588">
        <ele>520</ele>
        <time>2019-04-18T11:25:36Z</time>
      </trkpt>
      <trkpt lat="44.8683" lon="5.70587">
        <ele>519</ele>
        <time>2019-04-18T11:25:37Z</time>
      </trkpt>
      <trkpt lat="44.8683" lon="5.70587">
        <ele>518</ele>
        <time>2019-04-18T11:25:38Z</time>
      </trkpt>
      <trkpt lat="44.86833" lon="5.70578">
        <ele>519</ele>
        <time>2019-04-18T11:25:47Z</time>
      </trkpt>
      <trkpt lat="44.86833" lon="5.70577">
        <ele>519</ele>
        <time>2019-04-18T11:25:48Z</time>
      </trkpt>
      <trkpt lat="44.86833" lon="5.70573">
        <ele>510</ele>
        <time>2019-04-18T11:25:51Z</time>
      </trkpt>
      <trkpt lat="44.86836" lon="5.70567">
        <ele>508</ele>
        <time>2019-04-18T11:25:55Z</time>
      </trkpt>
      <trkpt lat="44.86836" lon="5.70562">
        <ele>507</ele>
        <time>2019-04-18T11:26:00Z</time>
      </trkpt>
      <trkpt lat="44.86837" lon="5.70558">
        <ele>507</ele>
        <time>2019-04-18T11:26:02Z</time>
      </trkpt>
      <trkpt lat="44.86841" lon="5.70554">
        <ele>506</ele>
        <time>2019-04-18T11:26:09Z</time>
      </trkpt>
      <trkpt lat="44.86841" lon="5.70554">
        <ele>506</ele>
        <time>2019-04-18T11:26:10Z</time>
      </trkpt>
      <trkpt lat="44.86841" lon="5.70553">
        <ele>506</ele>
        <time>2019-04-18T11:26:11Z</time>
      </trkpt>
      <trkpt lat="44.86842" lon="5.70553">
        <ele>506</ele>
        <time>2019-04-18T11:26:12Z</time>
      </trkpt>
      <trkpt lat="44.86842" lon="5.70553">
        <ele>506</ele>
        <time>2019-04-18T11:26:13Z</time>
      </trkpt>
      <trkpt lat="44.86843" lon="5.70553">
        <ele>506</ele>
        <time>2019-04-18T11:26:14Z</time>
      </trkpt>
      <trkpt lat="44.86844" lon="5.70554">
        <ele>506</ele>
        <time>2019-04-18T11:26:15Z</time>
      </trkpt>
      <trkpt lat="44.86846" lon="5.70554">
        <ele>505</ele>
        <time>2019-04-18T11:26:16Z</time>
      </trkpt>
      <trkpt lat="44.86847" lon="5.70555">
        <ele>505</ele>
        <time>2019-04-18T11:26:17Z</time>
      </trkpt>
      <trkpt lat="44.86848" lon="5.70555">
        <ele>505</ele>
        <time>2019-04-18T11:26:18Z</time>
      </trkpt>
      <trkpt lat="44.8685" lon="5.70556">
        <ele>505</ele>
        <time>2019-04-18T11:26:20Z</time>
      </trkpt>
      <trkpt lat="44.86851" lon="5.70557">
        <ele>505</ele>
        <time>2019-04-18T11:26:21Z</time>
      </trkpt>
      <trkpt lat="44.86851" lon="5.70558">
        <ele>505</ele>
        <time>2019-04-18T11:26:22Z</time>
      </trkpt>
      <trkpt lat="44.86851" lon="5.70558">
        <ele>505</ele>
        <time>2019-04-18T11:26:23Z</time>
      </trkpt>
      <trkpt lat="44.86851" lon="5.70558">
        <ele>505</ele>
        <time>2019-04-18T11:26:24Z</time>
      </trkpt>
      <trkpt lat="44.86852" lon="5.70558">
        <ele>505</ele>
        <time>2019-04-18T11:26:25Z</time>
      </trkpt>
      <trkpt lat="44.86853" lon="5.70559">
        <ele>505</ele>
        <time>2019-04-18T11:26:26Z</time>
      </trkpt>
      <trkpt lat="44.86853" lon="5.70559">
        <ele>505</ele>
        <time>2019-04-18T11:26:27Z</time>
      </trkpt>
      <trkpt lat="44.86853" lon="5.70559">
        <ele>505</ele>
        <time>2019-04-18T11:26:28Z</time>
      </trkpt>
      <trkpt lat="44.86853" lon="5.70559">
        <ele>505</ele>
        <time>2019-04-18T11:26:29Z</time>
      </trkpt>
      <trkpt lat="44.86853" lon="5.70559">
        <ele>505</ele>
        <time>2019-04-18T11:26:30Z</time>
      </trkpt>
      <trkpt lat="44.86853" lon="5.70559">
        <ele>505</ele>
        <time>2019-04-18T11:26:31Z</time>
      </trkpt>
      <trkpt lat="44.86853" lon="5.70558">
        <ele>505</ele>
        <time>2019-04-18T11:26:32Z</time>
      </trkpt>
      <trkpt lat="44.86853" lon="5.70558">
        <ele>505</ele>
        <time>2019-04-18T11:26:33Z</time>
      </trkpt>
      <trkpt lat="44.86853" lon="5.70558">
        <ele>505</ele>
        <time>2019-04-18T11:26:34Z</time>
      </trkpt>
      <trkpt lat="44.86854" lon="5.70558">
        <ele>504</ele>
        <time>2019-04-18T11:26:35Z</time>
      </trkpt>
      <trkpt lat="44.86855" lon="5.70557">
        <ele>504</ele>
        <time>2019-04-18T11:26:36Z</time>
      </trkpt>
      <trkpt lat="44.86855" lon="5.70557">
        <ele>504</ele>
        <time>2019-04-18T11:26:37Z</time>
      </trkpt>
      <trkpt lat="44.86855" lon="5.70557">
        <ele>504</ele>
        <time>2019-04-18T11:26:38Z</time>
      </trkpt>
      <trkpt lat="44.86855" lon="5.70555">
        <ele>504</ele>
        <time>2019-04-18T11:26:41Z</time>
      </trkpt>
      <trkpt lat="44.86856" lon="5.70554">
        <ele>504</ele>
        <time>2019-04-18T11:26:42Z</time>
      </trkpt>
      <trkpt lat="44.86856" lon="5.70553">
        <ele>504</ele>
        <time>2019-04-18T11:26:43Z</time>
      </trkpt>
      <trkpt lat="44.8686" lon="5.70543">
        <ele>503</ele>
        <time>2019-04-18T11:26:49Z</time>
      </trkpt>
      <trkpt lat="44.8686" lon="5.70528">
        <ele>504</ele>
        <time>2019-04-18T11:27:00Z</time>
      </trkpt>
      <trkpt lat="44.86856" lon="5.70521">
        <ele>505</ele>
        <time>2019-04-18T11:27:14Z</time>
      </trkpt>
      <trkpt lat="44.8685" lon="5.70517">
        <ele>507</ele>
        <time>2019-04-18T11:27:24Z</time>
      </trkpt>
      <trkpt lat="44.86844" lon="5.70508">
        <ele>510</ele>
        <time>2019-04-18T11:27:35Z</time>
      </trkpt>
      <trkpt lat="44.8684" lon="5.705">
        <ele>512</ele>
        <time>2019-04-18T11:27:41Z</time>
      </trkpt>
      <trkpt lat="44.8684" lon="5.70499">
        <ele>513</ele>
        <time>2019-04-18T11:27:42Z</time>
      </trkpt>
      <trkpt lat="44.8684" lon="5.70498">
        <ele>513</ele>
        <time>2019-04-18T11:27:43Z</time>
      </trkpt>
      <trkpt lat="44.86838" lon="5.70496">
        <ele>513</ele>
        <time>2019-04-18T11:27:46Z</time>
      </trkpt>
      <trkpt lat="44.86838" lon="5.70495">
        <ele>513</ele>
        <time>2019-04-18T11:27:47Z</time>
      </trkpt>
      <trkpt lat="44.86837" lon="5.70493">
        <ele>513</ele>
        <time>2019-04-18T11:27:48Z</time>
      </trkpt>
      <trkpt lat="44.86837" lon="5.70492">
        <ele>513</ele>
        <time>2019-04-18T11:27:49Z</time>
      </trkpt>
      <trkpt lat="44.86836" lon="5.70485">
        <ele>511</ele>
        <time>2019-04-18T11:28:01Z</time>
      </trkpt>
      <trkpt lat="44.86834" lon="5.70475">
        <ele>510</ele>
        <time>2019-04-18T11:28:13Z</time>
      </trkpt>
      <trkpt lat="44.86832" lon="5.70465">
        <ele>532</ele>
        <time>2019-04-18T11:28:24Z</time>
      </trkpt>
      <trkpt lat="44.8683" lon="5.70454">
        <ele>533</ele>
        <time>2019-04-18T11:28:33Z</time>
      </trkpt>
      <trkpt lat="44.8683" lon="5.70454">
        <ele>533</ele>
        <time>2019-04-18T11:28:34Z</time>
      </trkpt>
      <trkpt lat="44.8683" lon="5.70454">
        <ele>533</ele>
        <time>2019-04-18T11:28:35Z</time>
      </trkpt>
      <trkpt lat="44.8683" lon="5.70452">
        <ele>533</ele>
        <time>2019-04-18T11:28:37Z</time>
      </trkpt>
      <trkpt lat="44.86833" lon="5.70442">
        <ele>532</ele>
        <time>2019-04-18T11:28:50Z</time>
      </trkpt>
      <trkpt lat="44.86833" lon="5.70432">
        <ele>530</ele>
        <time>2019-04-18T11:29:01Z</time>
      </trkpt>
      <trkpt lat="44.86832" lon="5.70424">
        <ele>527</ele>
        <time>2019-04-18T11:29:11Z</time>
      </trkpt>
      <trkpt lat="44.86833" lon="5.70419">
        <ele>521</ele>
        <time>2019-04-18T11:29:23Z</time>
      </trkpt>
      <trkpt lat="44.86832" lon="5.70407">
        <ele>529</ele>
        <time>2019-04-18T11:29:34Z</time>
      </trkpt>
      <trkpt lat="44.86832" lon="5.70404">
        <ele>530</ele>
        <time>2019-04-18T11:29:48Z</time>
      </trkpt>
      <trkpt lat="44.86833" lon="5.70406">
        <ele>529</ele>
        <time>2019-04-18T11:30:13Z</time>
      </trkpt>
      <trkpt lat="44.86833" lon="5.70407">
        <ele>528</ele>
        <time>2019-04-18T11:30:45Z</time>
      </trkpt>
      <trkpt lat="44.86832" lon="5.70408">
        <ele>528</ele>
        <time>2019-04-18T11:31:17Z</time>
      </trkpt>
      <trkpt lat="44.86831" lon="5.70399">
        <ele>532</ele>
        <time>2019-04-18T11:31:40Z</time>
      </trkpt>
      <trkpt lat="44.86835" lon="5.70386">
        <ele>510</ele>
        <time>2019-04-18T11:31:49Z</time>
      </trkpt>
      <trkpt lat="44.8683" lon="5.70373">
        <ele>534</ele>
        <time>2019-04-18T11:32:01Z</time>
      </trkpt>
      <trkpt lat="44.86827" lon="5.70366">
        <ele>534</ele>
        <time>2019-04-18T11:32:11Z</time>
      </trkpt>
      <trkpt lat="44.86819" lon="5.70355">
        <ele>534</ele>
        <time>2019-04-18T11:32:27Z</time>
      </trkpt>
      <trkpt lat="44.86814" lon="5.7035">
        <ele>534</ele>
        <time>2019-04-18T11:32:41Z</time>
      </trkpt>
      <trkpt lat="44.86811" lon="5.70345">
        <ele>534</ele>
        <time>2019-04-18T11:32:52Z</time>
      </trkpt>
      <trkpt lat="44.86807" lon="5.70339">
        <ele>536</ele>
        <time>2019-04-18T11:33:05Z</time>
      </trkpt>
      <trkpt lat="44.86796" lon="5.70334">
        <ele>540</ele>
        <time>2019-04-18T11:33:20Z</time>
      </trkpt>
      <trkpt lat="44.86787" lon="5.70326">
        <ele>540</ele>
        <time>2019-04-18T11:33:31Z</time>
      </trkpt>
      <trkpt lat="44.86783" lon="5.70322">
        <ele>541</ele>
        <time>2019-04-18T11:33:43Z</time>
      </trkpt>
      <trkpt lat="44.8678" lon="5.70315">
        <ele>542</ele>
        <time>2019-04-18T11:33:53Z</time>
      </trkpt>
      <trkpt lat="44.86781" lon="5.70292">
        <ele>539</ele>
        <time>2019-04-18T11:34:05Z</time>
      </trkpt>
      <trkpt lat="44.86781" lon="5.70277">
        <ele>539</ele>
        <time>2019-04-18T11:34:17Z</time>
      </trkpt>
      <trkpt lat="44.86776" lon="5.70268">
        <ele>540</ele>
        <time>2019-04-18T11:34:29Z</time>
      </trkpt>
      <trkpt lat="44.86774" lon="5.70266">
        <ele>541</ele>
        <time>2019-04-18T11:34:36Z</time>
      </trkpt>
      <trkpt lat="44.86767" lon="5.70259">
        <ele>545</ele>
        <time>2019-04-18T11:34:46Z</time>
      </trkpt>
      <trkpt lat="44.86758" lon="5.70253">
        <ele>549</ele>
        <time>2019-04-18T11:35:01Z</time>
      </trkpt>
      <trkpt lat="44.86751" lon="5.70243">
        <ele>549</ele>
        <time>2019-04-18T11:35:13Z</time>
      </trkpt>
      <trkpt lat="44.86744" lon="5.70232">
        <ele>567</ele>
        <time>2019-04-18T11:35:25Z</time>
      </trkpt>
      <trkpt lat="44.86743" lon="5.70225">
        <ele>569</ele>
        <time>2019-04-18T11:35:38Z</time>
      </trkpt>
      <trkpt lat="44.86742" lon="5.70224">
        <ele>569</ele>
        <time>2019-04-18T11:35:39Z</time>
      </trkpt>
      <trkpt lat="44.86739" lon="5.70216">
        <ele>571</ele>
        <time>2019-04-18T11:35:51Z</time>
      </trkpt>
      <trkpt lat="44.86737" lon="5.70208">
        <ele>572</ele>
        <time>2019-04-18T11:36:01Z</time>
      </trkpt>
      <trkpt lat="44.86735" lon="5.70203">
        <ele>572</ele>
        <time>2019-04-18T11:36:17Z</time>
      </trkpt>
      <trkpt lat="44.86731" lon="5.70192">
        <ele>572</ele>
        <time>2019-04-18T11:36:29Z</time>
      </trkpt>
      <trkpt lat="44.86728" lon="5.70178">
        <ele>571</ele>
        <time>2019-04-18T11:36:40Z</time>
      </trkpt>
      <trkpt lat="44.86726" lon="5.70164">
        <ele>571</ele>
        <time>2019-04-18T11:36:53Z</time>
      </trkpt>
      <trkpt lat="44.86725" lon="5.7016">
        <ele>572</ele>
        <time>2019-04-18T11:37:03Z</time>
      </trkpt>
      <trkpt lat="44.86726" lon="5.70151">
        <ele>572</ele>
        <time>2019-04-18T11:37:13Z</time>
      </trkpt>
      <trkpt lat="44.86725" lon="5.70141">
        <ele>574</ele>
        <time>2019-04-18T11:37:27Z</time>
      </trkpt>
      <trkpt lat="44.86721" lon="5.70126">
        <ele>576</ele>
        <time>2019-04-18T11:37:39Z</time>
      </trkpt>
      <trkpt lat="44.8672" lon="5.7012">
        <ele>576</ele>
        <time>2019-04-18T11:37:48Z</time>
      </trkpt>
      <trkpt lat="44.8672" lon="5.7011">
        <ele>576</ele>
        <time>2019-04-18T11:37:57Z</time>
      </trkpt>
      <trkpt lat="44.8672" lon="5.70103">
        <ele>575</ele>
        <time>2019-04-18T11:38:08Z</time>
      </trkpt>
      <trkpt lat="44.86719" lon="5.70093">
        <ele>575</ele>
        <time>2019-04-18T11:38:20Z</time>
      </trkpt>
      <trkpt lat="44.8672" lon="5.70088">
        <ele>575</ele>
        <time>2019-04-18T11:38:29Z</time>
      </trkpt>
      <trkpt lat="44.8672" lon="5.7008">
        <ele>574</ele>
        <time>2019-04-18T11:38:39Z</time>
      </trkpt>
      <trkpt lat="44.8672" lon="5.70071">
        <ele>574</ele>
        <time>2019-04-18T11:38:50Z</time>
      </trkpt>
      <trkpt lat="44.86719" lon="5.70063">
        <ele>575</ele>
        <time>2019-04-18T11:39:01Z</time>
      </trkpt>
      <trkpt lat="44.86717" lon="5.70054">
        <ele>576</ele>
        <time>2019-04-18T11:39:13Z</time>
      </trkpt>
      <trkpt lat="44.86718" lon="5.70054">
        <ele>575</ele>
        <time>2019-04-18T11:39:41Z</time>
      </trkpt>
      <trkpt lat="44.86717" lon="5.70054">
        <ele>576</ele>
        <time>2019-04-18T11:40:02Z</time>
      </trkpt>
      <trkpt lat="44.86715" lon="5.70055">
        <ele>576</ele>
        <time>2019-04-18T11:40:34Z</time>
      </trkpt>
      <trkpt lat="44.86715" lon="5.70054">
        <ele>576</ele>
        <time>2019-04-18T11:41:03Z</time>
      </trkpt>
      <trkpt lat="44.86715" lon="5.70054">
        <ele>576</ele>
        <time>2019-04-18T11:41:25Z</time>
      </trkpt>
      <trkpt lat="44.86715" lon="5.70052">
        <ele>576</ele>
        <time>2019-04-18T11:41:46Z</time>
      </trkpt>
      <trkpt lat="44.86713" lon="5.70046">
        <ele>577</ele>
        <time>2019-04-18T11:41:59Z</time>
      </trkpt>
      <trkpt lat="44.86716" lon="5.70036">
        <ele>576</ele>
        <time>2019-04-18T11:42:11Z</time>
      </trkpt>
      <trkpt lat="44.86719" lon="5.70033">
        <ele>575</ele>
        <time>2019-04-18T11:42:17Z</time>
      </trkpt>
      <trkpt lat="44.8672" lon="5.70017">
        <ele>574</ele>
        <time>2019-04-18T11:42:29Z</time>
      </trkpt>
      <trkpt lat="44.86718" lon="5.70008">
        <ele>574</ele>
        <time>2019-04-18T11:42:45Z</time>
      </trkpt>
      <trkpt lat="44.86714" lon="5.70009">
        <ele>575</ele>
        <time>2019-04-18T11:42:58Z</time>
      </trkpt>
      <trkpt lat="44.86713" lon="5.70012">
        <ele>576</ele>
        <time>2019-04-18T11:43:11Z</time>
      </trkpt>
      <trkpt lat="44.86705" lon="5.7002">
        <ele>578</ele>
        <time>2019-04-18T11:43:23Z</time>
      </trkpt>
      <trkpt lat="44.86705" lon="5.7002">
        <ele>578</ele>
        <time>2019-04-18T11:43:40Z</time>
      </trkpt>
      <trkpt lat="44.86704" lon="5.70014">
        <ele>578</ele>
        <time>2019-04-18T11:43:54Z</time>
      </trkpt>
      <trkpt lat="44.86697" lon="5.70007">
        <ele>580</ele>
        <time>2019-04-18T11:44:07Z</time>
      </trkpt>
      <trkpt lat="44.86694" lon="5.70011">
        <ele>581</ele>
        <time>2019-04-18T11:44:20Z</time>
      </trkpt>
      <trkpt lat="44.86694" lon="5.70018">
        <ele>581</ele>
        <time>2019-04-18T11:44:35Z</time>
      </trkpt>
      <trkpt lat="44.86687" lon="5.70027">
        <ele>582</ele>
        <time>2019-04-18T11:44:48Z</time>
      </trkpt>
      <trkpt lat="44.86677" lon="5.70028">
        <ele>584</ele>
        <time>2019-04-18T11:45:04Z</time>
      </trkpt>
      <trkpt lat="44.86673" lon="5.70033">
        <ele>584</ele>
        <time>2019-04-18T11:45:17Z</time>
      </trkpt>
      <trkpt lat="44.86671" lon="5.70038">
        <ele>584</ele>
        <time>2019-04-18T11:45:29Z</time>
      </trkpt>
      <trkpt lat="44.86668" lon="5.70035">
        <ele>584</ele>
        <time>2019-04-18T11:45:43Z</time>
      </trkpt>
      <trkpt lat="44.86666" lon="5.70031">
        <ele>602</ele>
        <time>2019-04-18T11:45:59Z</time>
      </trkpt>
      <trkpt lat="44.86667" lon="5.70032">
        <ele>585</ele>
        <time>2019-04-18T11:46:20Z</time>
      </trkpt>
      <trkpt lat="44.86666" lon="5.70032">
        <ele>602</ele>
        <time>2019-04-18T11:46:44Z</time>
      </trkpt>
      <trkpt lat="44.86666" lon="5.70033">
        <ele>602</ele>
        <time>2019-04-18T11:47:12Z</time>
      </trkpt>
      <trkpt lat="44.86665" lon="5.70035">
        <ele>602</ele>
        <time>2019-04-18T11:47:40Z</time>
      </trkpt>
      <trkpt lat="44.86659" lon="5.70032">
        <ele>602</ele>
        <time>2019-04-18T11:47:55Z</time>
      </trkpt>
      <trkpt lat="44.86652" lon="5.70024">
        <ele>602</ele>
        <time>2019-04-18T11:48:11Z</time>
      </trkpt>
      <trkpt lat="44.86645" lon="5.70007">
        <ele>601</ele>
        <time>2019-04-18T11:48:26Z</time>
      </trkpt>
      <trkpt lat="44.86645" lon="5.69996">
        <ele>596</ele>
        <time>2019-04-18T11:48:39Z</time>
      </trkpt>
      <trkpt lat="44.86647" lon="5.69983">
        <ele>595</ele>
        <time>2019-04-18T11:48:49Z</time>
      </trkpt>
      <trkpt lat="44.86644" lon="5.69971">
        <ele>595</ele>
        <time>2019-04-18T11:49:00Z</time>
      </trkpt>
      <trkpt lat="44.86643" lon="5.69967">
        <ele>595</ele>
        <time>2019-04-18T11:49:03Z</time>
      </trkpt>
      <trkpt lat="44.86636" lon="5.69947">
        <ele>594</ele>
        <time>2019-04-18T11:49:16Z</time>
      </trkpt>
      <trkpt lat="44.8663" lon="5.6994">
        <ele>594</ele>
        <time>2019-04-18T11:49:28Z</time>
      </trkpt>
      <trkpt lat="44.86627" lon="5.69935">
        <ele>594</ele>
        <time>2019-04-18T11:49:43Z</time>
      </trkpt>
      <trkpt lat="44.8662" lon="5.69924">
        <ele>594</ele>
        <time>2019-04-18T11:49:58Z</time>
      </trkpt>
      <trkpt lat="44.86612" lon="5.69907">
        <ele>587</ele>
        <time>2019-04-18T11:50:12Z</time>
      </trkpt>
      <trkpt lat="44.86607" lon="5.69904">
        <ele>588</ele>
        <time>2019-04-18T11:50:26Z</time>
      </trkpt>
      <trkpt lat="44.86603" lon="5.69902">
        <ele>589</ele>
        <time>2019-04-18T11:50:51Z</time>
      </trkpt>
      <trkpt lat="44.86596" lon="5.69893">
        <ele>588</ele>
        <time>2019-04-18T11:51:05Z</time>
      </trkpt>
      <trkpt lat="44.86587" lon="5.6988">
        <ele>587</ele>
        <time>2019-04-18T11:51:20Z</time>
      </trkpt>
      <trkpt lat="44.86579" lon="5.69872">
        <ele>600</ele>
        <time>2019-04-18T11:51:32Z</time>
      </trkpt>
      <trkpt lat="44.86572" lon="5.69864">
        <ele>599</ele>
        <time>2019-04-18T11:51:47Z</time>
      </trkpt>
      <trkpt lat="44.86567" lon="5.6986">
        <ele>599</ele>
        <time>2019-04-18T11:52:05Z</time>
      </trkpt>
      <trkpt lat="44.86562" lon="5.69846">
        <ele>598</ele>
        <time>2019-04-18T11:52:17Z</time>
      </trkpt>
      <trkpt lat="44.86556" lon="5.69838">
        <ele>599</ele>
        <time>2019-04-18T11:52:31Z</time>
      </trkpt>
      <trkpt lat="44.86556" lon="5.69838">
        <ele>599</ele>
        <time>2019-04-18T11:52:32Z</time>
      </trkpt>
      <trkpt lat="44.8655" lon="5.69823">
        <ele>598</ele>
        <time>2019-04-18T11:52:47Z</time>
      </trkpt>
      <trkpt lat="44.86549" lon="5.69818">
        <ele>598</ele>
        <time>2019-04-18T11:53:03Z</time>
      </trkpt>
      <trkpt lat="44.86547" lon="5.69816">
        <ele>599</ele>
        <time>2019-04-18T11:53:37Z</time>
      </trkpt>
      <trkpt lat="44.86546" lon="5.69817">
        <ele>599</ele>
        <time>2019-04-18T11:53:59Z</time>
      </trkpt>
      <trkpt lat="44.86538" lon="5.69819">
        <ele>600</ele>
        <time>2019-04-18T11:54:11Z</time>
      </trkpt>
      <trkpt lat="44.86534" lon="5.69812">
        <ele>601</ele>
        <time>2019-04-18T11:54:25Z</time>
      </trkpt>
      <trkpt lat="44.86533" lon="5.69805">
        <ele>601</ele>
        <time>2019-04-18T11:54:38Z</time>
      </trkpt>
      <trkpt lat="44.86531" lon="5.69805">
        <ele>601</ele>
        <time>2019-04-18T11:55:08Z</time>
      </trkpt>
      <trkpt lat="44.86533" lon="5.69798">
        <ele>601</ele>
        <time>2019-04-18T11:55:25Z</time>
      </trkpt>
      <trkpt lat="44.86533" lon="5.69786">
        <ele>601</ele>
        <time>2019-04-18T11:55:37Z</time>
      </trkpt>
      <trkpt lat="44.86532" lon="5.69781">
        <ele>601</ele>
        <time>2019-04-18T11:55:43Z</time>
      </trkpt>
      <trkpt lat="44.86532" lon="5.69781">
        <ele>601</ele>
        <time>2019-04-18T11:55:44Z</time>
      </trkpt>
      <trkpt lat="44.86532" lon="5.6978">
        <ele>602</ele>
        <time>2019-04-18T11:55:45Z</time>
      </trkpt>
      <trkpt lat="44.8653" lon="5.69779">
        <ele>602</ele>
        <time>2019-04-18T11:55:46Z</time>
      </trkpt>
      <trkpt lat="44.8653" lon="5.69779">
        <ele>602</ele>
        <time>2019-04-18T11:55:47Z</time>
      </trkpt>
      <trkpt lat="44.8653" lon="5.69779">
        <ele>602</ele>
        <time>2019-04-18T11:55:48Z</time>
      </trkpt>
      <trkpt lat="44.8653" lon="5.69779">
        <ele>602</ele>
        <time>2019-04-18T11:55:49Z</time>
      </trkpt>
      <trkpt lat="44.86528" lon="5.69776">
        <ele>602</ele>
        <time>2019-04-18T11:55:51Z</time>
      </trkpt>
      <trkpt lat="44.86524" lon="5.69771">
        <ele>603</ele>
        <time>2019-04-18T11:55:58Z</time>
      </trkpt>
      <trkpt lat="44.86524" lon="5.6977">
        <ele>603</ele>
        <time>2019-04-18T11:55:59Z</time>
      </trkpt>
      <trkpt lat="44.86524" lon="5.6977">
        <ele>603</ele>
        <time>2019-04-18T11:56:00Z</time>
      </trkpt>
      <trkpt lat="44.86524" lon="5.69769">
        <ele>603</ele>
        <time>2019-04-18T11:56:02Z</time>
      </trkpt>
      <trkpt lat="44.86523" lon="5.69759">
        <ele>604</ele>
        <time>2019-04-18T11:56:14Z</time>
      </trkpt>
      <trkpt lat="44.86524" lon="5.69756">
        <ele>604</ele>
        <time>2019-04-18T11:56:19Z</time>
      </trkpt>
      <trkpt lat="44.86524" lon="5.69756">
        <ele>604</ele>
        <time>2019-04-18T11:56:20Z</time>
      </trkpt>
      <trkpt lat="44.86524" lon="5.69755">
        <ele>604</ele>
        <time>2019-04-18T11:56:21Z</time>
      </trkpt>
      <trkpt lat="44.86524" lon="5.69754">
        <ele>604</ele>
        <time>2019-04-18T11:56:22Z</time>
      </trkpt>
      <trkpt lat="44.86525" lon="5.69752">
        <ele>604</ele>
        <time>2019-04-18T11:56:27Z</time>
      </trkpt>
      <trkpt lat="44.86525" lon="5.69751">
        <ele>604</ele>
        <time>2019-04-18T11:56:28Z</time>
      </trkpt>
      <trkpt lat="44.86525" lon="5.69749">
        <ele>607</ele>
        <time>2019-04-18T11:56:29Z</time>
      </trkpt>
      <trkpt lat="44.86525" lon="5.69748">
        <ele>607</ele>
        <time>2019-04-18T11:56:30Z</time>
      </trkpt>
      <trkpt lat="44.86525" lon="5.69747">
        <ele>607</ele>
        <time>2019-04-18T11:56:31Z</time>
      </trkpt>
      <trkpt lat="44.86525" lon="5.69744">
        <ele>607</ele>
        <time>2019-04-18T11:56:33Z</time>
      </trkpt>
      <trkpt lat="44.86525" lon="5.69744">
        <ele>607</ele>
        <time>2019-04-18T11:56:35Z</time>
      </trkpt>
      <trkpt lat="44.86525" lon="5.69743">
        <ele>607</ele>
        <time>2019-04-18T11:56:36Z</time>
      </trkpt>
      <trkpt lat="44.86525" lon="5.69741">
        <ele>607</ele>
        <time>2019-04-18T11:56:37Z</time>
      </trkpt>
      <trkpt lat="44.86525" lon="5.69741">
        <ele>607</ele>
        <time>2019-04-18T11:56:38Z</time>
      </trkpt>
      <trkpt lat="44.86525" lon="5.69741">
        <ele>607</ele>
        <time>2019-04-18T11:56:39Z</time>
      </trkpt>
      <trkpt lat="44.86525" lon="5.69741">
        <ele>607</ele>
        <time>2019-04-18T11:56:40Z</time>
      </trkpt>
      <trkpt lat="44.86525" lon="5.69741">
        <ele>607</ele>
        <time>2019-04-18T11:56:41Z</time>
      </trkpt>
      <trkpt lat="44.86526" lon="5.69739">
        <ele>607</ele>
        <time>2019-04-18T11:56:42Z</time>
      </trkpt>
      <trkpt lat="44.86526" lon="5.69739">
        <ele>607</ele>
        <time>2019-04-18T11:56:44Z</time>
      </trkpt>
      <trkpt lat="44.86525" lon="5.69728">
        <ele>607</ele>
        <time>2019-04-18T11:56:54Z</time>
      </trkpt>
      <trkpt lat="44.86524" lon="5.69718">
        <ele>607</ele>
        <time>2019-04-18T11:57:06Z</time>
      </trkpt>
      <trkpt lat="44.86523" lon="5.69708">
        <ele>608</ele>
        <time>2019-04-18T11:57:17Z</time>
      </trkpt>
      <trkpt lat="44.86524" lon="5.69704">
        <ele>608</ele>
        <time>2019-04-18T11:57:22Z</time>
      </trkpt>
      <trkpt lat="44.86524" lon="5.69703">
        <ele>608</ele>
        <time>2019-04-18T11:57:23Z</time>
      </trkpt>
      <trkpt lat="44.86524" lon="5.69703">
        <ele>608</ele>
        <time>2019-04-18T11:57:24Z</time>
      </trkpt>
      <trkpt lat="44.86528" lon="5.69698">
        <ele>608</ele>
        <time>2019-04-18T11:57:39Z</time>
      </trkpt>
      <trkpt lat="44.86534" lon="5.69696">
        <ele>608</ele>
        <time>2019-04-18T11:57:49Z</time>
      </trkpt>
      <trkpt lat="44.86546" lon="5.69697">
        <ele>607</ele>
        <time>2019-04-18T11:58:02Z</time>
      </trkpt>
      <trkpt lat="44.86552" lon="5.69694">
        <ele>606</ele>
        <time>2019-04-18T11:58:14Z</time>
      </trkpt>
      <trkpt lat="44.86558" lon="5.69692">
        <ele>606</ele>
        <time>2019-04-18T11:58:21Z</time>
      </trkpt>
      <trkpt lat="44.8657" lon="5.69682">
        <ele>605</ele>
        <time>2019-04-18T11:58:34Z</time>
      </trkpt>
      <trkpt lat="44.86579" lon="5.69672">
        <ele>605</ele>
        <time>2019-04-18T11:58:47Z</time>
      </trkpt>
      <trkpt lat="44.86586" lon="5.69668">
        <ele>604</ele>
        <time>2019-04-18T11:58:58Z</time>
      </trkpt>
      <trkpt lat="44.86588" lon="5.69665">
        <ele>605</ele>
        <time>2019-04-18T11:59:03Z</time>
      </trkpt>
      <trkpt lat="44.86589" lon="5.69664">
        <ele>605</ele>
        <time>2019-04-18T11:59:04Z</time>
      </trkpt>
      <trkpt lat="44.86589" lon="5.69663">
        <ele>606</ele>
        <time>2019-04-18T11:59:05Z</time>
      </trkpt>
      <trkpt lat="44.8659" lon="5.69662">
        <ele>606</ele>
        <time>2019-04-18T11:59:06Z</time>
      </trkpt>
      <trkpt lat="44.8659" lon="5.69662">
        <ele>606</ele>
        <time>2019-04-18T11:59:07Z</time>
      </trkpt>
      <trkpt lat="44.86592" lon="5.69662">
        <ele>606</ele>
        <time>2019-04-18T11:59:09Z</time>
      </trkpt>
      <trkpt lat="44.86592" lon="5.69662">
        <ele>606</ele>
        <time>2019-04-18T11:59:10Z</time>
      </trkpt>
      <trkpt lat="44.86601" lon="5.69662">
        <ele>606</ele>
        <time>2019-04-18T11:59:20Z</time>
      </trkpt>
      <trkpt lat="44.86602" lon="5.69662">
        <ele>606</ele>
        <time>2019-04-18T11:59:21Z</time>
      </trkpt>
      <trkpt lat="44.86603" lon="5.69661">
        <ele>606</ele>
        <time>2019-04-18T11:59:22Z</time>
      </trkpt>
      <trkpt lat="44.86604" lon="5.69661">
        <ele>606</ele>
        <time>2019-04-18T11:59:23Z</time>
      </trkpt>
      <trkpt lat="44.86605" lon="5.6966">
        <ele>606</ele>
        <time>2019-04-18T11:59:24Z</time>
      </trkpt>
      <trkpt lat="44.86606" lon="5.69659">
        <ele>606</ele>
        <time>2019-04-18T11:59:25Z</time>
      </trkpt>
      <trkpt lat="44.86606" lon="5.69659">
        <ele>606</ele>
        <time>2019-04-18T11:59:26Z</time>
      </trkpt>
      <trkpt lat="44.86609" lon="5.69658">
        <ele>606</ele>
        <time>2019-04-18T11:59:31Z</time>
      </trkpt>
      <trkpt lat="44.8661" lon="5.69656">
        <ele>606</ele>
        <time>2019-04-18T11:59:32Z</time>
      </trkpt>
      <trkpt lat="44.86611" lon="5.69654">
        <ele>606</ele>
        <time>2019-04-18T11:59:33Z</time>
      </trkpt>
      <trkpt lat="44.86621" lon="5.69647">
        <ele>606</ele>
        <time>2019-04-18T11:59:46Z</time>
      </trkpt>
      <trkpt lat="44.86622" lon="5.69646">
        <ele>606</ele>
        <time>2019-04-18T11:59:47Z</time>
      </trkpt>
      <trkpt lat="44.86623" lon="5.69645">
        <ele>606</ele>
        <time>2019-04-18T11:59:48Z</time>
      </trkpt>
      <trkpt lat="44.86624" lon="5.69644">
        <ele>606</ele>
        <time>2019-04-18T11:59:49Z</time>
      </trkpt>
      <trkpt lat="44.86624" lon="5.69644">
        <ele>606</ele>
        <time>2019-04-18T11:59:51Z</time>
      </trkpt>
      <trkpt lat="44.86627" lon="5.69639">
        <ele>606</ele>
        <time>2019-04-18T12:00:07Z</time>
      </trkpt>
      <trkpt lat="44.86628" lon="5.69631">
        <ele>607</ele>
        <time>2019-04-18T12:00:19Z</time>
      </trkpt>
      <trkpt lat="44.86628" lon="5.69627">
        <ele>607</ele>
        <time>2019-04-18T12:00:35Z</time>
      </trkpt>
      <trkpt lat="44.86629" lon="5.69625">
        <ele>607</ele>
        <time>2019-04-18T12:00:59Z</time>
      </trkpt>
      <trkpt lat="44.86628" lon="5.69623">
        <ele>607</ele>
        <time>2019-04-18T12:01:23Z</time>
      </trkpt>
      <trkpt lat="44.86628" lon="5.69625">
        <ele>607</ele>
        <time>2019-04-18T12:02:00Z</time>
      </trkpt>
      <trkpt lat="44.86628" lon="5.69624">
        <ele>607</ele>
        <time>2019-04-18T12:02:28Z</time>
      </trkpt>
      <trkpt lat="44.86627" lon="5.69623">
        <ele>607</ele>
        <time>2019-04-18T12:02:54Z</time>
      </trkpt>
      <trkpt lat="44.86628" lon="5.69623">
        <ele>607</ele>
        <time>2019-04-18T12:03:28Z</time>
      </trkpt>
      <trkpt lat="44.86629" lon="5.69622">
        <ele>607</ele>
        <time>2019-04-18T12:03:59Z</time>
      </trkpt>
      <trkpt lat="44.86629" lon="5.6962">
        <ele>607</ele>
        <time>2019-04-18T12:04:21Z</time>
      </trkpt>
      <trkpt lat="44.8663" lon="5.6962">
        <ele>607</ele>
        <time>2019-04-18T12:04:48Z</time>
      </trkpt>
      <trkpt lat="44.8663" lon="5.69613">
        <ele>607</ele>
        <time>2019-04-18T12:05:06Z</time>
      </trkpt>
      <trkpt lat="44.86627" lon="5.6961">
        <ele>608</ele>
        <time>2019-04-18T12:05:10Z</time>
      </trkpt>
      <trkpt lat="44.86618" lon="5.69601">
        <ele>609</ele>
        <time>2019-04-18T12:05:20Z</time>
      </trkpt>
      <trkpt lat="44.86611" lon="5.69595">
        <ele>610</ele>
        <time>2019-04-18T12:05:32Z</time>
      </trkpt>
      <trkpt lat="44.86608" lon="5.69583">
        <ele>616</ele>
        <time>2019-04-18T12:05:45Z</time>
      </trkpt>
      <trkpt lat="44.86609" lon="5.69579">
        <ele>616</ele>
        <time>2019-04-18T12:05:48Z</time>
      </trkpt>
      <trkpt lat="44.86614" lon="5.69568">
        <ele>616</ele>
        <time>2019-04-18T12:06:01Z</time>
      </trkpt>
      <trkpt lat="44.86618" lon="5.69559">
        <ele>616</ele>
        <time>2019-04-18T12:06:11Z</time>
      </trkpt>
      <trkpt lat="44.86623" lon="5.69546">
        <ele>616</ele>
        <time>2019-04-18T12:06:22Z</time>
      </trkpt>
      <trkpt lat="44.86625" lon="5.69532">
        <ele>616</ele>
        <time>2019-04-18T12:06:35Z</time>
      </trkpt>
      <trkpt lat="44.86627" lon="5.6952">
        <ele>617</ele>
        <time>2019-04-18T12:06:44Z</time>
      </trkpt>
      <trkpt lat="44.86628" lon="5.69518">
        <ele>617</ele>
        <time>2019-04-18T12:06:45Z</time>
      </trkpt>
      <trkpt lat="44.86628" lon="5.69517">
        <ele>617</ele>
        <time>2019-04-18T12:06:46Z</time>
      </trkpt>
      <trkpt lat="44.86628" lon="5.69517">
        <ele>617</ele>
        <time>2019-04-18T12:06:47Z</time>
      </trkpt>
      <trkpt lat="44.86629" lon="5.69516">
        <ele>617</ele>
        <time>2019-04-18T12:06:48Z</time>
      </trkpt>
      <trkpt lat="44.86629" lon="5.69515">
        <ele>617</ele>
        <time>2019-04-18T12:06:49Z</time>
      </trkpt>
      <trkpt lat="44.8663" lon="5.69513">
        <ele>617</ele>
        <time>2019-04-18T12:06:53Z</time>
      </trkpt>
      <trkpt lat="44.86631" lon="5.69495">
        <ele>621</ele>
        <time>2019-04-18T12:07:05Z</time>
      </trkpt>
      <trkpt lat="44.86632" lon="5.69482">
        <ele>622</ele>
        <time>2019-04-18T12:07:16Z</time>
      </trkpt>
      <trkpt lat="44.86629" lon="5.69477">
        <ele>622</ele>
        <time>2019-04-18T12:07:20Z</time>
      </trkpt>
      <trkpt lat="44.8662" lon="5.6948">
        <ele>623</ele>
        <time>2019-04-18T12:07:30Z</time>
      </trkpt>
      <trkpt lat="44.86617" lon="5.69486">
        <ele>623</ele>
        <time>2019-04-18T12:07:36Z</time>
      </trkpt>
      <trkpt lat="44.86617" lon="5.69487">
        <ele>623</ele>
        <time>2019-04-18T12:07:37Z</time>
      </trkpt>
      <trkpt lat="44.86616" lon="5.69488">
        <ele>623</ele>
        <time>2019-04-18T12:07:38Z</time>
      </trkpt>
      <trkpt lat="44.86615" lon="5.69488">
        <ele>623</ele>
        <time>2019-04-18T12:07:39Z</time>
      </trkpt>
      <trkpt lat="44.86615" lon="5.69489">
        <ele>623</ele>
        <time>2019-04-18T12:07:40Z</time>
      </trkpt>
      <trkpt lat="44.86615" lon="5.6949">
        <ele>623</ele>
        <time>2019-04-18T12:07:41Z</time>
      </trkpt>
      <trkpt lat="44.86614" lon="5.69491">
        <ele>623</ele>
        <time>2019-04-18T12:07:42Z</time>
      </trkpt>
      <trkpt lat="44.86614" lon="5.69491">
        <ele>623</ele>
        <time>2019-04-18T12:07:43Z</time>
      </trkpt>
      <trkpt lat="44.86613" lon="5.69492">
        <ele>623</ele>
        <time>2019-04-18T12:07:44Z</time>
      </trkpt>
      <trkpt lat="44.86613" lon="5.69492">
        <ele>623</ele>
        <time>2019-04-18T12:07:45Z</time>
      </trkpt>
      <trkpt lat="44.86612" lon="5.69493">
        <ele>623</ele>
        <time>2019-04-18T12:07:46Z</time>
      </trkpt>
      <trkpt lat="44.86612" lon="5.69495">
        <ele>623</ele>
        <time>2019-04-18T12:07:47Z</time>
      </trkpt>
      <trkpt lat="44.86611" lon="5.69496">
        <ele>623</ele>
        <time>2019-04-18T12:07:48Z</time>
      </trkpt>
      <trkpt lat="44.86611" lon="5.69497">
        <ele>623</ele>
        <time>2019-04-18T12:07:49Z</time>
      </trkpt>
      <trkpt lat="44.8661" lon="5.69498">
        <ele>623</ele>
        <time>2019-04-18T12:07:50Z</time>
      </trkpt>
      <trkpt lat="44.86609" lon="5.69499">
        <ele>623</ele>
        <time>2019-04-18T12:07:51Z</time>
      </trkpt>
      <trkpt lat="44.86609" lon="5.695">
        <ele>620</ele>
        <time>2019-04-18T12:07:52Z</time>
      </trkpt>
      <trkpt lat="44.86607" lon="5.69506">
        <ele>620</ele>
        <time>2019-04-18T12:07:57Z</time>
      </trkpt>
      <trkpt lat="44.86606" lon="5.69508">
        <ele>620</ele>
        <time>2019-04-18T12:07:58Z</time>
      </trkpt>
      <trkpt lat="44.86605" lon="5.69509">
        <ele>620</ele>
        <time>2019-04-18T12:07:59Z</time>
      </trkpt>
      <trkpt lat="44.86605" lon="5.69511">
        <ele>620</ele>
        <time>2019-04-18T12:08:00Z</time>
      </trkpt>
      <trkpt lat="44.86604" lon="5.69512">
        <ele>620</ele>
        <time>2019-04-18T12:08:01Z</time>
      </trkpt>
      <trkpt lat="44.86603" lon="5.69513">
        <ele>620</ele>
        <time>2019-04-18T12:08:02Z</time>
      </trkpt>
      <trkpt lat="44.86603" lon="5.69515">
        <ele>620</ele>
        <time>2019-04-18T12:08:03Z</time>
      </trkpt>
      <trkpt lat="44.86603" lon="5.69516">
        <ele>620</ele>
        <time>2019-04-18T12:08:04Z</time>
      </trkpt>
      <trkpt lat="44.86602" lon="5.69518">
        <ele>620</ele>
        <time>2019-04-18T12:08:06Z</time>
      </trkpt>
      <trkpt lat="44.86601" lon="5.69519">
        <ele>620</ele>
        <time>2019-04-18T12:08:07Z</time>
      </trkpt>
      <trkpt lat="44.86599" lon="5.69521">
        <ele>619</ele>
        <time>2019-04-18T12:08:09Z</time>
      </trkpt>
      <trkpt lat="44.86598" lon="5.69523">
        <ele>619</ele>
        <time>2019-04-18T12:08:10Z</time>
      </trkpt>
      <trkpt lat="44.86598" lon="5.69524">
        <ele>619</ele>
        <time>2019-04-18T12:08:11Z</time>
      </trkpt>
      <trkpt lat="44.86597" lon="5.69525">
        <ele>619</ele>
        <time>2019-04-18T12:08:12Z</time>
      </trkpt>
      <trkpt lat="44.86596" lon="5.69525">
        <ele>619</ele>
        <time>2019-04-18T12:08:13Z</time>
      </trkpt>
      <trkpt lat="44.86594" lon="5.69527">
        <ele>619</ele>
        <time>2019-04-18T12:08:15Z</time>
      </trkpt>
      <trkpt lat="44.86583" lon="5.69531">
        <ele>625</ele>
        <time>2019-04-18T12:08:25Z</time>
      </trkpt>
      <trkpt lat="44.86582" lon="5.69531">
        <ele>625</ele>
        <time>2019-04-18T12:08:26Z</time>
      </trkpt>
      <trkpt lat="44.86581" lon="5.69531">
        <ele>625</ele>
        <time>2019-04-18T12:08:27Z</time>
      </trkpt>
      <trkpt lat="44.8658" lon="5.69531">
        <ele>625</ele>
        <time>2019-04-18T12:08:28Z</time>
      </trkpt>
      <trkpt lat="44.86579" lon="5.69531">
        <ele>625</ele>
        <time>2019-04-18T12:08:29Z</time>
      </trkpt>
      <trkpt lat="44.86579" lon="5.69531">
        <ele>625</ele>
        <time>2019-04-18T12:08:30Z</time>
      </trkpt>
      <trkpt lat="44.86578" lon="5.69531">
        <ele>625</ele>
        <time>2019-04-18T12:08:31Z</time>
      </trkpt>
      <trkpt lat="44.86577" lon="5.69531">
        <ele>625</ele>
        <time>2019-04-18T12:08:32Z</time>
      </trkpt>
      <trkpt lat="44.86576" lon="5.69531">
        <ele>625</ele>
        <time>2019-04-18T12:08:33Z</time>
      </trkpt>
      <trkpt lat="44.86575" lon="5.69531">
        <ele>625</ele>
        <time>2019-04-18T12:08:34Z</time>
      </trkpt>
      <trkpt lat="44.86574" lon="5.69531">
        <ele>625</ele>
        <time>2019-04-18T12:08:35Z</time>
      </trkpt>
      <trkpt lat="44.86573" lon="5.6953">
        <ele>625</ele>
        <time>2019-04-18T12:08:36Z</time>
      </trkpt>
      <trkpt lat="44.86572" lon="5.6953">
        <ele>625</ele>
        <time>2019-04-18T12:08:37Z</time>
      </trkpt>
      <trkpt lat="44.86571" lon="5.6953">
        <ele>625</ele>
        <time>2019-04-18T12:08:38Z</time>
      </trkpt>
      <trkpt lat="44.86569" lon="5.69531">
        <ele>625</ele>
        <time>2019-04-18T12:08:40Z</time>
      </trkpt>
      <trkpt lat="44.86569" lon="5.69531">
        <ele>625</ele>
        <time>2019-04-18T12:08:41Z</time>
      </trkpt>
      <trkpt lat="44.86567" lon="5.6953">
        <ele>625</ele>
        <time>2019-04-18T12:08:43Z</time>
      </trkpt>
      <trkpt lat="44.86566" lon="5.6953">
        <ele>625</ele>
        <time>2019-04-18T12:08:44Z</time>
      </trkpt>
      <trkpt lat="44.86565" lon="5.6953">
        <ele>625</ele>
        <time>2019-04-18T12:08:45Z</time>
      </trkpt>
      <trkpt lat="44.86564" lon="5.69529">
        <ele>625</ele>
        <time>2019-04-18T12:08:46Z</time>
      </trkpt>
      <trkpt lat="44.86563" lon="5.69529">
        <ele>625</ele>
        <time>2019-04-18T12:08:47Z</time>
      </trkpt>
      <trkpt lat="44.86562" lon="5.69529">
        <ele>625</ele>
        <time>2019-04-18T12:08:48Z</time>
      </trkpt>
      <trkpt lat="44.86559" lon="5.69527">
        <ele>626</ele>
        <time>2019-04-18T12:08:51Z</time>
      </trkpt>
      <trkpt lat="44.86558" lon="5.69527">
        <ele>626</ele>
        <time>2019-04-18T12:08:52Z</time>
      </trkpt>
      <trkpt lat="44.86557" lon="5.69527">
        <ele>626</ele>
        <time>2019-04-18T12:08:53Z</time>
      </trkpt>
      <trkpt lat="44.86557" lon="5.69527">
        <ele>626</ele>
        <time>2019-04-18T12:08:54Z</time>
      </trkpt>
      <trkpt lat="44.86555" lon="5.69526">
        <ele>626</ele>
        <time>2019-04-18T12:08:56Z</time>
      </trkpt>
      <trkpt lat="44.86543" lon="5.6952">
        <ele>627</ele>
        <time>2019-04-18T12:09:09Z</time>
      </trkpt>
      <trkpt lat="44.86542" lon="5.6952">
        <ele>627</ele>
        <time>2019-04-18T12:09:10Z</time>
      </trkpt>
      <trkpt lat="44.86541" lon="5.69519">
        <ele>627</ele>
        <time>2019-04-18T12:09:11Z</time>
      </trkpt>
      <trkpt lat="44.86532" lon="5.69512">
        <ele>628</ele>
        <time>2019-04-18T12:09:23Z</time>
      </trkpt>
      <trkpt lat="44.86528" lon="5.69507">
        <ele>628</ele>
        <time>2019-04-18T12:09:31Z</time>
      </trkpt>
      <trkpt lat="44.86521" lon="5.69502">
        <ele>629</ele>
        <time>2019-04-18T12:09:43Z</time>
      </trkpt>
      <trkpt lat="44.86518" lon="5.69499">
        <ele>634</ele>
        <time>2019-04-18T12:09:54Z</time>
      </trkpt>
      <trkpt lat="44.86516" lon="5.69497">
        <ele>634</ele>
        <time>2019-04-18T12:10:08Z</time>
      </trkpt>
      <trkpt lat="44.8651" lon="5.69492">
        <ele>634</ele>
        <time>2019-04-18T12:10:20Z</time>
      </trkpt>
      <trkpt lat="44.86502" lon="5.69486">
        <ele>634</ele>
        <time>2019-04-18T12:10:33Z</time>
      </trkpt>
      <trkpt lat="44.865" lon="5.69483">
        <ele>634</ele>
        <time>2019-04-18T12:10:44Z</time>
      </trkpt>
      <trkpt lat="44.865" lon="5.69483">
        <ele>634</ele>
        <time>2019-04-18T12:11:09Z</time>
      </trkpt>
      <trkpt lat="44.86501" lon="5.69483">
        <ele>634</ele>
        <time>2019-04-18T12:11:41Z</time>
      </trkpt>
      <trkpt lat="44.86502" lon="5.69484">
        <ele>634</ele>
        <time>2019-04-18T12:12:14Z</time>
      </trkpt>
      <trkpt lat="44.86502" lon="5.69485">
        <ele>634</ele>
        <time>2019-04-18T12:12:48Z</time>
      </trkpt>
      <trkpt lat="44.86502" lon="5.69484">
        <ele>634</ele>
        <time>2019-04-18T12:13:17Z</time>
      </trkpt>
      <trkpt lat="44.86502" lon="5.69485">
        <ele>634</ele>
        <time>2019-04-18T12:13:49Z</time>
      </trkpt>
      <trkpt lat="44.86502" lon="5.69485">
        <ele>634</ele>
        <time>2019-04-18T12:14:19Z</time>
      </trkpt>
      <trkpt lat="44.86494" lon="5.69479">
        <ele>640</ele>
        <time>2019-04-18T12:14:37Z</time>
      </trkpt>
      <trkpt lat="44.86482" lon="5.69466">
        <ele>642</ele>
        <time>2019-04-18T12:14:53Z</time>
      </trkpt>
      <trkpt lat="44.8648" lon="5.69463">
        <ele>643</ele>
        <time>2019-04-18T12:14:56Z</time>
      </trkpt>
      <trkpt lat="44.86473" lon="5.69454">
        <ele>644</ele>
        <time>2019-04-18T12:15:06Z</time>
      </trkpt>
      <trkpt lat="44.86468" lon="5.69448">
        <ele>644</ele>
        <time>2019-04-18T12:15:14Z</time>
      </trkpt>
      <trkpt lat="44.8646" lon="5.69439">
        <ele>645</ele>
        <time>2019-04-18T12:15:28Z</time>
      </trkpt>
      <trkpt lat="44.86449" lon="5.69431">
        <ele>646</ele>
        <time>2019-04-18T12:15:43Z</time>
      </trkpt>
      <trkpt lat="44.86445" lon="5.69428">
        <ele>647</ele>
        <time>2019-04-18T12:15:51Z</time>
      </trkpt>
      <trkpt lat="44.8644" lon="5.6942">
        <ele>648</ele>
        <time>2019-04-18T12:16:05Z</time>
      </trkpt>
      <trkpt lat="44.8643" lon="5.69414">
        <ele>652</ele>
        <time>2019-04-18T12:16:19Z</time>
      </trkpt>
      <trkpt lat="44.86422" lon="5.69412">
        <ele>652</ele>
        <time>2019-04-18T12:16:28Z</time>
      </trkpt>
      <trkpt lat="44.86422" lon="5.69411">
        <ele>652</ele>
        <time>2019-04-18T12:16:30Z</time>
      </trkpt>
      <trkpt lat="44.86412" lon="5.69408">
        <ele>656</ele>
        <time>2019-04-18T12:16:42Z</time>
      </trkpt>
      <trkpt lat="44.86404" lon="5.6941">
        <ele>658</ele>
        <time>2019-04-18T12:16:55Z</time>
      </trkpt>
      <trkpt lat="44.86404" lon="5.6941">
        <ele>658</ele>
        <time>2019-04-18T12:16:56Z</time>
      </trkpt>
      <trkpt lat="44.86403" lon="5.6941">
        <ele>658</ele>
        <time>2019-04-18T12:16:57Z</time>
      </trkpt>
      <trkpt lat="44.86403" lon="5.6941">
        <ele>658</ele>
        <time>2019-04-18T12:16:58Z</time>
      </trkpt>
      <trkpt lat="44.86402" lon="5.6941">
        <ele>658</ele>
        <time>2019-04-18T12:16:59Z</time>
      </trkpt>
      <trkpt lat="44.86401" lon="5.6941">
        <ele>658</ele>
        <time>2019-04-18T12:17:00Z</time>
      </trkpt>
      <trkpt lat="44.8639" lon="5.69409">
        <ele>660</ele>
        <time>2019-04-18T12:17:13Z</time>
      </trkpt>
      <trkpt lat="44.8638" lon="5.6941">
        <ele>662</ele>
        <time>2019-04-18T12:17:28Z</time>
      </trkpt>
      <trkpt lat="44.86371" lon="5.69411">
        <ele>663</ele>
        <time>2019-04-18T12:17:42Z</time>
      </trkpt>
      <trkpt lat="44.86362" lon="5.69406">
        <ele>665</ele>
        <time>2019-04-18T12:17:56Z</time>
      </trkpt>
      <trkpt lat="44.86358" lon="5.69398">
        <ele>665</ele>
        <time>2019-04-18T12:18:09Z</time>
      </trkpt>
      <trkpt lat="44.86355" lon="5.69395">
        <ele>665</ele>
        <time>2019-04-18T12:18:22Z</time>
      </trkpt>
      <trkpt lat="44.8635" lon="5.69387">
        <ele>666</ele>
        <time>2019-04-18T12:18:32Z</time>
      </trkpt>
      <trkpt lat="44.86346" lon="5.69378">
        <ele>666</ele>
        <time>2019-04-18T12:18:39Z</time>
      </trkpt>
      <trkpt lat="44.86346" lon="5.69363">
        <ele>667</ele>
        <time>2019-04-18T12:18:51Z</time>
      </trkpt>
      <trkpt lat="44.86346" lon="5.69348">
        <ele>668</ele>
        <time>2019-04-18T12:19:05Z</time>
      </trkpt>
      <trkpt lat="44.86345" lon="5.69341">
        <ele>669</ele>
        <time>2019-04-18T12:19:11Z</time>
      </trkpt>
      <trkpt lat="44.86345" lon="5.6934">
        <ele>669</ele>
        <time>2019-04-18T12:19:12Z</time>
      </trkpt>
      <trkpt lat="44.86345" lon="5.69339">
        <ele>669</ele>
        <time>2019-04-18T12:19:13Z</time>
      </trkpt>
      <trkpt lat="44.86346" lon="5.69335">
        <ele>669</ele>
        <time>2019-04-18T12:19:17Z</time>
      </trkpt>
      <trkpt lat="44.86346" lon="5.6933">
        <ele>670</ele>
        <time>2019-04-18T12:19:21Z</time>
      </trkpt>
      <trkpt lat="44.86348" lon="5.69318">
        <ele>669</ele>
        <time>2019-04-18T12:19:30Z</time>
      </trkpt>
      <trkpt lat="44.86348" lon="5.69313">
        <ele>669</ele>
        <time>2019-04-18T12:19:34Z</time>
      </trkpt>
      <trkpt lat="44.86353" lon="5.69294">
        <ele>668</ele>
        <time>2019-04-18T12:19:49Z</time>
      </trkpt>
      <trkpt lat="44.8636" lon="5.69275">
        <ele>667</ele>
        <time>2019-04-18T12:20:05Z</time>
      </trkpt>
      <trkpt lat="44.86367" lon="5.69256">
        <ele>667</ele>
        <time>2019-04-18T12:20:22Z</time>
      </trkpt>
      <trkpt lat="44.8638" lon="5.6924">
        <ele>667</ele>
        <time>2019-04-18T12:20:39Z</time>
      </trkpt>
      <trkpt lat="44.86393" lon="5.69226">
        <ele>666</ele>
        <time>2019-04-18T12:20:55Z</time>
      </trkpt>
      <trkpt lat="44.86415" lon="5.6921">
        <ele>666</ele>
        <time>2019-04-18T12:21:18Z</time>
      </trkpt>
      <trkpt lat="44.86428" lon="5.69199">
        <ele>658</ele>
        <time>2019-04-18T12:21:34Z</time>
      </trkpt>
      <trkpt lat="44.86431" lon="5.69195">
        <ele>658</ele>
        <time>2019-04-18T12:21:38Z</time>
      </trkpt>
      <trkpt lat="44.86432" lon="5.69192">
        <ele>658</ele>
        <time>2019-04-18T12:21:40Z</time>
      </trkpt>
      <trkpt lat="44.86437" lon="5.69185">
        <ele>658</ele>
        <time>2019-04-18T12:21:48Z</time>
      </trkpt>
      <trkpt lat="44.86441" lon="5.69183">
        <ele>658</ele>
        <time>2019-04-18T12:21:51Z</time>
      </trkpt>
      <trkpt lat="44.86459" lon="5.69169">
        <ele>656</ele>
        <time>2019-04-18T12:22:08Z</time>
      </trkpt>
      <trkpt lat="44.86477" lon="5.69157">
        <ele>656</ele>
        <time>2019-04-18T12:22:26Z</time>
      </trkpt>
      <trkpt lat="44.86485" lon="5.69151">
        <ele>655</ele>
        <time>2019-04-18T12:22:35Z</time>
      </trkpt>
      <trkpt lat="44.86497" lon="5.69135">
        <ele>656</ele>
        <time>2019-04-18T12:22:50Z</time>
      </trkpt>
      <trkpt lat="44.86508" lon="5.69113">
        <ele>648</ele>
        <time>2019-04-18T12:23:06Z</time>
      </trkpt>
      <trkpt lat="44.86509" lon="5.69108">
        <ele>649</ele>
        <time>2019-04-18T12:23:10Z</time>
      </trkpt>
      <trkpt lat="44.86522" lon="5.69086">
        <ele>649</ele>
        <time>2019-04-18T12:23:26Z</time>
      </trkpt>
      <trkpt lat="44.86524" lon="5.69082">
        <ele>652</ele>
        <time>2019-04-18T12:23:30Z</time>
      </trkpt>
      <trkpt lat="44.86528" lon="5.69077">
        <ele>652</ele>
        <time>2019-04-18T12:23:33Z</time>
      </trkpt>
      <trkpt lat="44.86529" lon="5.69076">
        <ele>651</ele>
        <time>2019-04-18T12:23:34Z</time>
      </trkpt>
      <trkpt lat="44.8653" lon="5.69075">
        <ele>651</ele>
        <time>2019-04-18T12:23:35Z</time>
      </trkpt>
      <trkpt lat="44.8653" lon="5.69074">
        <ele>651</ele>
        <time>2019-04-18T12:23:36Z</time>
      </trkpt>
      <trkpt lat="44.86532" lon="5.6907">
        <ele>651</ele>
        <time>2019-04-18T12:23:39Z</time>
      </trkpt>
      <trkpt lat="44.86532" lon="5.69069">
        <ele>651</ele>
        <time>2019-04-18T12:23:40Z</time>
      </trkpt>
      <trkpt lat="44.86534" lon="5.69052">
        <ele>651</ele>
        <time>2019-04-18T12:23:57Z</time>
      </trkpt>
      <trkpt lat="44.86524" lon="5.69046">
        <ele>652</ele>
        <time>2019-04-18T12:24:13Z</time>
      </trkpt>
      <trkpt lat="44.86523" lon="5.69046">
        <ele>652</ele>
        <time>2019-04-18T12:24:14Z</time>
      </trkpt>
      <trkpt lat="44.86513" lon="5.69036">
        <ele>653</ele>
        <time>2019-04-18T12:24:25Z</time>
      </trkpt>
      <trkpt lat="44.86507" lon="5.69036">
        <ele>653</ele>
        <time>2019-04-18T12:24:31Z</time>
      </trkpt>
      <trkpt lat="44.86502" lon="5.69034">
        <ele>653</ele>
        <time>2019-04-18T12:24:36Z</time>
      </trkpt>
      <trkpt lat="44.86495" lon="5.69028">
        <ele>658</ele>
        <time>2019-04-18T12:24:47Z</time>
      </trkpt>
      <trkpt lat="44.86493" lon="5.69026">
        <ele>658</ele>
        <time>2019-04-18T12:24:51Z</time>
      </trkpt>
      <trkpt lat="44.86482" lon="5.6902">
        <ele>659</ele>
        <time>2019-04-18T12:25:01Z</time>
      </trkpt>
      <trkpt lat="44.86479" lon="5.69017">
        <ele>659</ele>
        <time>2019-04-18T12:25:04Z</time>
      </trkpt>
      <trkpt lat="44.86474" lon="5.69014">
        <ele>659</ele>
        <time>2019-04-18T12:25:11Z</time>
      </trkpt>
      <trkpt lat="44.86468" lon="5.69008">
        <ele>660</ele>
        <time>2019-04-18T12:25:19Z</time>
      </trkpt>
      <trkpt lat="44.86465" lon="5.69005">
        <ele>660</ele>
        <time>2019-04-18T12:25:23Z</time>
      </trkpt>
      <trkpt lat="44.86462" lon="5.69002">
        <ele>660</ele>
        <time>2019-04-18T12:25:27Z</time>
      </trkpt>
      <trkpt lat="44.8646" lon="5.69">
        <ele>663</ele>
        <time>2019-04-18T12:25:31Z</time>
      </trkpt>
      <trkpt lat="44.86452" lon="5.68989">
        <ele>664</ele>
        <time>2019-04-18T12:25:45Z</time>
      </trkpt>
      <trkpt lat="44.86445" lon="5.68979">
        <ele>665</ele>
        <time>2019-04-18T12:25:57Z</time>
      </trkpt>
      <trkpt lat="44.86442" lon="5.68976">
        <ele>665</ele>
        <time>2019-04-18T12:26:02Z</time>
      </trkpt>
      <trkpt lat="44.86441" lon="5.68976">
        <ele>665</ele>
        <time>2019-04-18T12:26:03Z</time>
      </trkpt>
      <trkpt lat="44.8644" lon="5.68973">
        <ele>665</ele>
        <time>2019-04-18T12:26:07Z</time>
      </trkpt>
      <trkpt lat="44.86437" lon="5.68969">
        <ele>665</ele>
        <time>2019-04-18T12:26:13Z</time>
      </trkpt>
      <trkpt lat="44.8643" lon="5.68963">
        <ele>666</ele>
        <time>2019-04-18T12:26:27Z</time>
      </trkpt>
      <trkpt lat="44.86426" lon="5.68957">
        <ele>667</ele>
        <time>2019-04-18T12:26:45Z</time>
      </trkpt>
      <trkpt lat="44.86422" lon="5.68952">
        <ele>667</ele>
        <time>2019-04-18T12:26:52Z</time>
      </trkpt>
      <trkpt lat="44.86418" lon="5.68943">
        <ele>669</ele>
        <time>2019-04-18T12:27:06Z</time>
      </trkpt>
      <trkpt lat="44.86418" lon="5.68942">
        <ele>669</ele>
        <time>2019-04-18T12:27:08Z</time>
      </trkpt>
      <trkpt lat="44.86417" lon="5.68941">
        <ele>669</ele>
        <time>2019-04-18T12:27:09Z</time>
      </trkpt>
      <trkpt lat="44.86417" lon="5.6894">
        <ele>669</ele>
        <time>2019-04-18T12:27:10Z</time>
      </trkpt>
      <trkpt lat="44.86417" lon="5.68939">
        <ele>675</ele>
        <time>2019-04-18T12:27:11Z</time>
      </trkpt>
      <trkpt lat="44.86415" lon="5.68933">
        <ele>676</ele>
        <time>2019-04-18T12:27:20Z</time>
      </trkpt>
      <trkpt lat="44.86415" lon="5.68933">
        <ele>676</ele>
        <time>2019-04-18T12:27:21Z</time>
      </trkpt>
      <trkpt lat="44.86415" lon="5.68932">
        <ele>676</ele>
        <time>2019-04-18T12:27:22Z</time>
      </trkpt>
      <trkpt lat="44.86415" lon="5.68931">
        <ele>676</ele>
        <time>2019-04-18T12:27:23Z</time>
      </trkpt>
      <trkpt lat="44.86415" lon="5.6893">
        <ele>676</ele>
        <time>2019-04-18T12:27:24Z</time>
      </trkpt>
      <trkpt lat="44.86414" lon="5.68929">
        <ele>676</ele>
        <time>2019-04-18T12:27:25Z</time>
      </trkpt>
      <trkpt lat="44.86413" lon="5.68927">
        <ele>676</ele>
        <time>2019-04-18T12:27:29Z</time>
      </trkpt>
      <trkpt lat="44.86412" lon="5.68925">
        <ele>676</ele>
        <time>2019-04-18T12:27:33Z</time>
      </trkpt>
      <trkpt lat="44.86411" lon="5.68923">
        <ele>676</ele>
        <time>2019-04-18T12:27:36Z</time>
      </trkpt>
      <trkpt lat="44.86405" lon="5.68918">
        <ele>676</ele>
        <time>2019-04-18T12:27:48Z</time>
      </trkpt>
      <trkpt lat="44.86401" lon="5.68914">
        <ele>679</ele>
        <time>2019-04-18T12:28:04Z</time>
      </trkpt>
      <trkpt lat="44.86398" lon="5.68918">
        <ele>676</ele>
        <time>2019-04-18T12:28:13Z</time>
      </trkpt>
      <trkpt lat="44.86397" lon="5.68919">
        <ele>676</ele>
        <time>2019-04-18T12:28:14Z</time>
      </trkpt>
      <trkpt lat="44.86397" lon="5.68919">
        <ele>676</ele>
        <time>2019-04-18T12:28:15Z</time>
      </trkpt>
      <trkpt lat="44.86395" lon="5.68919">
        <ele>677</ele>
        <time>2019-04-18T12:28:17Z</time>
      </trkpt>
      <trkpt lat="44.86394" lon="5.68915">
        <ele>680</ele>
        <time>2019-04-18T12:28:21Z</time>
      </trkpt>
      <trkpt lat="44.86394" lon="5.68914">
        <ele>680</ele>
        <time>2019-04-18T12:28:22Z</time>
      </trkpt>
      <trkpt lat="44.86394" lon="5.68913">
        <ele>680</ele>
        <time>2019-04-18T12:28:23Z</time>
      </trkpt>
      <trkpt lat="44.86394" lon="5.68913">
        <ele>680</ele>
        <time>2019-04-18T12:28:24Z</time>
      </trkpt>
      <trkpt lat="44.86394" lon="5.68912">
        <ele>680</ele>
        <time>2019-04-18T12:28:25Z</time>
      </trkpt>
      <trkpt lat="44.86388" lon="5.68907">
        <ele>680</ele>
        <time>2019-04-18T12:28:37Z</time>
      </trkpt>
      <trkpt lat="44.86388" lon="5.68907">
        <ele>680</ele>
        <time>2019-04-18T12:28:38Z</time>
      </trkpt>
      <trkpt lat="44.86387" lon="5.68907">
        <ele>680</ele>
        <time>2019-04-18T12:28:42Z</time>
      </trkpt>
      <trkpt lat="44.86386" lon="5.68906">
        <ele>680</ele>
        <time>2019-04-18T12:28:43Z</time>
      </trkpt>
      <trkpt lat="44.86384" lon="5.68905">
        <ele>681</ele>
        <time>2019-04-18T12:28:47Z</time>
      </trkpt>
      <trkpt lat="44.86383" lon="5.68897">
        <ele>681</ele>
        <time>2019-04-18T12:29:01Z</time>
      </trkpt>
      <trkpt lat="44.8638" lon="5.68895">
        <ele>681</ele>
        <time>2019-04-18T12:29:07Z</time>
      </trkpt>
      <trkpt lat="44.86376" lon="5.68894">
        <ele>681</ele>
        <time>2019-04-18T12:29:12Z</time>
      </trkpt>
      <trkpt lat="44.86375" lon="5.68895">
        <ele>681</ele>
        <time>2019-04-18T12:29:13Z</time>
      </trkpt>
      <trkpt lat="44.86374" lon="5.68894">
        <ele>681</ele>
        <time>2019-04-18T12:29:16Z</time>
      </trkpt>
      <trkpt lat="44.86373" lon="5.68895">
        <ele>681</ele>
        <time>2019-04-18T12:29:17Z</time>
      </trkpt>
      <trkpt lat="44.8637" lon="5.68894">
        <ele>682</ele>
        <time>2019-04-18T12:29:21Z</time>
      </trkpt>
      <trkpt lat="44.8637" lon="5.68894">
        <ele>682</ele>
        <time>2019-04-18T12:29:22Z</time>
      </trkpt>
      <trkpt lat="44.86369" lon="5.68893">
        <ele>682</ele>
        <time>2019-04-18T12:29:25Z</time>
      </trkpt>
      <trkpt lat="44.86364" lon="5.68895">
        <ele>682</ele>
        <time>2019-04-18T12:29:35Z</time>
      </trkpt>
      <trkpt lat="44.8636" lon="5.689">
        <ele>682</ele>
        <time>2019-04-18T12:29:49Z</time>
      </trkpt>
      <trkpt lat="44.86359" lon="5.689">
        <ele>682</ele>
        <time>2019-04-18T12:30:15Z</time>
      </trkpt>
      <trkpt lat="44.86359" lon="5.689">
        <ele>682</ele>
        <time>2019-04-18T12:30:47Z</time>
      </trkpt>
      <trkpt lat="44.86359" lon="5.689">
        <ele>682</ele>
        <time>2019-04-18T12:31:17Z</time>
      </trkpt>
      <trkpt lat="44.86359" lon="5.689">
        <ele>682</ele>
        <time>2019-04-18T12:31:44Z</time>
      </trkpt>
      <trkpt lat="44.8636" lon="5.689">
        <ele>682</ele>
        <time>2019-04-18T12:32:12Z</time>
      </trkpt>
      <trkpt lat="44.8636" lon="5.689">
        <ele>682</ele>
        <time>2019-04-18T12:32:47Z</time>
      </trkpt>
      <trkpt lat="44.8636" lon="5.689">
        <ele>682</ele>
        <time>2019-04-18T12:33:21Z</time>
      </trkpt>
      <trkpt lat="44.8636" lon="5.689">
        <ele>682</ele>
        <time>2019-04-18T12:33:42Z</time>
      </trkpt>
      <trkpt lat="44.86359" lon="5.68899">
        <ele>682</ele>
        <time>2019-04-18T12:34:10Z</time>
      </trkpt>
      <trkpt lat="44.86359" lon="5.68898">
        <ele>682</ele>
        <time>2019-04-18T12:34:35Z</time>
      </trkpt>
      <trkpt lat="44.86357" lon="5.689">
        <ele>682</ele>
        <time>2019-04-18T12:34:54Z</time>
      </trkpt>
      <trkpt lat="44.86358" lon="5.689">
        <ele>682</ele>
        <time>2019-04-18T12:35:19Z</time>
      </trkpt>
      <trkpt lat="44.86356" lon="5.689">
        <ele>682</ele>
        <time>2019-04-18T12:35:46Z</time>
      </trkpt>
      <trkpt lat="44.86355" lon="5.689">
        <ele>682</ele>
        <time>2019-04-18T12:36:04Z</time>
      </trkpt>
      <trkpt lat="44.8635" lon="5.68902">
        <ele>683</ele>
        <time>2019-04-18T12:36:11Z</time>
      </trkpt>
      <trkpt lat="44.86344" lon="5.68904">
        <ele>683</ele>
        <time>2019-04-18T12:36:17Z</time>
      </trkpt>
      <trkpt lat="44.8633" lon="5.68917">
        <ele>685</ele>
        <time>2019-04-18T12:36:33Z</time>
      </trkpt>
      <trkpt lat="44.86325" lon="5.68919">
        <ele>686</ele>
        <time>2019-04-18T12:36:39Z</time>
      </trkpt>
      <trkpt lat="44.8632" lon="5.68917">
        <ele>686</ele>
        <time>2019-04-18T12:36:44Z</time>
      </trkpt>
      <trkpt lat="44.86314" lon="5.68919">
        <ele>687</ele>
        <time>2019-04-18T12:36:50Z</time>
      </trkpt>
      <trkpt lat="44.86306" lon="5.68925">
        <ele>687</ele>
        <time>2019-04-18T12:36:59Z</time>
      </trkpt>
      <trkpt lat="44.86304" lon="5.68926">
        <ele>687</ele>
        <time>2019-04-18T12:37:01Z</time>
      </trkpt>
      <trkpt lat="44.86303" lon="5.68928">
        <ele>687</ele>
        <time>2019-04-18T12:37:03Z</time>
      </trkpt>
      <trkpt lat="44.86302" lon="5.68928">
        <ele>687</ele>
        <time>2019-04-18T12:37:04Z</time>
      </trkpt>
      <trkpt lat="44.86298" lon="5.68928">
        <ele>688</ele>
        <time>2019-04-18T12:37:09Z</time>
      </trkpt>
      <trkpt lat="44.86296" lon="5.6893">
        <ele>688</ele>
        <time>2019-04-18T12:37:12Z</time>
      </trkpt>
      <trkpt lat="44.86295" lon="5.6893">
        <ele>688</ele>
        <time>2019-04-18T12:37:13Z</time>
      </trkpt>
      <trkpt lat="44.86291" lon="5.68929">
        <ele>688</ele>
        <time>2019-04-18T12:37:19Z</time>
      </trkpt>
      <trkpt lat="44.86286" lon="5.68931">
        <ele>688</ele>
        <time>2019-04-18T12:37:26Z</time>
      </trkpt>
      <trkpt lat="44.86283" lon="5.68931">
        <ele>689</ele>
        <time>2019-04-18T12:37:28Z</time>
      </trkpt>
      <trkpt lat="44.86267" lon="5.68926">
        <ele>690</ele>
        <time>2019-04-18T12:37:43Z</time>
      </trkpt>
      <trkpt lat="44.86253" lon="5.68926">
        <ele>690</ele>
        <time>2019-04-18T12:37:57Z</time>
      </trkpt>
      <trkpt lat="44.86249" lon="5.68924">
        <ele>692</ele>
        <time>2019-04-18T12:38:02Z</time>
      </trkpt>
      <trkpt lat="44.86241" lon="5.68921">
        <ele>692</ele>
        <time>2019-04-18T12:38:18Z</time>
      </trkpt>
      <trkpt lat="44.8625" lon="5.68912">
        <ele>690</ele>
        <time>2019-04-18T12:38:35Z</time>
      </trkpt>
      <trkpt lat="44.86255" lon="5.68904">
        <ele>688</ele>
        <time>2019-04-18T12:38:49Z</time>
      </trkpt>
      <trkpt lat="44.86255" lon="5.68893">
        <ele>687</ele>
        <time>2019-04-18T12:39:02Z</time>
      </trkpt>
      <trkpt lat="44.86243" lon="5.68884">
        <ele>686</ele>
        <time>2019-04-18T12:39:20Z</time>
      </trkpt>
      <trkpt lat="44.86247" lon="5.68881">
        <ele>686</ele>
        <time>2019-04-18T12:39:34Z</time>
      </trkpt>
      <trkpt lat="44.8626" lon="5.68885">
        <ele>686</ele>
        <time>2019-04-18T12:39:49Z</time>
      </trkpt>
      <trkpt lat="44.86265" lon="5.68885">
        <ele>686</ele>
        <time>2019-04-18T12:39:57Z</time>
      </trkpt>
      <trkpt lat="44.86272" lon="5.68873">
        <ele>685</ele>
        <time>2019-04-18T12:40:07Z</time>
      </trkpt>
      <trkpt lat="44.86283" lon="5.68868">
        <ele>685</ele>
        <time>2019-04-18T12:40:19Z</time>
      </trkpt>
      <trkpt lat="44.86297" lon="5.68862">
        <ele>684</ele>
        <time>2019-04-18T12:40:34Z</time>
      </trkpt>
      <trkpt lat="44.8631" lon="5.68853">
        <ele>684</ele>
        <time>2019-04-18T12:40:50Z</time>
      </trkpt>
      <trkpt lat="44.86324" lon="5.68842">
        <ele>683</ele>
        <time>2019-04-18T12:41:03Z</time>
      </trkpt>
      <trkpt lat="44.86341" lon="5.68829">
        <ele>681</ele>
        <time>2019-04-18T12:41:20Z</time>
      </trkpt>
      <trkpt lat="44.86354" lon="5.68815">
        <ele>680</ele>
        <time>2019-04-18T12:41:36Z</time>
      </trkpt>
      <trkpt lat="44.86358" lon="5.68802">
        <ele>679</ele>
        <time>2019-04-18T12:41:50Z</time>
      </trkpt>
      <trkpt lat="44.86358" lon="5.68797">
        <ele>679</ele>
        <time>2019-04-18T12:41:54Z</time>
      </trkpt>
      <trkpt lat="44.86371" lon="5.68777">
        <ele>678</ele>
        <time>2019-04-18T12:42:10Z</time>
      </trkpt>
      <trkpt lat="44.86381" lon="5.68775">
        <ele>678</ele>
        <time>2019-04-18T12:42:25Z</time>
      </trkpt>
      <trkpt lat="44.86389" lon="5.6876">
        <ele>678</ele>
        <time>2019-04-18T12:42:38Z</time>
      </trkpt>
      <trkpt lat="44.86392" lon="5.68751">
        <ele>677</ele>
        <time>2019-04-18T12:42:54Z</time>
      </trkpt>
      <trkpt lat="44.86394" lon="5.6875">
        <ele>677</ele>
        <time>2019-04-18T12:43:13Z</time>
      </trkpt>
      <trkpt lat="44.86401" lon="5.68746">
        <ele>673</ele>
        <time>2019-04-18T12:43:29Z</time>
      </trkpt>
      <trkpt lat="44.86407" lon="5.68746">
        <ele>674</ele>
        <time>2019-04-18T12:43:42Z</time>
      </trkpt>
      <trkpt lat="44.86412" lon="5.68729">
        <ele>672</ele>
        <time>2019-04-18T12:43:57Z</time>
      </trkpt>
      <trkpt lat="44.86416" lon="5.68728">
        <ele>672</ele>
        <time>2019-04-18T12:44:17Z</time>
      </trkpt>
      <trkpt lat="44.86416" lon="5.68727">
        <ele>672</ele>
        <time>2019-04-18T12:44:45Z</time>
      </trkpt>
      <trkpt lat="44.86416" lon="5.68727">
        <ele>672</ele>
        <time>2019-04-18T12:45:19Z</time>
      </trkpt>
      <trkpt lat="44.86414" lon="5.68725">
        <ele>672</ele>
        <time>2019-04-18T12:45:52Z</time>
      </trkpt>
      <trkpt lat="44.86415" lon="5.68723">
        <ele>671</ele>
        <time>2019-04-18T12:46:17Z</time>
      </trkpt>
      <trkpt lat="44.86416" lon="5.68722">
        <ele>671</ele>
        <time>2019-04-18T12:46:19Z</time>
      </trkpt>
      <trkpt lat="44.86425" lon="5.68706">
        <ele>675</ele>
        <time>2019-04-18T12:46:33Z</time>
      </trkpt>
      <trkpt lat="44.8644" lon="5.68682">
        <ele>673</ele>
        <time>2019-04-18T12:46:48Z</time>
      </trkpt>
      <trkpt lat="44.8645" lon="5.68662">
        <ele>668</ele>
        <time>2019-04-18T12:47:04Z</time>
      </trkpt>
      <trkpt lat="44.86453" lon="5.68645">
        <ele>668</ele>
        <time>2019-04-18T12:47:17Z</time>
      </trkpt>
      <trkpt lat="44.86451" lon="5.68633">
        <ele>667</ele>
        <time>2019-04-18T12:47:25Z</time>
      </trkpt>
      <trkpt lat="44.86461" lon="5.68616">
        <ele>666</ele>
        <time>2019-04-18T12:47:41Z</time>
      </trkpt>
      <trkpt lat="44.86461" lon="5.68598">
        <ele>665</ele>
        <time>2019-04-18T12:47:58Z</time>
      </trkpt>
      <trkpt lat="44.86457" lon="5.68581">
        <ele>657</ele>
        <time>2019-04-18T12:48:12Z</time>
      </trkpt>
      <trkpt lat="44.86461" lon="5.68557">
        <ele>657</ele>
        <time>2019-04-18T12:48:25Z</time>
      </trkpt>
      <trkpt lat="44.86465" lon="5.68539">
        <ele>656</ele>
        <time>2019-04-18T12:48:41Z</time>
      </trkpt>
      <trkpt lat="44.86467" lon="5.68522">
        <ele>655</ele>
        <time>2019-04-18T12:48:54Z</time>
      </trkpt>
      <trkpt lat="44.86471" lon="5.68518">
        <ele>655</ele>
        <time>2019-04-18T12:49:01Z</time>
      </trkpt>
      <trkpt lat="44.86472" lon="5.68516">
        <ele>655</ele>
        <time>2019-04-18T12:49:03Z</time>
      </trkpt>
      <trkpt lat="44.86483" lon="5.68495">
        <ele>650</ele>
        <time>2019-04-18T12:49:19Z</time>
      </trkpt>
      <trkpt lat="44.86492" lon="5.68478">
        <ele>648</ele>
        <time>2019-04-18T12:49:33Z</time>
      </trkpt>
      <trkpt lat="44.86501" lon="5.68466">
        <ele>657</ele>
        <time>2019-04-18T12:49:42Z</time>
      </trkpt>
      <trkpt lat="44.86503" lon="5.68464">
        <ele>657</ele>
        <time>2019-04-18T12:49:44Z</time>
      </trkpt>
      <trkpt lat="44.86504" lon="5.68462">
        <ele>657</ele>
        <time>2019-04-18T12:49:46Z</time>
      </trkpt>
      <trkpt lat="44.86505" lon="5.6846">
        <ele>657</ele>
        <time>2019-04-18T12:49:48Z</time>
      </trkpt>
      <trkpt lat="44.86505" lon="5.68459">
        <ele>656</ele>
        <time>2019-04-18T12:49:49Z</time>
      </trkpt>
      <trkpt lat="44.86512" lon="5.68439">
        <ele>654</ele>
        <time>2019-04-18T12:50:08Z</time>
      </trkpt>
      <trkpt lat="44.86516" lon="5.68419">
        <ele>652</ele>
        <time>2019-04-18T12:50:21Z</time>
      </trkpt>
      <trkpt lat="44.86518" lon="5.68413">
        <ele>645</ele>
        <time>2019-04-18T12:50:25Z</time>
      </trkpt>
      <trkpt lat="44.86518" lon="5.68413">
        <ele>645</ele>
        <time>2019-04-18T12:50:26Z</time>
      </trkpt>
      <trkpt lat="44.86519" lon="5.68412">
        <ele>645</ele>
        <time>2019-04-18T12:50:27Z</time>
      </trkpt>
      <trkpt lat="44.86523" lon="5.68407">
        <ele>646</ele>
        <time>2019-04-18T12:50:31Z</time>
      </trkpt>
      <trkpt lat="44.86528" lon="5.68396">
        <ele>646</ele>
        <time>2019-04-18T12:50:48Z</time>
      </trkpt>
      <trkpt lat="44.86533" lon="5.68394">
        <ele>646</ele>
        <time>2019-04-18T12:51:06Z</time>
      </trkpt>
      <trkpt lat="44.86542" lon="5.68386">
        <ele>647</ele>
        <time>2019-04-18T12:51:22Z</time>
      </trkpt>
      <trkpt lat="44.86553" lon="5.68372">
        <ele>647</ele>
        <time>2019-04-18T12:51:38Z</time>
      </trkpt>
      <trkpt lat="44.86569" lon="5.68354">
        <ele>647</ele>
        <time>2019-04-18T12:51:55Z</time>
      </trkpt>
      <trkpt lat="44.8657" lon="5.68348">
        <ele>647</ele>
        <time>2019-04-18T12:51:59Z</time>
      </trkpt>
      <trkpt lat="44.86575" lon="5.68319">
        <ele>640</ele>
        <time>2019-04-18T12:52:17Z</time>
      </trkpt>
      <trkpt lat="44.86572" lon="5.68321">
        <ele>640</ele>
        <time>2019-04-18T12:52:44Z</time>
      </trkpt>
      <trkpt lat="44.86571" lon="5.68319">
        <ele>639</ele>
        <time>2019-04-18T12:53:10Z</time>
      </trkpt>
      <trkpt lat="44.86573" lon="5.68319">
        <ele>639</ele>
        <time>2019-04-18T12:53:41Z</time>
      </trkpt>
      <trkpt lat="44.86572" lon="5.6832">
        <ele>639</ele>
        <time>2019-04-18T12:54:20Z</time>
      </trkpt>
      <trkpt lat="44.86572" lon="5.68319">
        <ele>639</ele>
        <time>2019-04-18T12:54:49Z</time>
      </trkpt>
      <trkpt lat="44.86572" lon="5.6832">
        <ele>639</ele>
        <time>2019-04-18T12:55:21Z</time>
      </trkpt>
      <trkpt lat="44.86572" lon="5.6832">
        <ele>639</ele>
        <time>2019-04-18T12:55:48Z</time>
      </trkpt>
      <trkpt lat="44.86576" lon="5.68318">
        <ele>640</ele>
        <time>2019-04-18T12:56:07Z</time>
      </trkpt>
      <trkpt lat="44.86588" lon="5.6832">
        <ele>648</ele>
        <time>2019-04-18T12:56:19Z</time>
      </trkpt>
      <trkpt lat="44.86609" lon="5.68316">
        <ele>647</ele>
        <time>2019-04-18T12:56:34Z</time>
      </trkpt>
      <trkpt lat="44.86618" lon="5.68308">
        <ele>646</ele>
        <time>2019-04-18T12:56:41Z</time>
      </trkpt>
      <trkpt lat="44.86621" lon="5.68303">
        <ele>646</ele>
        <time>2019-04-18T12:56:44Z</time>
      </trkpt>
      <trkpt lat="44.86637" lon="5.68287">
        <ele>646</ele>
        <time>2019-04-18T12:57:00Z</time>
      </trkpt>
      <trkpt lat="44.86639" lon="5.68286">
        <ele>646</ele>
        <time>2019-04-18T12:57:02Z</time>
      </trkpt>
      <trkpt lat="44.86648" lon="5.68272">
        <ele>645</ele>
        <time>2019-04-18T12:57:20Z</time>
      </trkpt>
      <trkpt lat="44.86654" lon="5.68256">
        <ele>645</ele>
        <time>2019-04-18T12:57:29Z</time>
      </trkpt>
      <trkpt lat="44.86662" lon="5.68236">
        <ele>638</ele>
        <time>2019-04-18T12:57:44Z</time>
      </trkpt>
      <trkpt lat="44.86671" lon="5.68233">
        <ele>636</ele>
        <time>2019-04-18T12:58:01Z</time>
      </trkpt>
      <trkpt lat="44.86676" lon="5.68223">
        <ele>633</ele>
        <time>2019-04-18T12:58:07Z</time>
      </trkpt>
      <trkpt lat="44.86684" lon="5.68203">
        <ele>629</ele>
        <time>2019-04-18T12:58:22Z</time>
      </trkpt>
      <trkpt lat="44.86688" lon="5.68196">
        <ele>629</ele>
        <time>2019-04-18T12:58:28Z</time>
      </trkpt>
      <trkpt lat="44.86689" lon="5.68193">
        <ele>628</ele>
        <time>2019-04-18T12:58:30Z</time>
      </trkpt>
      <trkpt lat="44.8669" lon="5.68169">
        <ele>628</ele>
        <time>2019-04-18T12:58:44Z</time>
      </trkpt>
      <trkpt lat="44.8669" lon="5.68157">
        <ele>622</ele>
        <time>2019-04-18T12:59:00Z</time>
      </trkpt>
      <trkpt lat="44.86691" lon="5.68148">
        <ele>621</ele>
        <time>2019-04-18T12:59:11Z</time>
      </trkpt>
      <trkpt lat="44.86708" lon="5.68127">
        <ele>618</ele>
        <time>2019-04-18T12:59:28Z</time>
      </trkpt>
      <trkpt lat="44.86709" lon="5.68126">
        <ele>618</ele>
        <time>2019-04-18T12:59:32Z</time>
      </trkpt>
      <trkpt lat="44.86718" lon="5.68109">
        <ele>618</ele>
        <time>2019-04-18T12:59:48Z</time>
      </trkpt>
      <trkpt lat="44.8672" lon="5.68092">
        <ele>618</ele>
        <time>2019-04-18T13:00:00Z</time>
      </trkpt>
      <trkpt lat="44.86724" lon="5.68081">
        <ele>612</ele>
        <time>2019-04-18T13:00:09Z</time>
      </trkpt>
      <trkpt lat="44.86725" lon="5.68058">
        <ele>611</ele>
        <time>2019-04-18T13:00:24Z</time>
      </trkpt>
      <trkpt lat="44.86728" lon="5.68049">
        <ele>610</ele>
        <time>2019-04-18T13:00:41Z</time>
      </trkpt>
      <trkpt lat="44.86733" lon="5.68042">
        <ele>610</ele>
        <time>2019-04-18T13:01:01Z</time>
      </trkpt>
      <trkpt lat="44.86744" lon="5.68027">
        <ele>610</ele>
        <time>2019-04-18T13:01:15Z</time>
      </trkpt>
      <trkpt lat="44.86754" lon="5.68007">
        <ele>611</ele>
        <time>2019-04-18T13:01:32Z</time>
      </trkpt>
      <trkpt lat="44.86761" lon="5.67997">
        <ele>609</ele>
        <time>2019-04-18T13:01:45Z</time>
      </trkpt>
      <trkpt lat="44.86775" lon="5.67975">
        <ele>605</ele>
        <time>2019-04-18T13:02:02Z</time>
      </trkpt>
      <trkpt lat="44.86784" lon="5.67959">
        <ele>604</ele>
        <time>2019-04-18T13:02:16Z</time>
      </trkpt>
      <trkpt lat="44.86794" lon="5.67939">
        <ele>603</ele>
        <time>2019-04-18T13:02:31Z</time>
      </trkpt>
      <trkpt lat="44.86808" lon="5.67918">
        <ele>605</ele>
        <time>2019-04-18T13:02:47Z</time>
      </trkpt>
      <trkpt lat="44.86813" lon="5.67899">
        <ele>604</ele>
        <time>2019-04-18T13:03:03Z</time>
      </trkpt>
      <trkpt lat="44.86823" lon="5.6788">
        <ele>603</ele>
        <time>2019-04-18T13:03:19Z</time>
      </trkpt>
      <trkpt lat="44.86837" lon="5.67855">
        <ele>601</ele>
        <time>2019-04-18T13:03:37Z</time>
      </trkpt>
      <trkpt lat="44.86847" lon="5.67847">
        <ele>601</ele>
        <time>2019-04-18T13:03:50Z</time>
      </trkpt>
      <trkpt lat="44.86848" lon="5.67846">
        <ele>601</ele>
        <time>2019-04-18T13:04:10Z</time>
      </trkpt>
      <trkpt lat="44.86848" lon="5.67845">
        <ele>601</ele>
        <time>2019-04-18T13:04:37Z</time>
      </trkpt>
      <trkpt lat="44.8685" lon="5.67841">
        <ele>601</ele>
        <time>2019-04-18T13:04:54Z</time>
      </trkpt>
      <trkpt lat="44.86849" lon="5.67841">
        <ele>601</ele>
        <time>2019-04-18T13:05:20Z</time>
      </trkpt>
      <trkpt lat="44.86848" lon="5.6784">
        <ele>601</ele>
        <time>2019-04-18T13:05:45Z</time>
      </trkpt>
      <trkpt lat="44.86848" lon="5.67838">
        <ele>601</ele>
        <time>2019-04-18T13:06:17Z</time>
      </trkpt>
      <trkpt lat="44.86849" lon="5.67838">
        <ele>601</ele>
        <time>2019-04-18T13:06:47Z</time>
      </trkpt>
      <trkpt lat="44.86849" lon="5.67838">
        <ele>601</ele>
        <time>2019-04-18T13:06:48Z</time>
      </trkpt>
      <trkpt lat="44.86849" lon="5.67838">
        <ele>601</ele>
        <time>2019-04-18T13:06:49Z</time>
      </trkpt>
      <trkpt lat="44.86849" lon="5.67838">
        <ele>601</ele>
        <time>2019-04-18T13:06:50Z</time>
      </trkpt>
      <trkpt lat="44.86848" lon="5.67838">
        <ele>601</ele>
        <time>2019-04-18T13:06:51Z</time>
      </trkpt>
      <trkpt lat="44.86848" lon="5.67838">
        <ele>601</ele>
        <time>2019-04-18T13:06:52Z</time>
      </trkpt>
      <trkpt lat="44.86848" lon="5.67838">
        <ele>601</ele>
        <time>2019-04-18T13:06:54Z</time>
      </trkpt>
      <trkpt lat="44.86848" lon="5.67839">
        <ele>601</ele>
        <time>2019-04-18T13:06:56Z</time>
      </trkpt>
      <trkpt lat="44.86848" lon="5.67839">
        <ele>601</ele>
        <time>2019-04-18T13:06:59Z</time>
      </trkpt>
      <trkpt lat="44.86848" lon="5.67838">
        <ele>601</ele>
        <time>2019-04-18T13:07:00Z</time>
      </trkpt>
      <trkpt lat="44.86848" lon="5.67839">
        <ele>601</ele>
        <time>2019-04-18T13:07:01Z</time>
      </trkpt>
      <trkpt lat="44.86847" lon="5.67838">
        <ele>602</ele>
        <time>2019-04-18T13:07:24Z</time>
      </trkpt>
      <trkpt lat="44.86848" lon="5.67838">
        <ele>601</ele>
        <time>2019-04-18T13:07:53Z</time>
      </trkpt>
      <trkpt lat="44.86849" lon="5.67831">
        <ele>602</ele>
        <time>2019-04-18T13:08:10Z</time>
      </trkpt>
      <trkpt lat="44.86854" lon="5.67823">
        <ele>601</ele>
        <time>2019-04-18T13:08:25Z</time>
      </trkpt>
      <trkpt lat="44.86855" lon="5.67821">
        <ele>600</ele>
        <time>2019-04-18T13:08:46Z</time>
      </trkpt>
      <trkpt lat="44.86854" lon="5.6782">
        <ele>600</ele>
        <time>2019-04-18T13:09:11Z</time>
      </trkpt>
      <trkpt lat="44.86854" lon="5.6782">
        <ele>601</ele>
        <time>2019-04-18T13:09:40Z</time>
      </trkpt>
      <trkpt lat="44.86853" lon="5.6782">
        <ele>601</ele>
        <time>2019-04-18T13:10:04Z</time>
      </trkpt>
      <trkpt lat="44.86859" lon="5.67805">
        <ele>599</ele>
        <time>2019-04-18T13:10:15Z</time>
      </trkpt>
      <trkpt lat="44.86867" lon="5.67782">
        <ele>598</ele>
        <time>2019-04-18T13:10:28Z</time>
      </trkpt>
      <trkpt lat="44.86877" lon="5.67768">
        <ele>598</ele>
        <time>2019-04-18T13:10:41Z</time>
      </trkpt>
      <trkpt lat="44.86882" lon="5.67756">
        <ele>597</ele>
        <time>2019-04-18T13:10:53Z</time>
      </trkpt>
      <trkpt lat="44.8689" lon="5.67736">
        <ele>597</ele>
        <time>2019-04-18T13:11:05Z</time>
      </trkpt>
      <trkpt lat="44.86897" lon="5.67716">
        <ele>596</ele>
        <time>2019-04-18T13:11:21Z</time>
      </trkpt>
      <trkpt lat="44.86901" lon="5.67704">
        <ele>596</ele>
        <time>2019-04-18T13:11:31Z</time>
      </trkpt>
      <trkpt lat="44.86909" lon="5.67689">
        <ele>596</ele>
        <time>2019-04-18T13:11:43Z</time>
      </trkpt>
      <trkpt lat="44.86919" lon="5.6768">
        <ele>591</ele>
        <time>2019-04-18T13:11:54Z</time>
      </trkpt>
      <trkpt lat="44.86926" lon="5.67664">
        <ele>593</ele>
        <time>2019-04-18T13:12:06Z</time>
      </trkpt>
      <trkpt lat="44.86928" lon="5.67658">
        <ele>592</ele>
        <time>2019-04-18T13:12:11Z</time>
      </trkpt>
      <trkpt lat="44.86935" lon="5.67638">
        <ele>591</ele>
        <time>2019-04-18T13:12:24Z</time>
      </trkpt>
      <trkpt lat="44.86947" lon="5.67625">
        <ele>590</ele>
        <time>2019-04-18T13:12:39Z</time>
      </trkpt>
      <trkpt lat="44.86956" lon="5.67611">
        <ele>589</ele>
        <time>2019-04-18T13:12:51Z</time>
      </trkpt>
      <trkpt lat="44.86956" lon="5.6761">
        <ele>589</ele>
        <time>2019-04-18T13:12:53Z</time>
      </trkpt>
      <trkpt lat="44.86958" lon="5.67598">
        <ele>589</ele>
        <time>2019-04-18T13:13:06Z</time>
      </trkpt>
      <trkpt lat="44.86959" lon="5.67591">
        <ele>589</ele>
        <time>2019-04-18T13:13:15Z</time>
      </trkpt>
      <trkpt lat="44.86955" lon="5.67584">
        <ele>590</ele>
        <time>2019-04-18T13:13:27Z</time>
      </trkpt>
      <trkpt lat="44.86954" lon="5.67577">
        <ele>590</ele>
        <time>2019-04-18T13:13:39Z</time>
      </trkpt>
      <trkpt lat="44.86955" lon="5.67583">
        <ele>590</ele>
        <time>2019-04-18T13:13:57Z</time>
      </trkpt>
      <trkpt lat="44.86955" lon="5.6759">
        <ele>590</ele>
        <time>2019-04-18T13:14:19Z</time>
      </trkpt>
      <trkpt lat="44.86952" lon="5.67582">
        <ele>590</ele>
        <time>2019-04-18T13:14:49Z</time>
      </trkpt>
      <trkpt lat="44.8696" lon="5.67565">
        <ele>589</ele>
        <time>2019-04-18T13:15:04Z</time>
      </trkpt>
      <trkpt lat="44.86972" lon="5.67537">
        <ele>589</ele>
        <time>2019-04-18T13:15:18Z</time>
      </trkpt>
      <trkpt lat="44.86981" lon="5.67522">
        <ele>588</ele>
        <time>2019-04-18T13:15:30Z</time>
      </trkpt>
      <trkpt lat="44.86987" lon="5.67509">
        <ele>588</ele>
        <time>2019-04-18T13:15:40Z</time>
      </trkpt>
      <trkpt lat="44.86988" lon="5.67508">
        <ele>588</ele>
        <time>2019-04-18T13:15:41Z</time>
      </trkpt>
      <trkpt lat="44.86998" lon="5.67493">
        <ele>586</ele>
        <time>2019-04-18T13:15:52Z</time>
      </trkpt>
      <trkpt lat="44.87" lon="5.67455">
        <ele>584</ele>
        <time>2019-04-18T13:16:03Z</time>
      </trkpt>
      <trkpt lat="44.87006" lon="5.6743">
        <ele>570</ele>
        <time>2019-04-18T13:16:14Z</time>
      </trkpt>
      <trkpt lat="44.87012" lon="5.67418">
        <ele>570</ele>
        <time>2019-04-18T13:16:26Z</time>
      </trkpt>
      <trkpt lat="44.87016" lon="5.67415">
        <ele>557</ele>
        <time>2019-04-18T13:16:40Z</time>
      </trkpt>
      <trkpt lat="44.8702" lon="5.67415">
        <ele>554</ele>
        <time>2019-04-18T13:16:48Z</time>
      </trkpt>
      <trkpt lat="44.87025" lon="5.67418">
        <ele>563</ele>
        <time>2019-04-18T13:16:51Z</time>
      </trkpt>
      <trkpt lat="44.87037" lon="5.67431">
        <ele>558</ele>
        <time>2019-04-18T13:17:04Z</time>
      </trkpt>
      <trkpt lat="44.8703" lon="5.67442">
        <ele>561</ele>
        <time>2019-04-18T13:17:16Z</time>
      </trkpt>
      <trkpt lat="44.87023" lon="5.67454">
        <ele>563</ele>
        <time>2019-04-18T13:17:27Z</time>
      </trkpt>
      <trkpt lat="44.87015" lon="5.67474">
        <ele>567</ele>
        <time>2019-04-18T13:17:39Z</time>
      </trkpt>
      <trkpt lat="44.87016" lon="5.67481">
        <ele>569</ele>
        <time>2019-04-18T13:17:43Z</time>
      </trkpt>
      <trkpt lat="44.87016" lon="5.67494">
        <ele>572</ele>
        <time>2019-04-18T13:17:53Z</time>
      </trkpt>
      <trkpt lat="44.87021" lon="5.67504">
        <ele>573</ele>
        <time>2019-04-18T13:18:04Z</time>
      </trkpt>
      <trkpt lat="44.87021" lon="5.67504">
        <ele>573</ele>
        <time>2019-04-18T13:18:05Z</time>
      </trkpt>
      <trkpt lat="44.87024" lon="5.67514">
        <ele>571</ele>
        <time>2019-04-18T13:18:14Z</time>
      </trkpt>
      <trkpt lat="44.87026" lon="5.6752">
        <ele>570</ele>
        <time>2019-04-18T13:18:19Z</time>
      </trkpt>
      <trkpt lat="44.87034" lon="5.6753">
        <ele>567</ele>
        <time>2019-04-18T13:18:32Z</time>
      </trkpt>
      <trkpt lat="44.87033" lon="5.67537">
        <ele>567</ele>
        <time>2019-04-18T13:18:38Z</time>
      </trkpt>
      <trkpt lat="44.87028" lon="5.67549">
        <ele>568</ele>
        <time>2019-04-18T13:18:48Z</time>
      </trkpt>
      <trkpt lat="44.87028" lon="5.6756">
        <ele>569</ele>
        <time>2019-04-18T13:18:58Z</time>
      </trkpt>
      <trkpt lat="44.8703" lon="5.67562">
        <ele>568</ele>
        <time>2019-04-18T13:19:18Z</time>
      </trkpt>
      <trkpt lat="44.8703" lon="5.67572">
        <ele>569</ele>
        <time>2019-04-18T13:19:32Z</time>
      </trkpt>
      <trkpt lat="44.87033" lon="5.67583">
        <ele>568</ele>
        <time>2019-04-18T13:19:44Z</time>
      </trkpt>
      <trkpt lat="44.8704" lon="5.6759">
        <ele>565</ele>
        <time>2019-04-18T13:19:56Z</time>
      </trkpt>
      <trkpt lat="44.87052" lon="5.67593">
        <ele>561</ele>
        <time>2019-04-18T13:20:08Z</time>
      </trkpt>
      <trkpt lat="44.87069" lon="5.67607">
        <ele>557</ele>
        <time>2019-04-18T13:20:20Z</time>
      </trkpt>
      <trkpt lat="44.87076" lon="5.67611">
        <ele>556</ele>
        <time>2019-04-18T13:20:31Z</time>
      </trkpt>
      <trkpt lat="44.87077" lon="5.67617">
        <ele>557</ele>
        <time>2019-04-18T13:20:43Z</time>
      </trkpt>
      <trkpt lat="44.87077" lon="5.67618">
        <ele>557</ele>
        <time>2019-04-18T13:20:45Z</time>
      </trkpt>
      <trkpt lat="44.87078" lon="5.67623">
        <ele>557</ele>
        <time>2019-04-18T13:20:49Z</time>
      </trkpt>
      <trkpt lat="44.87076" lon="5.6763">
        <ele>557</ele>
        <time>2019-04-18T13:20:54Z</time>
      </trkpt>
      <trkpt lat="44.87078" lon="5.67638">
        <ele>556</ele>
        <time>2019-04-18T13:21:05Z</time>
      </trkpt>
      <trkpt lat="44.87079" lon="5.67639">
        <ele>556</ele>
        <time>2019-04-18T13:21:07Z</time>
      </trkpt>
      <trkpt lat="44.87081" lon="5.67643">
        <ele>555</ele>
        <time>2019-04-18T13:21:19Z</time>
      </trkpt>
      <trkpt lat="44.87086" lon="5.67642">
        <ele>530</ele>
        <time>2019-04-18T13:21:33Z</time>
      </trkpt>
      <trkpt lat="44.87087" lon="5.67649">
        <ele>532</ele>
        <time>2019-04-18T13:21:47Z</time>
      </trkpt>
      <trkpt lat="44.8709" lon="5.67652">
        <ele>533</ele>
        <time>2019-04-18T13:22:01Z</time>
      </trkpt>
      <trkpt lat="44.87085" lon="5.67657">
        <ele>537</ele>
        <time>2019-04-18T13:22:11Z</time>
      </trkpt>
      <trkpt lat="44.87087" lon="5.67659">
        <ele>537</ele>
        <time>2019-04-18T13:22:23Z</time>
      </trkpt>
      <trkpt lat="44.87096" lon="5.67658">
        <ele>532</ele>
        <time>2019-04-18T13:22:36Z</time>
      </trkpt>
      <trkpt lat="44.87107" lon="5.67653">
        <ele>527</ele>
        <time>2019-04-18T13:22:53Z</time>
      </trkpt>
      <trkpt lat="44.87114" lon="5.67645">
        <ele>523</ele>
        <time>2019-04-18T13:23:06Z</time>
      </trkpt>
      <trkpt lat="44.87117" lon="5.67646">
        <ele>522</ele>
        <time>2019-04-18T13:23:23Z</time>
      </trkpt>
      <trkpt lat="44.87117" lon="5.67646">
        <ele>522</ele>
        <time>2019-04-18T13:23:41Z</time>
      </trkpt>
      <trkpt lat="44.87122" lon="5.67649">
        <ele>521</ele>
        <time>2019-04-18T13:23:55Z</time>
      </trkpt>
      <trkpt lat="44.87128" lon="5.67652">
        <ele>519</ele>
        <time>2019-04-18T13:24:06Z</time>
      </trkpt>
      <trkpt lat="44.87133" lon="5.67656">
        <ele>517</ele>
        <time>2019-04-18T13:24:17Z</time>
      </trkpt>
      <trkpt lat="44.87142" lon="5.67657">
        <ele>513</ele>
        <time>2019-04-18T13:24:30Z</time>
      </trkpt>
      <trkpt lat="44.87155" lon="5.67662">
        <ele>507</ele>
        <time>2019-04-18T13:24:44Z</time>
      </trkpt>
      <trkpt lat="44.8716" lon="5.67663">
        <ele>504</ele>
        <time>2019-04-18T13:24:50Z</time>
      </trkpt>
      <trkpt lat="44.87182" lon="5.67672">
        <ele>499</ele>
        <time>2019-04-18T13:25:02Z</time>
      </trkpt>
      <trkpt lat="44.87186" lon="5.67675">
        <ele>498</ele>
        <time>2019-04-18T13:25:07Z</time>
      </trkpt>
      <trkpt lat="44.87195" lon="5.67679">
        <ele>498</ele>
        <time>2019-04-18T13:25:19Z</time>
      </trkpt>
      <trkpt lat="44.87204" lon="5.67685">
        <ele>498</ele>
        <time>2019-04-18T13:25:31Z</time>
      </trkpt>
      <trkpt lat="44.87212" lon="5.67688">
        <ele>498</ele>
        <time>2019-04-18T13:25:42Z</time>
      </trkpt>
      <trkpt lat="44.87216" lon="5.67689">
        <ele>499</ele>
        <time>2019-04-18T13:25:45Z</time>
      </trkpt>
      <trkpt lat="44.87223" lon="5.67694">
        <ele>498</ele>
        <time>2019-04-18T13:25:52Z</time>
      </trkpt>
      <trkpt lat="44.87235" lon="5.677">
        <ele>498</ele>
        <time>2019-04-18T13:26:04Z</time>
      </trkpt>
      <trkpt lat="44.87244" lon="5.67705">
        <ele>498</ele>
        <time>2019-04-18T13:26:18Z</time>
      </trkpt>
      <trkpt lat="44.87251" lon="5.67708">
        <ele>512</ele>
        <time>2019-04-18T13:26:29Z</time>
      </trkpt>
      <trkpt lat="44.87259" lon="5.67713">
        <ele>512</ele>
        <time>2019-04-18T13:26:40Z</time>
      </trkpt>
      <trkpt lat="44.87266" lon="5.67716">
        <ele>513</ele>
        <time>2019-04-18T13:26:50Z</time>
      </trkpt>
      <trkpt lat="44.87268" lon="5.67719">
        <ele>513</ele>
        <time>2019-04-18T13:27:01Z</time>
      </trkpt>
      <trkpt lat="44.87271" lon="5.67721">
        <ele>513</ele>
        <time>2019-04-18T13:27:13Z</time>
      </trkpt>
      <trkpt lat="44.87276" lon="5.67722">
        <ele>514</ele>
        <time>2019-04-18T13:27:20Z</time>
      </trkpt>
      <trkpt lat="44.87283" lon="5.67735">
        <ele>515</ele>
        <time>2019-04-18T13:27:33Z</time>
      </trkpt>
      <trkpt lat="44.87279" lon="5.67732">
        <ele>514</ele>
        <time>2019-04-18T13:27:50Z</time>
      </trkpt>
      <trkpt lat="44.87279" lon="5.67729">
        <ele>514</ele>
        <time>2019-04-18T13:28:07Z</time>
      </trkpt>
      <trkpt lat="44.87279" lon="5.67727">
        <ele>514</ele>
        <time>2019-04-18T13:28:32Z</time>
      </trkpt>
      <trkpt lat="44.8728" lon="5.67728">
        <ele>515</ele>
        <time>2019-04-18T13:29:06Z</time>
      </trkpt>
      <trkpt lat="44.87281" lon="5.67728">
        <ele>515</ele>
        <time>2019-04-18T13:29:37Z</time>
      </trkpt>
      <trkpt lat="44.87282" lon="5.67728">
        <ele>515</ele>
        <time>2019-04-18T13:30:02Z</time>
      </trkpt>
      <trkpt lat="44.87281" lon="5.67729">
        <ele>515</ele>
        <time>2019-04-18T13:30:25Z</time>
      </trkpt>
      <trkpt lat="44.8728" lon="5.67731">
        <ele>514</ele>
        <time>2019-04-18T13:30:53Z</time>
      </trkpt>
      <trkpt lat="44.87278" lon="5.6773">
        <ele>514</ele>
        <time>2019-04-18T13:31:11Z</time>
      </trkpt>
      <trkpt lat="44.87277" lon="5.67731">
        <ele>513</ele>
        <time>2019-04-18T13:31:33Z</time>
      </trkpt>
      <trkpt lat="44.87277" lon="5.6773">
        <ele>513</ele>
        <time>2019-04-18T13:32:01Z</time>
      </trkpt>
      <trkpt lat="44.87278" lon="5.6773">
        <ele>514</ele>
        <time>2019-04-18T13:32:30Z</time>
      </trkpt>
      <trkpt lat="44.87279" lon="5.67729">
        <ele>514</ele>
        <time>2019-04-18T13:33:02Z</time>
      </trkpt>
      <trkpt lat="44.87279" lon="5.6773">
        <ele>514</ele>
        <time>2019-04-18T13:33:25Z</time>
      </trkpt>
      <trkpt lat="44.87278" lon="5.67731">
        <ele>513</ele>
        <time>2019-04-18T13:33:55Z</time>
      </trkpt>
      <trkpt lat="44.87279" lon="5.67732">
        <ele>514</ele>
        <time>2019-04-18T13:34:18Z</time>
      </trkpt>
      <trkpt lat="44.87278" lon="5.67733">
        <ele>513</ele>
        <time>2019-04-18T13:34:51Z</time>
      </trkpt>
      <trkpt lat="44.87278" lon="5.67733">
        <ele>513</ele>
        <time>2019-04-18T13:35:23Z</time>
      </trkpt>
      <trkpt lat="44.87276" lon="5.67734">
        <ele>512</ele>
        <time>2019-04-18T13:35:38Z</time>
      </trkpt>
      <trkpt lat="44.87275" lon="5.67735">
        <ele>512</ele>
        <time>2019-04-18T13:36:03Z</time>
      </trkpt>
      <trkpt lat="44.87278" lon="5.67734">
        <ele>513</ele>
        <time>2019-04-18T13:36:22Z</time>
      </trkpt>
      <trkpt lat="44.87282" lon="5.67735">
        <ele>514</ele>
        <time>2019-04-18T13:36:38Z</time>
      </trkpt>
      <trkpt lat="44.87285" lon="5.67734">
        <ele>516</ele>
        <time>2019-04-18T13:36:59Z</time>
      </trkpt>
      <trkpt lat="44.87285" lon="5.67734">
        <ele>516</ele>
        <time>2019-04-18T13:37:22Z</time>
      </trkpt>
      <trkpt lat="44.87286" lon="5.67734">
        <ele>516</ele>
        <time>2019-04-18T13:37:36Z</time>
      </trkpt>
      <trkpt lat="44.8729" lon="5.6773">
        <ele>518</ele>
        <time>2019-04-18T13:37:51Z</time>
      </trkpt>
      <trkpt lat="44.87292" lon="5.67729">
        <ele>519</ele>
        <time>2019-04-18T13:38:09Z</time>
      </trkpt>
      <trkpt lat="44.87294" lon="5.67725">
        <ele>520</ele>
        <time>2019-04-18T13:38:20Z</time>
      </trkpt>
      <trkpt lat="44.87294" lon="5.67722">
        <ele>520</ele>
        <time>2019-04-18T13:38:24Z</time>
      </trkpt>
      <trkpt lat="44.87291" lon="5.6771">
        <ele>520</ele>
        <time>2019-04-18T13:38:36Z</time>
      </trkpt>
      <trkpt lat="44.87288" lon="5.67703">
        <ele>520</ele>
        <time>2019-04-18T13:38:44Z</time>
      </trkpt>
      <trkpt lat="44.87282" lon="5.67689">
        <ele>519</ele>
        <time>2019-04-18T13:38:58Z</time>
      </trkpt>
      <trkpt lat="44.87284" lon="5.6768">
        <ele>520</ele>
        <time>2019-04-18T13:39:09Z</time>
      </trkpt>
      <trkpt lat="44.87284" lon="5.67671">
        <ele>521</ele>
        <time>2019-04-18T13:39:20Z</time>
      </trkpt>
      <trkpt lat="44.87285" lon="5.67665">
        <ele>531</ele>
        <time>2019-04-18T13:39:31Z</time>
      </trkpt>
      <trkpt lat="44.87292" lon="5.67659">
        <ele>534</ele>
        <time>2019-04-18T13:39:43Z</time>
      </trkpt>
      <trkpt lat="44.87297" lon="5.6766">
        <ele>536</ele>
        <time>2019-04-18T13:39:54Z</time>
      </trkpt>
      <trkpt lat="44.87306" lon="5.67659">
        <ele>540</ele>
        <time>2019-04-18T13:40:06Z</time>
      </trkpt>
      <trkpt lat="44.87315" lon="5.67658">
        <ele>543</ele>
        <time>2019-04-18T13:40:18Z</time>
      </trkpt>
      <trkpt lat="44.87321" lon="5.67656">
        <ele>546</ele>
        <time>2019-04-18T13:40:30Z</time>
      </trkpt>
      <trkpt lat="44.87328" lon="5.67654">
        <ele>547</ele>
        <time>2019-04-18T13:40:41Z</time>
      </trkpt>
      <trkpt lat="44.87334" lon="5.67662">
        <ele>558</ele>
        <time>2019-04-18T13:40:55Z</time>
      </trkpt>
      <trkpt lat="44.87334" lon="5.67661">
        <ele>558</ele>
        <time>2019-04-18T13:41:21Z</time>
      </trkpt>
      <trkpt lat="44.87339" lon="5.67659">
        <ele>561</ele>
        <time>2019-04-18T13:41:44Z</time>
      </trkpt>
      <trkpt lat="44.87341" lon="5.67659">
        <ele>561</ele>
        <time>2019-04-18T13:41:47Z</time>
      </trkpt>
      <trkpt lat="44.8735" lon="5.67667">
        <ele>553</ele>
        <time>2019-04-18T13:42:00Z</time>
      </trkpt>
      <trkpt lat="44.87363" lon="5.6767">
        <ele>554</ele>
        <time>2019-04-18T13:42:18Z</time>
      </trkpt>
      <trkpt lat="44.87372" lon="5.67672">
        <ele>555</ele>
        <time>2019-04-18T13:42:30Z</time>
      </trkpt>
      <trkpt lat="44.87388" lon="5.6768">
        <ele>557</ele>
        <time>2019-04-18T13:42:46Z</time>
      </trkpt>
      <trkpt lat="44.87398" lon="5.67684">
        <ele>558</ele>
        <time>2019-04-18T13:42:55Z</time>
      </trkpt>
      <trkpt lat="44.8741" lon="5.67689">
        <ele>559</ele>
        <time>2019-04-18T13:43:05Z</time>
      </trkpt>
      <trkpt lat="44.87423" lon="5.67697">
        <ele>563</ele>
        <time>2019-04-18T13:43:18Z</time>
      </trkpt>
      <trkpt lat="44.87434" lon="5.67701">
        <ele>562</ele>
        <time>2019-04-18T13:43:31Z</time>
      </trkpt>
      <trkpt lat="44.87442" lon="5.67703">
        <ele>562</ele>
        <time>2019-04-18T13:43:38Z</time>
      </trkpt>
      <trkpt lat="44.87462" lon="5.67705">
        <ele>562</ele>
        <time>2019-04-18T13:43:53Z</time>
      </trkpt>
      <trkpt lat="44.8747" lon="5.67703">
        <ele>563</ele>
        <time>2019-04-18T13:44:01Z</time>
      </trkpt>
      <trkpt lat="44.87486" lon="5.67698">
        <ele>564</ele>
        <time>2019-04-18T13:44:18Z</time>
      </trkpt>
      <trkpt lat="44.87498" lon="5.67698">
        <ele>565</ele>
        <time>2019-04-18T13:44:31Z</time>
      </trkpt>
      <trkpt lat="44.87513" lon="5.67698">
        <ele>567</ele>
        <time>2019-04-18T13:44:46Z</time>
      </trkpt>
      <trkpt lat="44.87524" lon="5.67699">
        <ele>567</ele>
        <time>2019-04-18T13:44:56Z</time>
      </trkpt>
      <trkpt lat="44.87537" lon="5.67704">
        <ele>566</ele>
        <time>2019-04-18T13:45:10Z</time>
      </trkpt>
      <trkpt lat="44.87546" lon="5.67705">
        <ele>566</ele>
        <time>2019-04-18T13:45:22Z</time>
      </trkpt>
      <trkpt lat="44.87558" lon="5.6771">
        <ele>565</ele>
        <time>2019-04-18T13:45:31Z</time>
      </trkpt>
      <trkpt lat="44.87569" lon="5.67713">
        <ele>564</ele>
        <time>2019-04-18T13:45:45Z</time>
      </trkpt>
      <trkpt lat="44.87577" lon="5.67716">
        <ele>563</ele>
        <time>2019-04-18T13:45:56Z</time>
      </trkpt>
      <trkpt lat="44.87599" lon="5.6772">
        <ele>563</ele>
        <time>2019-04-18T13:46:09Z</time>
      </trkpt>
      <trkpt lat="44.876" lon="5.67721">
        <ele>563</ele>
        <time>2019-04-18T13:46:10Z</time>
      </trkpt>
      <trkpt lat="44.87615" lon="5.67722">
        <ele>564</ele>
        <time>2019-04-18T13:46:22Z</time>
      </trkpt>
      <trkpt lat="44.87618" lon="5.67723">
        <ele>564</ele>
        <time>2019-04-18T13:46:24Z</time>
      </trkpt>
      <trkpt lat="44.87639" lon="5.67726">
        <ele>564</ele>
        <time>2019-04-18T13:46:41Z</time>
      </trkpt>
      <trkpt lat="44.87653" lon="5.67725">
        <ele>563</ele>
        <time>2019-04-18T13:46:54Z</time>
      </trkpt>
      <trkpt lat="44.87659" lon="5.67725">
        <ele>563</ele>
        <time>2019-04-18T13:46:59Z</time>
      </trkpt>
      <trkpt lat="44.87673" lon="5.67725">
        <ele>564</ele>
        <time>2019-04-18T13:47:13Z</time>
      </trkpt>
      <trkpt lat="44.87688" lon="5.67723">
        <ele>565</ele>
        <time>2019-04-18T13:47:26Z</time>
      </trkpt>
      <trkpt lat="44.87701" lon="5.67722">
        <ele>566</ele>
        <time>2019-04-18T13:47:39Z</time>
      </trkpt>
      <trkpt lat="44.87717" lon="5.67722">
        <ele>566</ele>
        <time>2019-04-18T13:47:51Z</time>
      </trkpt>
      <trkpt lat="44.87725" lon="5.6772">
        <ele>567</ele>
        <time>2019-04-18T13:48:00Z</time>
      </trkpt>
      <trkpt lat="44.87743" lon="5.67716">
        <ele>567</ele>
        <time>2019-04-18T13:48:14Z</time>
      </trkpt>
      <trkpt lat="44.87757" lon="5.67714">
        <ele>564</ele>
        <time>2019-04-18T13:48:26Z</time>
      </trkpt>
      <trkpt lat="44.87768" lon="5.67711">
        <ele>564</ele>
        <time>2019-04-18T13:48:39Z</time>
      </trkpt>
      <trkpt lat="44.87783" lon="5.6771">
        <ele>564</ele>
        <time>2019-04-18T13:48:54Z</time>
      </trkpt>
      <trkpt lat="44.878" lon="5.67708">
        <ele>563</ele>
        <time>2019-04-18T13:49:09Z</time>
      </trkpt>
      <trkpt lat="44.87805" lon="5.67707">
        <ele>563</ele>
        <time>2019-04-18T13:49:12Z</time>
      </trkpt>
      <trkpt lat="44.87823" lon="5.67704">
        <ele>563</ele>
        <time>2019-04-18T13:49:29Z</time>
      </trkpt>
      <trkpt lat="44.87825" lon="5.67703">
        <ele>563</ele>
        <time>2019-04-18T13:49:31Z</time>
      </trkpt>
      <trkpt lat="44.87839" lon="5.67703">
        <ele>557</ele>
        <time>2019-04-18T13:49:43Z</time>
      </trkpt>
      <trkpt lat="44.87848" lon="5.677">
        <ele>558</ele>
        <time>2019-04-18T13:49:51Z</time>
      </trkpt>
      <trkpt lat="44.87853" lon="5.67699">
        <ele>558</ele>
        <time>2019-04-18T13:49:54Z</time>
      </trkpt>
      <trkpt lat="44.87864" lon="5.67696">
        <ele>557</ele>
        <time>2019-04-18T13:50:12Z</time>
      </trkpt>
      <trkpt lat="44.87868" lon="5.67694">
        <ele>557</ele>
        <time>2019-04-18T13:50:28Z</time>
      </trkpt>
      <trkpt lat="44.87869" lon="5.67699">
        <ele>556</ele>
        <time>2019-04-18T13:50:51Z</time>
      </trkpt>
      <trkpt lat="44.87867" lon="5.67699">
        <ele>556</ele>
        <time>2019-04-18T13:51:12Z</time>
      </trkpt>
      <trkpt lat="44.87867" lon="5.67698">
        <ele>557</ele>
        <time>2019-04-18T13:51:31Z</time>
      </trkpt>
      <trkpt lat="44.8787" lon="5.67695">
        <ele>557</ele>
        <time>2019-04-18T13:52:03Z</time>
      </trkpt>
      <trkpt lat="44.87884" lon="5.67695">
        <ele>557</ele>
        <time>2019-04-18T13:52:16Z</time>
      </trkpt>
      <trkpt lat="44.87888" lon="5.67693">
        <ele>557</ele>
        <time>2019-04-18T13:52:22Z</time>
      </trkpt>
      <trkpt lat="44.879" lon="5.67688">
        <ele>559</ele>
        <time>2019-04-18T13:52:33Z</time>
      </trkpt>
      <trkpt lat="44.87909" lon="5.67684">
        <ele>561</ele>
        <time>2019-04-18T13:52:43Z</time>
      </trkpt>
      <trkpt lat="44.87922" lon="5.67681">
        <ele>557</ele>
        <time>2019-04-18T13:52:58Z</time>
      </trkpt>
      <trkpt lat="44.8794" lon="5.67672">
        <ele>554</ele>
        <time>2019-04-18T13:53:12Z</time>
      </trkpt>
      <trkpt lat="44.87956" lon="5.67667">
        <ele>574</ele>
        <time>2019-04-18T13:53:27Z</time>
      </trkpt>
      <trkpt lat="44.87967" lon="5.67659">
        <ele>573</ele>
        <time>2019-04-18T13:53:40Z</time>
      </trkpt>
      <trkpt lat="44.87968" lon="5.67658">
        <ele>573</ele>
        <time>2019-04-18T13:53:41Z</time>
      </trkpt>
      <trkpt lat="44.87973" lon="5.67653">
        <ele>573</ele>
        <time>2019-04-18T13:53:46Z</time>
      </trkpt>
      <trkpt lat="44.8798" lon="5.67644">
        <ele>573</ele>
        <time>2019-04-18T13:53:59Z</time>
      </trkpt>
      <trkpt lat="44.8799" lon="5.67634">
        <ele>575</ele>
        <time>2019-04-18T13:54:10Z</time>
      </trkpt>
      <trkpt lat="44.88" lon="5.67627">
        <ele>576</ele>
        <time>2019-04-18T13:54:25Z</time>
      </trkpt>
      <trkpt lat="44.88014" lon="5.67621">
        <ele>568</ele>
        <time>2019-04-18T13:54:39Z</time>
      </trkpt>
      <trkpt lat="44.88027" lon="5.67613">
        <ele>568</ele>
        <time>2019-04-18T13:54:54Z</time>
      </trkpt>
      <trkpt lat="44.88038" lon="5.67606">
        <ele>568</ele>
        <time>2019-04-18T13:55:05Z</time>
      </trkpt>
      <trkpt lat="44.88052" lon="5.67599">
        <ele>567</ele>
        <time>2019-04-18T13:55:19Z</time>
      </trkpt>
      <trkpt lat="44.88063" lon="5.67592">
        <ele>567</ele>
        <time>2019-04-18T13:55:31Z</time>
      </trkpt>
      <trkpt lat="44.88078" lon="5.67588">
        <ele>567</ele>
        <time>2019-04-18T13:55:42Z</time>
      </trkpt>
      <trkpt lat="44.88088" lon="5.67583">
        <ele>565</ele>
        <time>2019-04-18T13:55:54Z</time>
      </trkpt>
      <trkpt lat="44.881" lon="5.67579">
        <ele>571</ele>
        <time>2019-04-18T13:56:05Z</time>
      </trkpt>
      <trkpt lat="44.88104" lon="5.67578">
        <ele>571</ele>
        <time>2019-04-18T13:56:07Z</time>
      </trkpt>
      <trkpt lat="44.88109" lon="5.67577">
        <ele>572</ele>
        <time>2019-04-18T13:56:10Z</time>
      </trkpt>
      <trkpt lat="44.88113" lon="5.67577">
        <ele>572</ele>
        <time>2019-04-18T13:56:13Z</time>
      </trkpt>
      <trkpt lat="44.88116" lon="5.67576">
        <ele>572</ele>
        <time>2019-04-18T13:56:16Z</time>
      </trkpt>
      <trkpt lat="44.8813" lon="5.67576">
        <ele>570</ele>
        <time>2019-04-18T13:56:28Z</time>
      </trkpt>
      <trkpt lat="44.88132" lon="5.67576">
        <ele>570</ele>
        <time>2019-04-18T13:56:30Z</time>
      </trkpt>
      <trkpt lat="44.88143" lon="5.67573">
        <ele>568</ele>
        <time>2019-04-18T13:56:43Z</time>
      </trkpt>
      <trkpt lat="44.88158" lon="5.67574">
        <ele>564</ele>
        <time>2019-04-18T13:56:56Z</time>
      </trkpt>
      <trkpt lat="44.88169" lon="5.67569">
        <ele>558</ele>
        <time>2019-04-18T13:57:10Z</time>
      </trkpt>
      <trkpt lat="44.88174" lon="5.67568">
        <ele>558</ele>
        <time>2019-04-18T13:57:19Z</time>
      </trkpt>
      <trkpt lat="44.88188" lon="5.67569">
        <ele>558</ele>
        <time>2019-04-18T13:57:33Z</time>
      </trkpt>
      <trkpt lat="44.882" lon="5.67569">
        <ele>557</ele>
        <time>2019-04-18T13:57:47Z</time>
      </trkpt>
      <trkpt lat="44.88214" lon="5.67568">
        <ele>556</ele>
        <time>2019-04-18T13:58:00Z</time>
      </trkpt>
      <trkpt lat="44.88226" lon="5.67565">
        <ele>554</ele>
        <time>2019-04-18T13:58:15Z</time>
      </trkpt>
      <trkpt lat="44.88242" lon="5.67566">
        <ele>551</ele>
        <time>2019-04-18T13:58:27Z</time>
      </trkpt>
      <trkpt lat="44.88259" lon="5.67564">
        <ele>543</ele>
        <time>2019-04-18T13:58:40Z</time>
      </trkpt>
      <trkpt lat="44.88279" lon="5.67562">
        <ele>543</ele>
        <time>2019-04-18T13:58:57Z</time>
      </trkpt>
      <trkpt lat="44.883" lon="5.67555">
        <ele>541</ele>
        <time>2019-04-18T13:59:13Z</time>
      </trkpt>
      <trkpt lat="44.88314" lon="5.67544">
        <ele>541</ele>
        <time>2019-04-18T13:59:26Z</time>
      </trkpt>
      <trkpt lat="44.88318" lon="5.67542">
        <ele>541</ele>
        <time>2019-04-18T13:59:29Z</time>
      </trkpt>
      <trkpt lat="44.88328" lon="5.67529">
        <ele>542</ele>
        <time>2019-04-18T13:59:43Z</time>
      </trkpt>
      <trkpt lat="44.88335" lon="5.67518">
        <ele>537</ele>
        <time>2019-04-18T13:59:56Z</time>
      </trkpt>
      <trkpt lat="44.88342" lon="5.67509">
        <ele>538</ele>
        <time>2019-04-18T14:00:08Z</time>
      </trkpt>
      <trkpt lat="44.88351" lon="5.675">
        <ele>537</ele>
        <time>2019-04-18T14:00:20Z</time>
      </trkpt>
      <trkpt lat="44.88367" lon="5.67492">
        <ele>545</ele>
        <time>2019-04-18T14:00:32Z</time>
      </trkpt>
      <trkpt lat="44.8837" lon="5.67491">
        <ele>545</ele>
        <time>2019-04-18T14:00:35Z</time>
      </trkpt>
      <trkpt lat="44.88389" lon="5.67487">
        <ele>543</ele>
        <time>2019-04-18T14:00:51Z</time>
      </trkpt>
      <trkpt lat="44.88392" lon="5.67486">
        <ele>542</ele>
        <time>2019-04-18T14:00:53Z</time>
      </trkpt>
      <trkpt lat="44.88403" lon="5.67485">
        <ele>540</ele>
        <time>2019-04-18T14:01:03Z</time>
      </trkpt>
      <trkpt lat="44.88425" lon="5.67481">
        <ele>535</ele>
        <time>2019-04-18T14:01:19Z</time>
      </trkpt>
      <trkpt lat="44.88442" lon="5.67476">
        <ele>536</ele>
        <time>2019-04-18T14:01:33Z</time>
      </trkpt>
      <trkpt lat="44.88454" lon="5.67472">
        <ele>536</ele>
        <time>2019-04-18T14:01:45Z</time>
      </trkpt>
      <trkpt lat="44.88459" lon="5.67469">
        <ele>536</ele>
        <time>2019-04-18T14:01:48Z</time>
      </trkpt>
      <trkpt lat="44.88461" lon="5.67469">
        <ele>536</ele>
        <time>2019-04-18T14:01:50Z</time>
      </trkpt>
      <trkpt lat="44.88467" lon="5.67466">
        <ele>536</ele>
        <time>2019-04-18T14:01:56Z</time>
      </trkpt>
      <trkpt lat="44.8847" lon="5.67467">
        <ele>536</ele>
        <time>2019-04-18T14:01:59Z</time>
      </trkpt>
      <trkpt lat="44.88477" lon="5.67465">
        <ele>535</ele>
        <time>2019-04-18T14:02:07Z</time>
      </trkpt>
      <trkpt lat="44.88479" lon="5.67464">
        <ele>535</ele>
        <time>2019-04-18T14:02:09Z</time>
      </trkpt>
      <trkpt lat="44.88497" lon="5.67458">
        <ele>536</ele>
        <time>2019-04-18T14:02:25Z</time>
      </trkpt>
      <trkpt lat="44.88498" lon="5.67458">
        <ele>536</ele>
        <time>2019-04-18T14:02:26Z</time>
      </trkpt>
      <trkpt lat="44.88515" lon="5.67451">
        <ele>531</ele>
        <time>2019-04-18T14:02:41Z</time>
      </trkpt>
      <trkpt lat="44.88522" lon="5.67442">
        <ele>532</ele>
        <time>2019-04-18T14:02:49Z</time>
      </trkpt>
      <trkpt lat="44.88527" lon="5.67439">
        <ele>532</ele>
        <time>2019-04-18T14:02:53Z</time>
      </trkpt>
      <trkpt lat="44.8853" lon="5.67436">
        <ele>532</ele>
        <time>2019-04-18T14:02:57Z</time>
      </trkpt>
      <trkpt lat="44.88532" lon="5.67436">
        <ele>532</ele>
        <time>2019-04-18T14:02:59Z</time>
      </trkpt>
      <trkpt lat="44.88544" lon="5.67427">
        <ele>531</ele>
        <time>2019-04-18T14:03:16Z</time>
      </trkpt>
      <trkpt lat="44.88562" lon="5.67426">
        <ele>531</ele>
        <time>2019-04-18T14:03:31Z</time>
      </trkpt>
      <trkpt lat="44.88581" lon="5.67423">
        <ele>531</ele>
        <time>2019-04-18T14:03:48Z</time>
      </trkpt>
      <trkpt lat="44.88596" lon="5.6742">
        <ele>528</ele>
        <time>2019-04-18T14:04:03Z</time>
      </trkpt>
      <trkpt lat="44.88612" lon="5.67419">
        <ele>526</ele>
        <time>2019-04-18T14:04:17Z</time>
      </trkpt>
      <trkpt lat="44.88629" lon="5.67416">
        <ele>539</ele>
        <time>2019-04-18T14:04:34Z</time>
      </trkpt>
      <trkpt lat="44.88643" lon="5.67417">
        <ele>537</ele>
        <time>2019-04-18T14:04:49Z</time>
      </trkpt>
      <trkpt lat="44.8865" lon="5.67416">
        <ele>536</ele>
        <time>2019-04-18T14:04:56Z</time>
      </trkpt>
      <trkpt lat="44.88668" lon="5.6741">
        <ele>531</ele>
        <time>2019-04-18T14:05:12Z</time>
      </trkpt>
      <trkpt lat="44.88674" lon="5.67409">
        <ele>532</ele>
        <time>2019-04-18T14:05:24Z</time>
      </trkpt>
      <trkpt lat="44.88673" lon="5.67409">
        <ele>532</ele>
        <time>2019-04-18T14:05:40Z</time>
      </trkpt>
      <trkpt lat="44.88673" lon="5.67409">
        <ele>532</ele>
        <time>2019-04-18T14:06:02Z</time>
      </trkpt>
      <trkpt lat="44.88671" lon="5.67409">
        <ele>532</ele>
        <time>2019-04-18T14:06:27Z</time>
      </trkpt>
      <trkpt lat="44.88672" lon="5.67411">
        <ele>531</ele>
        <time>2019-04-18T14:06:53Z</time>
      </trkpt>
      <trkpt lat="44.88673" lon="5.67407">
        <ele>532</ele>
        <time>2019-04-18T14:07:21Z</time>
      </trkpt>
      <trkpt lat="44.88674" lon="5.67408">
        <ele>532</ele>
        <time>2019-04-18T14:07:47Z</time>
      </trkpt>
      <trkpt lat="44.88675" lon="5.67407">
        <ele>533</ele>
        <time>2019-04-18T14:08:02Z</time>
      </trkpt>
      <trkpt lat="44.88677" lon="5.67406">
        <ele>533</ele>
        <time>2019-04-18T14:08:04Z</time>
      </trkpt>
      <trkpt lat="44.88681" lon="5.67405">
        <ele>534</ele>
        <time>2019-04-18T14:08:08Z</time>
      </trkpt>
      <trkpt lat="44.88683" lon="5.67404">
        <ele>534</ele>
        <time>2019-04-18T14:08:10Z</time>
      </trkpt>
      <trkpt lat="44.88686" lon="5.67404">
        <ele>534</ele>
        <time>2019-04-18T14:08:13Z</time>
      </trkpt>
      <trkpt lat="44.88697" lon="5.67394">
        <ele>535</ele>
        <time>2019-04-18T14:08:29Z</time>
      </trkpt>
      <trkpt lat="44.88704" lon="5.67393">
        <ele>536</ele>
        <time>2019-04-18T14:08:35Z</time>
      </trkpt>
      <trkpt lat="44.88707" lon="5.67392">
        <ele>536</ele>
        <time>2019-04-18T14:08:37Z</time>
      </trkpt>
      <trkpt lat="44.88713" lon="5.67392">
        <ele>535</ele>
        <time>2019-04-18T14:08:42Z</time>
      </trkpt>
      <trkpt lat="44.88725" lon="5.67388">
        <ele>535</ele>
        <time>2019-04-18T14:08:56Z</time>
      </trkpt>
      <trkpt lat="44.88737" lon="5.67384">
        <ele>535</ele>
        <time>2019-04-18T14:09:08Z</time>
      </trkpt>
      <trkpt lat="44.88739" lon="5.67383">
        <ele>535</ele>
        <time>2019-04-18T14:09:10Z</time>
      </trkpt>
      <trkpt lat="44.8874" lon="5.67383">
        <ele>535</ele>
        <time>2019-04-18T14:09:11Z</time>
      </trkpt>
      <trkpt lat="44.88741" lon="5.67383">
        <ele>535</ele>
        <time>2019-04-18T14:09:12Z</time>
      </trkpt>
      <trkpt lat="44.88742" lon="5.67382">
        <ele>535</ele>
        <time>2019-04-18T14:09:13Z</time>
      </trkpt>
      <trkpt lat="44.88743" lon="5.67382">
        <ele>535</ele>
        <time>2019-04-18T14:09:14Z</time>
      </trkpt>
      <trkpt lat="44.88744" lon="5.67382">
        <ele>535</ele>
        <time>2019-04-18T14:09:15Z</time>
      </trkpt>
      <trkpt lat="44.88745" lon="5.67381">
        <ele>535</ele>
        <time>2019-04-18T14:09:16Z</time>
      </trkpt>
      <trkpt lat="44.88746" lon="5.67379">
        <ele>536</ele>
        <time>2019-04-18T14:09:21Z</time>
      </trkpt>
      <trkpt lat="44.88746" lon="5.67379">
        <ele>536</ele>
        <time>2019-04-18T14:09:22Z</time>
      </trkpt>
      <trkpt lat="44.88746" lon="5.67379">
        <ele>536</ele>
        <time>2019-04-18T14:09:23Z</time>
      </trkpt>
      <trkpt lat="44.88746" lon="5.67379">
        <ele>536</ele>
        <time>2019-04-18T14:09:24Z</time>
      </trkpt>
      <trkpt lat="44.88746" lon="5.67379">
        <ele>536</ele>
        <time>2019-04-18T14:09:25Z</time>
      </trkpt>
      <trkpt lat="44.88746" lon="5.67379">
        <ele>535</ele>
        <time>2019-04-18T14:09:26Z</time>
      </trkpt>
      <trkpt lat="44.88747" lon="5.6738">
        <ele>535</ele>
        <time>2019-04-18T14:09:27Z</time>
      </trkpt>
      <trkpt lat="44.88748" lon="5.6738">
        <ele>535</ele>
        <time>2019-04-18T14:09:28Z</time>
      </trkpt>
      <trkpt lat="44.88749" lon="5.6738">
        <ele>535</ele>
        <time>2019-04-18T14:09:29Z</time>
      </trkpt>
      <trkpt lat="44.88754" lon="5.6738">
        <ele>531</ele>
        <time>2019-04-18T14:09:33Z</time>
      </trkpt>
      <trkpt lat="44.88769" lon="5.67373">
        <ele>531</ele>
        <time>2019-04-18T14:09:46Z</time>
      </trkpt>
      <trkpt lat="44.88777" lon="5.67371">
        <ele>531</ele>
        <time>2019-04-18T14:09:54Z</time>
      </trkpt>
      <trkpt lat="44.88793" lon="5.67367">
        <ele>531</ele>
        <time>2019-04-18T14:10:09Z</time>
      </trkpt>
      <trkpt lat="44.88804" lon="5.67364">
        <ele>531</ele>
        <time>2019-04-18T14:10:19Z</time>
      </trkpt>
      <trkpt lat="44.88805" lon="5.67364">
        <ele>531</ele>
        <time>2019-04-18T14:10:20Z</time>
      </trkpt>
      <trkpt lat="44.88805" lon="5.67363">
        <ele>531</ele>
        <time>2019-04-18T14:10:21Z</time>
      </trkpt>
      <trkpt lat="44.88807" lon="5.67363">
        <ele>531</ele>
        <time>2019-04-18T14:10:22Z</time>
      </trkpt>
      <trkpt lat="44.88808" lon="5.67364">
        <ele>531</ele>
        <time>2019-04-18T14:10:23Z</time>
      </trkpt>
      <trkpt lat="44.88809" lon="5.67364">
        <ele>531</ele>
        <time>2019-04-18T14:10:25Z</time>
      </trkpt>
      <trkpt lat="44.88816" lon="5.67363">
        <ele>531</ele>
        <time>2019-04-18T14:10:31Z</time>
      </trkpt>
      <trkpt lat="44.88831" lon="5.6736">
        <ele>531</ele>
        <time>2019-04-18T14:10:46Z</time>
      </trkpt>
      <trkpt lat="44.88844" lon="5.67357">
        <ele>528</ele>
        <time>2019-04-18T14:11:00Z</time>
      </trkpt>
      <trkpt lat="44.88857" lon="5.67357">
        <ele>526</ele>
        <time>2019-04-18T14:11:15Z</time>
      </trkpt>
      <trkpt lat="44.88859" lon="5.67357">
        <ele>526</ele>
        <time>2019-04-18T14:11:17Z</time>
      </trkpt>
      <trkpt lat="44.88875" lon="5.67354">
        <ele>526</ele>
        <time>2019-04-18T14:11:31Z</time>
      </trkpt>
      <trkpt lat="44.8889" lon="5.6735">
        <ele>526</ele>
        <time>2019-04-18T14:11:45Z</time>
      </trkpt>
      <trkpt lat="44.88895" lon="5.67341">
        <ele>527</ele>
        <time>2019-04-18T14:11:57Z</time>
      </trkpt>
      <trkpt lat="44.88895" lon="5.6734">
        <ele>527</ele>
        <time>2019-04-18T14:11:58Z</time>
      </trkpt>
      <trkpt lat="44.88901" lon="5.67328">
        <ele>538</ele>
        <time>2019-04-18T14:12:11Z</time>
      </trkpt>
      <trkpt lat="44.88922" lon="5.67328">
        <ele>534</ele>
        <time>2019-04-18T14:12:27Z</time>
      </trkpt>
      <trkpt lat="44.88935" lon="5.67332">
        <ele>537</ele>
        <time>2019-04-18T14:12:38Z</time>
      </trkpt>
      <trkpt lat="44.88948" lon="5.67333">
        <ele>538</ele>
        <time>2019-04-18T14:12:50Z</time>
      </trkpt>
      <trkpt lat="44.88956" lon="5.67331">
        <ele>539</ele>
        <time>2019-04-18T14:12:56Z</time>
      </trkpt>
      <trkpt lat="44.88957" lon="5.67331">
        <ele>539</ele>
        <time>2019-04-18T14:12:58Z</time>
      </trkpt>
      <trkpt lat="44.8897" lon="5.67328">
        <ele>539</ele>
        <time>2019-04-18T14:13:11Z</time>
      </trkpt>
      <trkpt lat="44.88982" lon="5.67327">
        <ele>537</ele>
        <time>2019-04-18T14:13:23Z</time>
      </trkpt>
      <trkpt lat="44.88999" lon="5.67327">
        <ele>533</ele>
        <time>2019-04-18T14:13:38Z</time>
      </trkpt>
      <trkpt lat="44.8901" lon="5.67325">
        <ele>537</ele>
        <time>2019-04-18T14:13:50Z</time>
      </trkpt>
      <trkpt lat="44.89023" lon="5.67325">
        <ele>540</ele>
        <time>2019-04-18T14:14:05Z</time>
      </trkpt>
      <trkpt lat="44.89025" lon="5.67324">
        <ele>540</ele>
        <time>2019-04-18T14:14:07Z</time>
      </trkpt>
      <trkpt lat="44.8904" lon="5.67323">
        <ele>542</ele>
        <time>2019-04-18T14:14:21Z</time>
      </trkpt>
      <trkpt lat="44.89046" lon="5.67322">
        <ele>543</ele>
        <time>2019-04-18T14:14:26Z</time>
      </trkpt>
      <trkpt lat="44.89059" lon="5.67322">
        <ele>542</ele>
        <time>2019-04-18T14:14:40Z</time>
      </trkpt>
      <trkpt lat="44.89062" lon="5.67321">
        <ele>542</ele>
        <time>2019-04-18T14:14:42Z</time>
      </trkpt>
      <trkpt lat="44.89068" lon="5.67323">
        <ele>541</ele>
        <time>2019-04-18T14:14:49Z</time>
      </trkpt>
      <trkpt lat="44.89071" lon="5.67321">
        <ele>541</ele>
        <time>2019-04-18T14:14:52Z</time>
      </trkpt>
      <trkpt lat="44.89076" lon="5.67321">
        <ele>540</ele>
        <time>2019-04-18T14:14:57Z</time>
      </trkpt>
      <trkpt lat="44.89087" lon="5.67322">
        <ele>540</ele>
        <time>2019-04-18T14:15:08Z</time>
      </trkpt>
      <trkpt lat="44.89102" lon="5.67322">
        <ele>542</ele>
        <time>2019-04-18T14:15:23Z</time>
      </trkpt>
      <trkpt lat="44.89113" lon="5.67317">
        <ele>544</ele>
        <time>2019-04-18T14:15:36Z</time>
      </trkpt>
      <trkpt lat="44.8912" lon="5.67314">
        <ele>545</ele>
        <time>2019-04-18T14:15:45Z</time>
      </trkpt>
      <trkpt lat="44.89131" lon="5.67312">
        <ele>545</ele>
        <time>2019-04-18T14:16:00Z</time>
      </trkpt>
      <trkpt lat="44.89144" lon="5.6731">
        <ele>545</ele>
        <time>2019-04-18T14:16:15Z</time>
      </trkpt>
      <trkpt lat="44.8916" lon="5.67307">
        <ele>545</ele>
        <time>2019-04-18T14:16:30Z</time>
      </trkpt>
      <trkpt lat="44.89173" lon="5.67304">
        <ele>544</ele>
        <time>2019-04-18T14:16:43Z</time>
      </trkpt>
      <trkpt lat="44.89185" lon="5.67301">
        <ele>545</ele>
        <time>2019-04-18T14:16:57Z</time>
      </trkpt>
      <trkpt lat="44.892" lon="5.67294">
        <ele>546</ele>
        <time>2019-04-18T14:17:12Z</time>
      </trkpt>
      <trkpt lat="44.89208" lon="5.67293">
        <ele>546</ele>
        <time>2019-04-18T14:17:24Z</time>
      </trkpt>
      <trkpt lat="44.89214" lon="5.67293">
        <ele>546</ele>
        <time>2019-04-18T14:17:36Z</time>
      </trkpt>
      <trkpt lat="44.89228" lon="5.67294">
        <ele>546</ele>
        <time>2019-04-18T14:17:49Z</time>
      </trkpt>
      <trkpt lat="44.89235" lon="5.67292">
        <ele>546</ele>
        <time>2019-04-18T14:17:57Z</time>
      </trkpt>
      <trkpt lat="44.89244" lon="5.67293">
        <ele>546</ele>
        <time>2019-04-18T14:18:07Z</time>
      </trkpt>
      <trkpt lat="44.89258" lon="5.67297">
        <ele>542</ele>
        <time>2019-04-18T14:18:19Z</time>
      </trkpt>
      <trkpt lat="44.89272" lon="5.673">
        <ele>541</ele>
        <time>2019-04-18T14:18:33Z</time>
      </trkpt>
      <trkpt lat="44.89284" lon="5.67298">
        <ele>542</ele>
        <time>2019-04-18T14:18:47Z</time>
      </trkpt>
      <trkpt lat="44.89298" lon="5.67295">
        <ele>542</ele>
        <time>2019-04-18T14:18:59Z</time>
      </trkpt>
      <trkpt lat="44.89313" lon="5.6729">
        <ele>542</ele>
        <time>2019-04-18T14:19:14Z</time>
      </trkpt>
      <trkpt lat="44.89316" lon="5.6729">
        <ele>542</ele>
        <time>2019-04-18T14:19:18Z</time>
      </trkpt>
      <trkpt lat="44.89326" lon="5.67288">
        <ele>542</ele>
        <time>2019-04-18T14:19:33Z</time>
      </trkpt>
      <trkpt lat="44.89326" lon="5.67289">
        <ele>542</ele>
        <time>2019-04-18T14:19:53Z</time>
      </trkpt>
      <trkpt lat="44.89326" lon="5.67288">
        <ele>543</ele>
        <time>2019-04-18T14:20:19Z</time>
      </trkpt>
      <trkpt lat="44.89326" lon="5.67289">
        <ele>542</ele>
        <time>2019-04-18T14:20:50Z</time>
      </trkpt>
      <trkpt lat="44.89332" lon="5.67288">
        <ele>542</ele>
        <time>2019-04-18T14:21:11Z</time>
      </trkpt>
      <trkpt lat="44.8934" lon="5.67285">
        <ele>541</ele>
        <time>2019-04-18T14:21:24Z</time>
      </trkpt>
      <trkpt lat="44.89351" lon="5.67282">
        <ele>541</ele>
        <time>2019-04-18T14:21:35Z</time>
      </trkpt>
      <trkpt lat="44.89352" lon="5.67283">
        <ele>541</ele>
        <time>2019-04-18T14:21:36Z</time>
      </trkpt>
      <trkpt lat="44.89355" lon="5.67282">
        <ele>541</ele>
        <time>2019-04-18T14:21:38Z</time>
      </trkpt>
      <trkpt lat="44.8937" lon="5.67277">
        <ele>541</ele>
        <time>2019-04-18T14:21:51Z</time>
      </trkpt>
      <trkpt lat="44.89377" lon="5.67274">
        <ele>541</ele>
        <time>2019-04-18T14:21:58Z</time>
      </trkpt>
      <trkpt lat="44.8938" lon="5.67273">
        <ele>541</ele>
        <time>2019-04-18T14:22:00Z</time>
      </trkpt>
      <trkpt lat="44.89394" lon="5.67269">
        <ele>542</ele>
        <time>2019-04-18T14:22:15Z</time>
      </trkpt>
      <trkpt lat="44.89406" lon="5.6727">
        <ele>542</ele>
        <time>2019-04-18T14:22:28Z</time>
      </trkpt>
      <trkpt lat="44.89419" lon="5.67268">
        <ele>541</ele>
        <time>2019-04-18T14:22:42Z</time>
      </trkpt>
      <trkpt lat="44.89436" lon="5.67263">
        <ele>539</ele>
        <time>2019-04-18T14:22:58Z</time>
      </trkpt>
      <trkpt lat="44.8945" lon="5.67256">
        <ele>538</ele>
        <time>2019-04-18T14:23:12Z</time>
      </trkpt>
      <trkpt lat="44.89454" lon="5.67254">
        <ele>537</ele>
        <time>2019-04-18T14:23:16Z</time>
      </trkpt>
      <trkpt lat="44.89465" lon="5.67248">
        <ele>552</ele>
        <time>2019-04-18T14:23:28Z</time>
      </trkpt>
      <trkpt lat="44.89479" lon="5.67244">
        <ele>550</ele>
        <time>2019-04-18T14:23:42Z</time>
      </trkpt>
      <trkpt lat="44.89493" lon="5.67237">
        <ele>547</ele>
        <time>2019-04-18T14:23:55Z</time>
      </trkpt>
      <trkpt lat="44.89494" lon="5.67236">
        <ele>547</ele>
        <time>2019-04-18T14:23:58Z</time>
      </trkpt>
      <trkpt lat="44.89508" lon="5.67233">
        <ele>542</ele>
        <time>2019-04-18T14:24:11Z</time>
      </trkpt>
      <trkpt lat="44.89509" lon="5.67247">
        <ele>541</ele>
        <time>2019-04-18T14:24:23Z</time>
      </trkpt>
      <trkpt lat="44.89501" lon="5.67252">
        <ele>538</ele>
        <time>2019-04-18T14:24:33Z</time>
      </trkpt>
      <trkpt lat="44.89499" lon="5.67253">
        <ele>538</ele>
        <time>2019-04-18T14:24:35Z</time>
      </trkpt>
      <trkpt lat="44.89495" lon="5.67254">
        <ele>538</ele>
        <time>2019-04-18T14:24:39Z</time>
      </trkpt>
      <trkpt lat="44.89493" lon="5.67256">
        <ele>537</ele>
        <time>2019-04-18T14:24:42Z</time>
      </trkpt>
      <trkpt lat="44.89484" lon="5.67263">
        <ele>536</ele>
        <time>2019-04-18T14:24:54Z</time>
      </trkpt>
      <trkpt lat="44.89473" lon="5.67276">
        <ele>534</ele>
        <time>2019-04-18T14:25:07Z</time>
      </trkpt>
      <trkpt lat="44.89471" lon="5.67278">
        <ele>534</ele>
        <time>2019-04-18T14:25:09Z</time>
      </trkpt>
      <trkpt lat="44.8946" lon="5.67292">
        <ele>533</ele>
        <time>2019-04-18T14:25:22Z</time>
      </trkpt>
      <trkpt lat="44.89448" lon="5.67307">
        <ele>531</ele>
        <time>2019-04-18T14:25:35Z</time>
      </trkpt>
      <trkpt lat="44.89436" lon="5.67318">
        <ele>530</ele>
        <time>2019-04-18T14:25:48Z</time>
      </trkpt>
      <trkpt lat="44.89432" lon="5.67321">
        <ele>529</ele>
        <time>2019-04-18T14:25:52Z</time>
      </trkpt>
      <trkpt lat="44.89426" lon="5.67328">
        <ele>527</ele>
        <time>2019-04-18T14:25:59Z</time>
      </trkpt>
      <trkpt lat="44.89417" lon="5.67344">
        <ele>521</ele>
        <time>2019-04-18T14:26:11Z</time>
      </trkpt>
      <trkpt lat="44.89421" lon="5.67366">
        <ele>518</ele>
        <time>2019-04-18T14:26:25Z</time>
      </trkpt>
      <trkpt lat="44.89433" lon="5.67375">
        <ele>517</ele>
        <time>2019-04-18T14:26:38Z</time>
      </trkpt>
      <trkpt lat="44.89436" lon="5.67374">
        <ele>517</ele>
        <time>2019-04-18T14:26:41Z</time>
      </trkpt>
      <trkpt lat="44.89454" lon="5.67366">
        <ele>517</ele>
        <time>2019-04-18T14:26:55Z</time>
      </trkpt>
      <trkpt lat="44.89472" lon="5.67358">
        <ele>517</ele>
        <time>2019-04-18T14:27:10Z</time>
      </trkpt>
      <trkpt lat="44.89488" lon="5.67356">
        <ele>517</ele>
        <time>2019-04-18T14:27:23Z</time>
      </trkpt>
      <trkpt lat="44.89505" lon="5.67356">
        <ele>515</ele>
        <time>2019-04-18T14:27:38Z</time>
      </trkpt>
      <trkpt lat="44.89522" lon="5.67356">
        <ele>514</ele>
        <time>2019-04-18T14:27:52Z</time>
      </trkpt>
      <trkpt lat="44.89537" lon="5.67356">
        <ele>513</ele>
        <time>2019-04-18T14:28:05Z</time>
      </trkpt>
      <trkpt lat="44.8954" lon="5.67355">
        <ele>513</ele>
        <time>2019-04-18T14:28:08Z</time>
      </trkpt>
      <trkpt lat="44.89559" lon="5.67354">
        <ele>513</ele>
        <time>2019-04-18T14:28:24Z</time>
      </trkpt>
      <trkpt lat="44.89572" lon="5.67353">
        <ele>513</ele>
        <time>2019-04-18T14:28:39Z</time>
      </trkpt>
      <trkpt lat="44.89579" lon="5.67352">
        <ele>513</ele>
        <time>2019-04-18T14:28:46Z</time>
      </trkpt>
      <trkpt lat="44.89596" lon="5.67356">
        <ele>510</ele>
        <time>2019-04-18T14:29:01Z</time>
      </trkpt>
      <trkpt lat="44.89604" lon="5.67355">
        <ele>509</ele>
        <time>2019-04-18T14:29:15Z</time>
      </trkpt>
      <trkpt lat="44.89605" lon="5.67348">
        <ele>510</ele>
        <time>2019-04-18T14:29:29Z</time>
      </trkpt>
      <trkpt lat="44.89606" lon="5.67349">
        <ele>510</ele>
        <time>2019-04-18T14:29:43Z</time>
      </trkpt>
      <trkpt lat="44.89606" lon="5.67349">
        <ele>510</ele>
        <time>2019-04-18T14:29:58Z</time>
      </trkpt>
      <trkpt lat="44.89605" lon="5.6735">
        <ele>510</ele>
        <time>2019-04-18T14:30:17Z</time>
      </trkpt>
      <trkpt lat="44.89604" lon="5.67347">
        <ele>510</ele>
        <time>2019-04-18T14:30:43Z</time>
      </trkpt>
      <trkpt lat="44.89605" lon="5.67346">
        <ele>510</ele>
        <time>2019-04-18T14:30:48Z</time>
      </trkpt>
      <trkpt lat="44.89606" lon="5.67346">
        <ele>510</ele>
        <time>2019-04-18T14:31:17Z</time>
      </trkpt>
      <trkpt lat="44.89607" lon="5.67347">
        <ele>510</ele>
        <time>2019-04-18T14:31:20Z</time>
      </trkpt>
      <trkpt lat="44.89607" lon="5.67346">
        <ele>510</ele>
        <time>2019-04-18T14:31:22Z</time>
      </trkpt>
      <trkpt lat="44.89607" lon="5.67347">
        <ele>510</ele>
        <time>2019-04-18T14:31:44Z</time>
      </trkpt>
      <trkpt lat="44.89607" lon="5.67346">
        <ele>510</ele>
        <time>2019-04-18T14:31:58Z</time>
      </trkpt>
      <trkpt lat="44.89607" lon="5.67346">
        <ele>510</ele>
        <time>2019-04-18T14:32:07Z</time>
      </trkpt>
      <trkpt lat="44.89607" lon="5.67347">
        <ele>510</ele>
        <time>2019-04-18T14:32:29Z</time>
      </trkpt>
      <trkpt lat="44.89608" lon="5.67348">
        <ele>510</ele>
        <time>2019-04-18T14:32:54Z</time>
      </trkpt>
      <trkpt lat="44.89608" lon="5.67347">
        <ele>510</ele>
        <time>2019-04-18T14:33:06Z</time>
      </trkpt>
      <trkpt lat="44.89608" lon="5.67347">
        <ele>510</ele>
        <time>2019-04-18T14:33:07Z</time>
      </trkpt>
      <trkpt lat="44.89608" lon="5.67348">
        <ele>510</ele>
        <time>2019-04-18T14:33:09Z</time>
      </trkpt>
      <trkpt lat="44.89608" lon="5.67348">
        <ele>510</ele>
        <time>2019-04-18T14:33:29Z</time>
      </trkpt>
      <trkpt lat="44.89607" lon="5.67349">
        <ele>510</ele>
        <time>2019-04-18T14:33:58Z</time>
      </trkpt>
      <trkpt lat="44.89606" lon="5.67348">
        <ele>510</ele>
        <time>2019-04-18T14:34:31Z</time>
      </trkpt>
      <trkpt lat="44.89606" lon="5.67349">
        <ele>510</ele>
        <time>2019-04-18T14:34:47Z</time>
      </trkpt>
      <trkpt lat="44.89606" lon="5.67349">
        <ele>510</ele>
        <time>2019-04-18T14:35:14Z</time>
      </trkpt>
      <trkpt lat="44.89606" lon="5.6735">
        <ele>510</ele>
        <time>2019-04-18T14:35:24Z</time>
      </trkpt>
      <trkpt lat="44.89605" lon="5.6735">
        <ele>510</ele>
        <time>2019-04-18T14:35:41Z</time>
      </trkpt>
      <trkpt lat="44.89605" lon="5.6735">
        <ele>510</ele>
        <time>2019-04-18T14:36:01Z</time>
      </trkpt>
      <trkpt lat="44.89604" lon="5.6735">
        <ele>510</ele>
        <time>2019-04-18T14:36:21Z</time>
      </trkpt>
      <trkpt lat="44.89604" lon="5.6735">
        <ele>510</ele>
        <time>2019-04-18T14:36:39Z</time>
      </trkpt>
      <trkpt lat="44.89605" lon="5.67351">
        <ele>510</ele>
        <time>2019-04-18T14:37:06Z</time>
      </trkpt>
      <trkpt lat="44.89605" lon="5.67351">
        <ele>510</ele>
        <time>2019-04-18T14:37:33Z</time>
      </trkpt>
      <trkpt lat="44.89604" lon="5.67353">
        <ele>509</ele>
        <time>2019-04-18T14:37:39Z</time>
      </trkpt>
      <trkpt lat="44.896" lon="5.67358">
        <ele>509</ele>
        <time>2019-04-18T14:37:52Z</time>
      </trkpt>
      <trkpt lat="44.89599" lon="5.6736">
        <ele>509</ele>
        <time>2019-04-18T14:38:02Z</time>
      </trkpt>
      <trkpt lat="44.89602" lon="5.67358">
        <ele>509</ele>
        <time>2019-04-18T14:38:06Z</time>
      </trkpt>
      <trkpt lat="44.89602" lon="5.67353">
        <ele>510</ele>
        <time>2019-04-18T14:38:08Z</time>
      </trkpt>
      <trkpt lat="44.89604" lon="5.67351">
        <ele>510</ele>
        <time>2019-04-18T14:38:21Z</time>
      </trkpt>
      <trkpt lat="44.89606" lon="5.67349">
        <ele>510</ele>
        <time>2019-04-18T14:38:45Z</time>
      </trkpt>
      <trkpt lat="44.89606" lon="5.67348">
        <ele>510</ele>
        <time>2019-04-18T14:38:53Z</time>
      </trkpt>
      <trkpt lat="44.89606" lon="5.67348">
        <ele>510</ele>
        <time>2019-04-18T14:38:54Z</time>
      </trkpt>
      <trkpt lat="44.89606" lon="5.67349">
        <ele>510</ele>
        <time>2019-04-18T14:38:55Z</time>
      </trkpt>
      <trkpt lat="44.89606" lon="5.67349">
        <ele>510</ele>
        <time>2019-04-18T14:38:56Z</time>
      </trkpt>
      <trkpt lat="44.89606" lon="5.67349">
        <ele>510</ele>
        <time>2019-04-18T14:38:58Z</time>
      </trkpt>
      <trkpt lat="44.89606" lon="5.67349">
        <ele>510</ele>
        <time>2019-04-18T14:38:59Z</time>
      </trkpt>
      <trkpt lat="44.89606" lon="5.67348">
        <ele>510</ele>
        <time>2019-04-18T14:39:01Z</time>
      </trkpt>
      <trkpt lat="44.89606" lon="5.67348">
        <ele>510</ele>
        <time>2019-04-18T14:39:02Z</time>
      </trkpt>
      <trkpt lat="44.89606" lon="5.67348">
        <ele>510</ele>
        <time>2019-04-18T14:39:03Z</time>
      </trkpt>
      <trkpt lat="44.89606" lon="5.67348">
        <ele>510</ele>
        <time>2019-04-18T14:39:04Z</time>
      </trkpt>
      <trkpt lat="44.89606" lon="5.67348">
        <ele>510</ele>
        <time>2019-04-18T14:39:05Z</time>
      </trkpt>
      <trkpt lat="44.89606" lon="5.67348">
        <ele>510</ele>
        <time>2019-04-18T14:39:06Z</time>
      </trkpt>
      <trkpt lat="44.89606" lon="5.67348">
        <ele>510</ele>
        <time>2019-04-18T14:39:07Z</time>
      </trkpt>
      <trkpt lat="44.89607" lon="5.67348">
        <ele>510</ele>
        <time>2019-04-18T14:39:21Z</time>
      </trkpt>
      <trkpt lat="44.89607" lon="5.67349">
        <ele>510</ele>
        <time>2019-04-18T14:39:28Z</time>
      </trkpt>
      <trkpt lat="44.89607" lon="5.67349">
        <ele>510</ele>
        <time>2019-04-18T14:39:29Z</time>
      </trkpt>
      <trkpt lat="44.89607" lon="5.67349">
        <ele>510</ele>
        <time>2019-04-18T14:39:33Z</time>
      </trkpt>
      <trkpt lat="44.89607" lon="5.67349">
        <ele>510</ele>
        <time>2019-04-18T14:39:34Z</time>
      </trkpt>
      <trkpt lat="44.89607" lon="5.67349">
        <ele>510</ele>
        <time>2019-04-18T14:39:35Z</time>
      </trkpt>
      <trkpt lat="44.89607" lon="5.67349">
        <ele>510</ele>
        <time>2019-04-18T14:39:36Z</time>
      </trkpt>
      <trkpt lat="44.89607" lon="5.67349">
        <ele>510</ele>
        <time>2019-04-18T14:39:37Z</time>
      </trkpt>
      <trkpt lat="44.89607" lon="5.67349">
        <ele>510</ele>
        <time>2019-04-18T14:39:38Z</time>
      </trkpt>
      <trkpt lat="44.89607" lon="5.67349">
        <ele>510</ele>
        <time>2019-04-18T14:39:39Z</time>
      </trkpt>
      <trkpt lat="44.89607" lon="5.67349">
        <ele>510</ele>
        <time>2019-04-18T14:39:40Z</time>
      </trkpt>
      <trkpt lat="44.89607" lon="5.67349">
        <ele>510</ele>
        <time>2019-04-18T14:39:44Z</time>
      </trkpt>
      <trkpt lat="44.89607" lon="5.67349">
        <ele>510</ele>
        <time>2019-04-18T14:39:45Z</time>
      </trkpt>
      <trkpt lat="44.89607" lon="5.67349">
        <ele>510</ele>
        <time>2019-04-18T14:39:46Z</time>
      </trkpt>
    </trkseg>
  </trk>
</gpx>